[[{"header":{"parameterUnit":"m.s-1","parameterCategory":1,"la1":31.0,"la2":29.5877,"lo1":-88.7671,"lo2":-86.6584,"dy":0.0162,"dx":0.0185,"nx":115,"ny":88,"refTime":"2026-04-21T00:00:00:Z","depth":0,"parameterNumber":2,"parameterNumberName":"U-component_of_WINDS"},"data":[0.0,0.0,0.0,0.0,0.0,0.0,0.0,0.0,0.0,0.0,0.0,0.0,0.0,0.0,0.0,0.0,0.0,0.0,0.0,0.0,0.0,0.0,0.0,0.0,0.0,0.0,0.0,0.0,0.0,0.0,0.0,0.0,0.0,0.0,0.0,0.0,0.0,0.0,0.0,0.0,0.0,0.0,0.0,0.0,0.0,0.0,0.0,0.0,0.0,0.0,0.0,0.0,0.0,0.0,0.0,0.0,0.0,0.0,0.0,0.0,0.0,0.0,0.0,0.0,0.0,0.0,0.0,0.0,0.0,0.0,0.0,0.0,0.0,0.0,0.0,0.0,0.0,0.0,0.0,0.0,0.0,0.0,0.0,0.0,0.0,0.0,0.0,0.0,0.0,0.0,0.0,0.0,0.0,0.0,0.0,0.0,0.0,0.0,0.0,0.0,0.0,0.0,0.0,0.0,0.0,0.0,0.0,0.0,0.0,0.0,0.0,0.0,0.0,0.0,0.0,0.0,0.0,0.0,0.0,0.0,0.0,0.0,0.0,0.0,0.0,0.0,0.0,0.0,0.0,0.0,0.0,0.0,0.0,0.0,0.0,0.0,0.0,0.0,0.0,0.0,0.0,0.0,0.0,0.0,0.0,0.0,0.0,0.0,0.0,0.0,0.0,0.0,0.0,0.0,0.0,0.0,0.0,0.0,0.0,0.0,0.0,0.0,0.0,0.0,0.0,0.0,0.0,0.0,0.0,0.0,0.0,0.0,0.0,0.0,0.0,0.0,0.0,0.0,0.0,0.0,0.0,0.0,0.0,0.0,0.0,0.0,0.0,0.0,0.0,0.0,0.0,0.0,0.0,0.0,0.0,0.0,0.0,0.0,0.0,0.0,0.0,0.0,0.0,0.0,0.0,0.0,0.0,0.0,0.0,0.0,0.0,0.0,0.0,0.0,0.0,0.0,0.0,0.0,0.0,0.0,0.0,0.0,0.0,0.0,0.0,0.0,0.0,0.0,0.0,0.0,0.0,0.0,0.0,0.0,0.0,0.0,0.0,0.0,0.0,0.0,0.0,0.0,0.0,0.0,0.0,0.0,0.0,0.0,0.0,0.0,0.0,0.0,0.0,0.0,0.0,0.0,0.0,0.0,0.0,0.0,0.0,0.0,0.0,0.0,0.0,0.0,0.0,0.0,0.0,0.0,0.0,0.0,0.0,0.0,0.0,0.0,0.0,0.0,0.0,0.0,0.0,0.0,0.0,0.0,0.0,0.0,0.0,0.0,0.0,0.0,0.0,0.0,0.0,0.0,0.0,0.0,0.0,0.0,0.0,0.0,0.0,0.0,0.0,0.0,0.0,0.0,0.0,0.0,0.0,0.0,0.0,0.0,0.0,0.0,0.0,0.0,0.0,0.0,0.0,0.0,0.0,0.0,0.0,0.0,0.0,0.0,0.0,0.0,0.0,0.0,0.0,0.0,0.0,0.0,0.0,0.0,0.0,0.0,0.0,0.0,0.0,0.0,0.0,0.0,0.0,0.0,0.0,0.0,0.0,0.0,0.0,0.0,0.0,0.0,0.0,0.0,0.0,0.0,0.0,0.0,0.0,0.0,0.0,0.0,0.0,0.0,0.0,0.0,0.0,0.0,0.0,0.0,0.0,0.0,0.0,0.0,0.0,0.0,0.0,0.0,0.0,0.0,0.0,0.0,0.0,0.0,0.0,0.0,0.0,0.0,0.0,0.0,0.0,0.0,0.0,0.0,0.0,0.0,0.0,0.0,0.0,0.0,0.0,0.0,0.0,0.0,0.0,0.0,0.0,0.0,0.0,0.0,0.0,0.0,0.0,0.0,0.0,0.0,0.0,0.0,0.0,0.0,0.0,0.0,0.0,0.0,0.0,0.0,0.0,0.0,0.0,0.0,0.0,0.0,0.0,0.0,0.0,0.0,0.0,0.0,0.0,0.0,0.0,0.0,0.0,0.0,0.0,0.0,0.0,0.0,0.0,0.0,0.0,0.0,0.0,0.0,0.0,0.0,0.0,0.0,0.0,0.0,0.0,0.0,0.0,0.0,0.0,0.0,0.0,0.0,0.0,0.0,0.0,0.0,0.0,0.0,0.0,0.0,0.0,0.0,0.0,0.0,0.0,0.0,0.0,0.0,0.0,0.0,0.0,0.0,0.0,0.0,0.0,0.0,0.0,0.0,0.0,0.0,0.0,0.0,0.0,0.0,0.0,0.0,0.0,0.0,0.0,0.0,0.0,0.0,0.0,0.0,0.0,0.0,0.0,0.0,0.0,0.0,0.0,0.0,0.0,0.0,0.0,0.0,0.0,0.0,0.0,0.0,0.0,0.0,0.0,0.0,0.0,0.0,0.0,0.0,0.0,0.0,0.0,0.0,0.0,0.0,0.0,0.0,0.0,0.0,0.0,0.0,0.0,0.0,0.0,0.0,0.0,0.0,0.0,0.0,0.0,0.0,0.0,0.0,0.0,0.0,0.0,0.0,0.0,0.0,0.0,0.0,0.0,0.0,0.0,0.0,0.0,0.0,0.0,0.0,0.0,0.0,0.0,0.0,0.0,0.0,0.0,0.0,0.0,0.0,0.0,0.0,0.0,0.0,0.0,0.0,0.0,0.0,0.0,0.0,0.0,0.0,0.0,0.0,0.0,0.0,0.0,0.0,0.0,0.0,0.0,0.0,0.0,0.0,0.0,0.0,0.0,0.0,0.0,0.0,0.0,0.0,0.0,0.0,0.0,0.0,0.0,0.0,0.0,0.0,0.0,0.0,0.0,0.0,0.0,0.0,0.0,0.0,0.0,0.0,0.0,0.0,0.0,0.0,0.0,0.0,0.0,0.0,0.0,0.0,0.0,0.0,0.0,0.0,0.0,0.0,0.0,0.0,0.0,0.0,0.0,0.0,0.0,0.0,0.0,0.0,0.0,0.0,0.0,0.0,0.0,0.0,0.0,0.0,0.0,0.0,0.0,0.0,0.0,0.0,0.0,0.0,0.0,0.0,0.0,0.0,0.0,0.0,0.0,0.0,0.0,0.0,0.0,0.0,0.0,0.0,0.0,0.0,0.0,0.0,0.0,0.0,0.0,0.0,0.0,0.0,0.0,0.0,0.0,0.0,0.0,0.0,0.0,0.0,0.0,0.0,0.0,0.0,0.0,0.0,0.0,0.0,0.0,0.0,0.0,0.0,0.0,0.0,0.0,0.0,0.0,0.0,0.0,0.0,0.0,0.0,0.0,0.0,0.0,0.0,0.0,0.0,0.0,0.0,0.0,0.0,0.0,0.0,0.0,0.0,0.0,0.0,0.0,0.0,0.0,0.0,0.0,0.0,0.0,0.0,0.0,0.0,0.0,0.0,0.0,0.0,0.0,0.0,0.0,0.0,0.0,0.0,0.0,0.0,0.0,0.0,0.0,0.0,0.0,0.0,0.0,0.0,0.0,0.0,0.0,0.0,0.0,0.0,0.0,0.0,0.0,0.0,0.0,0.0,0.0,0.0,0.0,0.0,0.0,0.0,0.0,0.0,0.0,0.0,0.0,0.0,0.0,0.0,0.0,0.0,0.0,0.0,0.0,0.0,0.0,0.0,0.0,0.0,0.0,0.0,0.0,0.0,0.0,0.0,0.0,0.0,0.0,0.0,0.0,0.0,0.0,0.0,0.0,0.0,0.0,0.0,0.0,0.0,0.0,0.0,0.0,0.0,0.0,0.0,0.0,0.0,0.0,0.0,0.0,0.0,0.0,0.0,0.0,0.0,0.0,0.0,0.0,0.0,0.0,0.0,0.0,0.0,0.0,0.0,0.0,0.0,0.0,0.0,0.0,0.0,0.0,0.0,0.0,0.0,0.0,0.0,0.0,0.0,0.0,0.0,0.0,0.0,0.0,0.0,0.0,0.0,0.0,0.0,0.0,0.0,0.0,0.0,0.0,0.0,0.0,0.0,0.0,0.0,0.0,0.0,0.0,0.0,0.0,0.0,0.0,0.0,0.0,0.0,0.0,0.0,0.0,0.0,0.0,0.0,0.0,0.0,0.0,0.0,0.0,0.0,0.0,0.0,0.0,0.0,0.0,0.0,0.0,0.0,0.0,0.0,0.0,0.0,0.0,0.0,0.0,0.0,0.0,0.0,0.0,0.0,0.0,0.0,0.0,0.0,0.0,0.0,0.0,0.0,0.0,0.0,0.0,0.0,0.0,0.0,0.0,0.0,0.0,0.0,0.0,0.0,0.0,0.0,0.0,0.0,0.0,0.0,0.0,0.0,0.0,0.0,-3.1082,0.0,0.0,0.0,0.0,0.0,0.0,0.0,0.0,0.0,0.0,0.0,0.0,0.0,0.0,0.0,0.0,0.0,0.0,0.0,0.0,0.0,0.0,0.0,0.0,0.0,0.0,0.0,0.0,0.0,0.0,0.0,0.0,0.0,0.0,0.0,0.0,0.0,0.0,0.0,0.0,0.0,0.0,0.0,0.0,0.0,0.0,0.0,0.0,0.0,0.0,0.0,0.0,0.0,0.0,0.0,0.0,0.0,0.0,0.0,0.0,0.0,0.0,0.0,0.0,0.0,0.0,0.0,0.0,0.0,0.0,0.0,0.0,0.0,0.0,0.0,0.0,0.0,0.0,0.0,0.0,0.0,0.0,0.0,0.0,0.0,0.0,0.0,0.0,0.0,0.0,0.0,0.0,0.0,0.0,0.0,0.0,0.0,0.0,0.0,0.0,0.0,0.0,0.0,0.0,0.0,0.0,0.0,0.0,0.0,0.0,-3.3631,-3.3615,-3.2579,-3.1826,-3.151,0.0,0.0,0.0,0.0,0.0,0.0,0.0,0.0,0.0,0.0,0.0,0.0,0.0,0.0,0.0,0.0,0.0,0.0,0.0,0.0,0.0,0.0,0.0,0.0,0.0,0.0,0.0,0.0,0.0,0.0,0.0,0.0,0.0,0.0,0.0,0.0,0.0,0.0,0.0,0.0,0.0,0.0,0.0,0.0,0.0,0.0,0.0,0.0,0.0,0.0,0.0,0.0,0.0,0.0,0.0,0.0,0.0,0.0,0.0,0.0,0.0,0.0,0.0,0.0,0.0,0.0,0.0,0.0,0.0,0.0,0.0,0.0,0.0,0.0,0.0,0.0,0.0,0.0,0.0,0.0,0.0,0.0,0.0,0.0,0.0,0.0,0.0,0.0,0.0,0.0,0.0,0.0,0.0,0.0,0.0,0.0,0.0,0.0,0.0,0.0,0.0,0.0,0.0,0.0,0.0,0.0,0.0,0.0,0.0,0.0,0.0,0.0,-3.2902,-3.2093,-3.1713,0.0,0.0,0.0,0.0,0.0,0.0,0.0,0.0,0.0,0.0,0.0,0.0,0.0,0.0,0.0,0.0,0.0,0.0,0.0,0.0,0.0,0.0,0.0,0.0,0.0,0.0,0.0,0.0,0.0,0.0,0.0,0.0,0.0,0.0,0.0,0.0,0.0,0.0,0.0,0.0,0.0,0.0,0.0,0.0,0.0,0.0,0.0,0.0,0.0,0.0,0.0,0.0,0.0,0.0,0.0,0.0,0.0,0.0,0.0,0.0,0.0,0.0,0.0,0.0,0.0,0.0,0.0,0.0,0.0,0.0,0.0,0.0,0.0,0.0,0.0,0.0,0.0,0.0,0.0,0.0,0.0,0.0,0.0,0.0,0.0,0.0,0.0,0.0,0.0,0.0,0.0,0.0,0.0,0.0,0.0,0.0,0.0,0.0,0.0,0.0,0.0,0.0,0.0,0.0,0.0,0.0,0.0,0.0,0.0,0.0,-3.4101,-3.4084,-3.3372,0.0,-3.1098,0.0,0.0,0.0,0.0,0.0,0.0,0.0,0.0,0.0,0.0,0.0,0.0,0.0,0.0,0.0,0.0,0.0,0.0,0.0,0.0,0.0,0.0,0.0,0.0,0.0,0.0,0.0,0.0,0.0,0.0,0.0,0.0,0.0,0.0,0.0,0.0,0.0,0.0,0.0,0.0,0.0,0.0,0.0,0.0,0.0,0.0,0.0,0.0,0.0,0.0,0.0,0.0,0.0,0.0,0.0,0.0,0.0,0.0,0.0,0.0,0.0,0.0,0.0,0.0,0.0,0.0,0.0,0.0,0.0,0.0,0.0,0.0,0.0,0.0,0.0,0.0,0.0,0.0,0.0,0.0,0.0,0.0,0.0,0.0,0.0,0.0,0.0,0.0,0.0,0.0,0.0,0.0,0.0,0.0,0.0,0.0,0.0,0.0,0.0,0.0,0.0,0.0,0.0,0.0,0.0,0.0,0.0,0.0,0.0,0.0,-3.4101,-3.4101,-3.3032,-3.194,0.0,0.0,0.0,0.0,0.0,0.0,0.0,0.0,0.0,0.0,0.0,0.0,0.0,0.0,0.0,0.0,0.0,0.0,0.0,0.0,0.0,0.0,0.0,0.0,0.0,0.0,0.0,0.0,0.0,0.0,0.0,0.0,0.0,0.0,0.0,0.0,0.0,0.0,0.0,0.0,0.0,0.0,0.0,0.0,0.0,0.0,0.0,0.0,0.0,0.0,0.0,0.0,0.0,0.0,0.0,0.0,0.0,0.0,0.0,0.0,0.0,0.0,0.0,0.0,0.0,0.0,0.0,0.0,0.0,0.0,0.0,0.0,0.0,0.0,0.0,0.0,0.0,0.0,0.0,0.0,0.0,0.0,0.0,0.0,0.0,0.0,0.0,0.0,0.0,0.0,0.0,0.0,0.0,0.0,0.0,0.0,0.0,0.0,0.0,0.0,0.0,0.0,0.0,0.0,0.0,0.0,0.0,0.0,0.0,0.0,-3.4,-3.4003,-3.3809,-3.3016,-3.2037,-3.0937,0.0,0.0,0.0,0.0,0.0,0.0,0.0,0.0,0.0,0.0,0.0,0.0,0.0,0.0,0.0,0.0,0.0,0.0,0.0,0.0,0.0,0.0,0.0,0.0,0.0,0.0,0.0,0.0,0.0,0.0,0.0,0.0,0.0,0.0,0.0,0.0,0.0,0.0,0.0,0.0,0.0,0.0,0.0,0.0,0.0,0.0,0.0,0.0,0.0,0.0,0.0,0.0,0.0,0.0,0.0,0.0,0.0,0.0,0.0,0.0,0.0,0.0,0.0,0.0,0.0,0.0,0.0,0.0,0.0,0.0,0.0,0.0,0.0,0.0,0.0,0.0,0.0,0.0,0.0,0.0,0.0,0.0,0.0,0.0,0.0,0.0,0.0,0.0,0.0,0.0,0.0,0.0,0.0,0.0,0.0,0.0,0.0,0.0,0.0,0.0,0.0,0.0,0.0,0.0,0.0,0.0,0.0,0.0,0.0,-3.3949,-3.3793,-3.3194,-3.368,-3.3032,0.0,0.0,0.0,0.0,0.0,0.0,0.0,0.0,0.0,0.0,0.0,0.0,0.0,0.0,0.0,0.0,0.0,0.0,0.0,0.0,0.0,0.0,0.0,0.0,0.0,0.0,0.0,0.0,0.0,0.0,0.0,0.0,0.0,0.0,0.0,0.0,0.0,0.0,0.0,0.0,0.0,0.0,0.0,0.0,0.0,0.0,0.0,0.0,0.0,0.0,0.0,0.0,0.0,0.0,0.0,0.0,0.0,0.0,0.0,0.0,0.0,0.0,0.0,0.0,0.0,0.0,0.0,0.0,0.0,0.0,0.0,0.0,0.0,0.0,0.0,0.0,0.0,0.0,0.0,0.0,0.0,0.0,0.0,0.0,0.0,0.0,0.0,0.0,0.0,0.0,0.0,0.0,0.0,0.0,0.0,0.0,0.0,0.0,0.0,0.0,0.0,0.0,0.0,0.0,0.0,0.0,0.0,0.0,0.0,-3.371,-3.3933,-3.3987,-3.3728,-3.3113,-3.24,0.0,0.0,0.0,0.0,0.0,0.0,0.0,0.0,0.0,0.0,0.0,0.0,0.0,0.0,0.0,0.0,0.0,0.0,0.0,0.0,0.0,0.0,0.0,0.0,0.0,0.0,0.0,0.0,0.0,0.0,0.0,0.0,0.0,0.0,0.0,0.0,0.0,0.0,0.0,0.0,0.0,0.0,0.0,0.0,0.0,0.0,0.0,0.0,0.0,0.0,0.0,0.0,0.0,0.0,0.0,0.0,0.0,0.0,0.0,0.0,0.0,0.0,0.0,0.0,0.0,0.0,0.0,0.0,0.0,0.0,0.0,0.0,0.0,0.0,0.0,0.0,0.0,0.0,0.0,0.0,0.0,0.0,0.0,0.0,0.0,0.0,0.0,0.0,0.0,0.0,0.0,0.0,0.0,0.0,0.0,0.0,0.0,0.0,0.0,0.0,0.0,0.0,0.0,0.0,0.0,0.0,0.0,0.0,0.0,-3.371,0.0,-3.3765,0.0,-3.2716,-3.2044,0.0,0.0,0.0,0.0,0.0,0.0,0.0,0.0,0.0,0.0,0.0,0.0,0.0,0.0,0.0,0.0,0.0,0.0,0.0,0.0,0.0,0.0,0.0,0.0,0.0,0.0,0.0,0.0,0.0,0.0,0.0,0.0,0.0,0.0,0.0,0.0,0.0,0.0,0.0,0.0,0.0,0.0,0.0,0.0,0.0,0.0,0.0,0.0,0.0,0.0,0.0,0.0,0.0,0.0,0.0,0.0,0.0,0.0,0.0,0.0,0.0,0.0,0.0,0.0,0.0,0.0,0.0,0.0,0.0,0.0,0.0,0.0,0.0,0.0,0.0,0.0,0.0,0.0,0.0,0.0,0.0,0.0,0.0,0.0,0.0,0.0,0.0,0.0,0.0,0.0,0.0,0.0,0.0,0.0,0.0,0.0,0.0,0.0,0.0,0.0,0.0,0.0,0.0,0.0,0.0,0.0,0.0,0.0,-3.3309,-3.3668,-3.3694,-3.3194,-3.1927,-3.2652,-3.21,0.0,0.0,0.0,0.0,0.0,0.0,0.0,0.0,0.0,0.0,0.0,0.0,0.0,0.0,0.0,0.0,0.0,0.0,0.0,0.0,0.0,0.0,0.0,0.0,0.0,0.0,0.0,0.0,0.0,0.0,0.0,0.0,0.0,0.0,0.0,0.0,0.0,0.0,0.0,0.0,0.0,0.0,0.0,0.0,0.0,0.0,0.0,0.0,0.0,0.0,0.0,0.0,0.0,0.0,0.0,0.0,0.0,0.0,0.0,0.0,0.0,0.0,0.0,0.0,0.0,0.0,0.0,0.0,0.0,0.0,0.0,0.0,0.0,0.0,0.0,0.0,0.0,0.0,0.0,0.0,0.0,0.0,0.0,0.0,0.0,0.0,0.0,0.0,0.0,0.0,0.0,0.0,0.0,0.0,0.0,0.0,0.0,0.0,0.0,0.0,0.0,0.0,0.0,0.0,0.0,0.0,0.0,0.0,0.0,-3.3006,-3.3556,-3.3921,-3.3963,-3.2926,-3.2271,0.0,0.0,0.0,0.0,0.0,0.0,0.0,0.0,0.0,0.0,0.0,0.0,0.0,0.0,0.0,0.0,0.0,0.0,0.0,0.0,0.0,0.0,0.0,0.0,0.0,0.0,0.0,0.0,0.0,0.0,0.0,0.0,0.0,0.0,0.0,0.0,0.0,0.0,0.0,0.0,0.0,0.0,0.0,0.0,0.0,0.0,0.0,0.0,0.0,0.0,0.0,0.0,0.0,0.0,0.0,0.0,0.0,0.0,0.0,0.0,0.0,0.0,0.0,0.0,0.0,0.0,0.0,0.0,0.0,0.0,0.0,0.0,0.0,0.0,0.0,0.0,0.0,0.0,0.0,0.0,0.0,0.0,0.0,0.0,0.0,0.0,0.0,0.0,0.0,0.0,0.0,0.0,0.0,0.0,0.0,0.0,0.0,0.0,0.0,0.0,0.0,0.0,0.0,0.0,0.0,0.0,0.0,0.0,0.0,-3.2998,-3.375,-3.4304,-3.4575,-3.3193,-3.2352,-3.2238,0.0,0.0,0.0,0.0,0.0,0.0,0.0,0.0,0.0,0.0,0.0,0.0,0.0,0.0,0.0,0.0,0.0,0.0,0.0,0.0,0.0,0.0,0.0,0.0,0.0,0.0,0.0,0.0,0.0,0.0,0.0,0.0,0.0,0.0,0.0,0.0,0.0,0.0,0.0,0.0,0.0,0.0,0.0,0.0,0.0,0.0,0.0,0.0,0.0,0.0,0.0,0.0,0.0,0.0,0.0,0.0,0.0,0.0,0.0,0.0,0.0,0.0,0.0,0.0,0.0,0.0,0.0,0.0,0.0,0.0,0.0,0.0,0.0,0.0,0.0,0.0,0.0,0.0,0.0,0.0,0.0,0.0,0.0,0.0,0.0,0.0,0.0,0.0,0.0,0.0,0.0,0.0,0.0,0.0,0.0,0.0,0.0,0.0,0.0,0.0,0.0,0.0,0.0,0.0,0.0,0.0,0.0,0.0,-3.3578,-3.44,-3.4649,-3.4179,-3.3524,-3.2498,0.0,0.0,0.0,0.0,0.0,0.0,0.0,0.0,0.0,0.0,0.0,0.0,0.0,0.0,0.0,0.0,0.0,0.0,0.0,0.0,0.0,0.0,0.0,0.0,0.0,0.0,0.0,0.0,0.0,0.0,0.0,0.0,0.0,0.0,0.0,0.0,0.0,0.0,0.0,0.0,0.0,0.0,0.0,0.0,0.0,0.0,0.0,0.0,0.0,0.0,0.0,0.0,0.0,0.0,0.0,0.0,0.0,0.0,0.0,0.0,0.0,0.0,0.0,0.0,0.0,0.0,0.0,0.0,0.0,0.0,0.0,0.0,0.0,0.0,0.0,0.0,0.0,0.0,0.0,0.0,0.0,0.0,0.0,0.0,0.0,0.0,0.0,0.0,0.0,0.0,0.0,0.0,0.0,0.0,0.0,0.0,0.0,0.0,0.0,0.0,0.0,0.0,0.0,0.0,0.0,0.0,0.0,0.0,0.0,-3.5629,-3.6938,-3.7374,-3.6826,-3.491,-3.3663,0.0,0.0,0.0,0.0,0.0,0.0,0.0,0.0,0.0,0.0,0.0,0.0,0.0,0.0,0.0,0.0,0.0,0.0,0.0,0.0,0.0,0.0,0.0,0.0,0.0,0.0,0.0,0.0,0.0,0.0,0.0,0.0,0.0,0.0,0.0,0.0,0.0,0.0,0.0,0.0,0.0,0.0,0.0,0.0,0.0,0.0,0.0,0.0,0.0,0.0,0.0,0.0,0.0,0.0,0.0,0.0,0.0,0.0,0.0,0.0,0.0,0.0,0.0,0.0,0.0,0.0,0.0,0.0,0.0,0.0,0.0,0.0,0.0,0.0,0.0,0.0,0.0,0.0,0.0,0.0,0.0,0.0,0.0,0.0,0.0,0.0,0.0,0.0,0.0,0.0,0.0,0.0,0.0,0.0,0.0,0.0,0.0,0.0,0.0,0.0,0.0,0.0,0.0,0.0,0.0,0.0,0.0,0.0,-3.5233,-3.6356,-3.7715,-3.8591,-3.8883,-3.6621,-3.4894,0.0,0.0,0.0,0.0,0.0,0.0,0.0,0.0,0.0,0.0,0.0,0.0,0.0,0.0,0.0,0.0,0.0,0.0,0.0,0.0,0.0,0.0,0.0,0.0,0.0,0.0,0.0,0.0,0.0,0.0,0.0,0.0,0.0,0.0,0.0,0.0,0.0,0.0,0.0,0.0,0.0,0.0,0.0,0.0,0.0,0.0,0.0,0.0,0.0,0.0,0.0,0.0,0.0,0.0,0.0,0.0,0.0,0.0,0.0,0.0,0.0,0.0,0.0,0.0,0.0,0.0,0.0,0.0,0.0,0.0,0.0,0.0,0.0,0.0,0.0,0.0,0.0,0.0,0.0,0.0,0.0,0.0,0.0,0.0,0.0,0.0,0.0,0.0,0.0,0.0,0.0,0.0,0.0,0.0,0.0,0.0,0.0,0.0,0.0,0.0,0.0,0.0,0.0,0.0,0.0,0.0,0.0,0.0,-3.5344,-3.6481,-3.7761,-3.9005,-4.0127,-3.8223,-3.6069,0.0,0.0,0.0,0.0,0.0,0.0,0.0,0.0,0.0,0.0,0.0,0.0,0.0,0.0,0.0,0.0,0.0,0.0,0.0,0.0,0.0,0.0,0.0,0.0,0.0,0.0,0.0,0.0,0.0,0.0,0.0,0.0,0.0,0.0,0.0,0.0,0.0,0.0,0.0,0.0,0.0,0.0,0.0,0.0,0.0,0.0,0.0,0.0,0.0,0.0,0.0,0.0,0.0,0.0,0.0,0.0,0.0,0.0,0.0,0.0,0.0,0.0,0.0,0.0,0.0,0.0,0.0,0.0,0.0,0.0,0.0,0.0,0.0,0.0,0.0,0.0,0.0,0.0,0.0,0.0,0.0,0.0,0.0,0.0,0.0,0.0,0.0,0.0,0.0,0.0,0.0,0.0,0.0,0.0,0.0,0.0,0.0,0.0,0.0,0.0,0.0,0.0,0.0,0.0,0.0,0.0,0.0,0.0,-3.6727,-3.7704,-3.9504,-4.0298,-3.9924,-3.8244,-3.6616,0.0,0.0,0.0,0.0,0.0,0.0,0.0,0.0,0.0,0.0,0.0,0.0,0.0,0.0,0.0,0.0,0.0,0.0,0.0,0.0,0.0,0.0,0.0,0.0,0.0,0.0,0.0,0.0,0.0,0.0,0.0,0.0,0.0,0.0,0.0,0.0,0.0,0.0,0.0,0.0,0.0,0.0,0.0,0.0,0.0,0.0,0.0,0.0,-2.9462,0.0,0.0,0.0,0.0,0.0,0.0,0.0,0.0,0.0,0.0,0.0,0.0,0.0,0.0,0.0,0.0,0.0,0.0,0.0,0.0,0.0,0.0,0.0,0.0,0.0,0.0,0.0,0.0,0.0,0.0,0.0,0.0,0.0,0.0,0.0,0.0,0.0,0.0,0.0,0.0,0.0,0.0,0.0,0.0,0.0,0.0,0.0,0.0,0.0,0.0,0.0,0.0,0.0,0.0,0.0,0.0,0.0,0.0,0.0,-3.7199,-3.8352,-3.9741,-4.0339,-4.009,-3.8695,-3.7215,0.0,0.0,0.0,0.0,0.0,0.0,0.0,0.0,0.0,0.0,0.0,0.0,0.0,0.0,0.0,0.0,0.0,0.0,0.0,0.0,0.0,0.0,0.0,0.0,0.0,0.0,0.0,0.0,0.0,0.0,0.0,0.0,0.0,0.0,0.0,0.0,0.0,0.0,0.0,0.0,0.0,0.0,0.0,0.0,0.0,0.0,0.0,0.0,0.0,0.0,0.0,0.0,0.0,0.0,0.0,0.0,0.0,0.0,0.0,0.0,0.0,0.0,0.0,0.0,0.0,0.0,0.0,0.0,0.0,0.0,0.0,0.0,0.0,0.0,0.0,0.0,0.0,0.0,0.0,0.0,0.0,0.0,0.0,0.0,0.0,0.0,0.0,0.0,0.0,0.0,0.0,0.0,0.0,0.0,0.0,0.0,0.0,0.0,0.0,0.0,0.0,0.0,0.0,0.0,0.0,0.0,0.0,-3.5893,-3.7327,-3.8797,-3.9486,-4.0036,-4.0474,-3.9323,-3.782,-3.6083,0.0,0.0,0.0,0.0,0.0,0.0,0.0,0.0,0.0,0.0,0.0,0.0,0.0,0.0,0.0,0.0,0.0,0.0,0.0,0.0,0.0,0.0,0.0,0.0,0.0,0.0,0.0,0.0,0.0,0.0,0.0,0.0,0.0,0.0,0.0,0.0,0.0,0.0,-2.9869,-3.0315,0.0,0.0,0.0,0.0,0.0,0.0,0.0,0.0,-2.9251,0.0,0.0,0.0,0.0,0.0,0.0,0.0,0.0,0.0,0.0,0.0,0.0,0.0,0.0,0.0,0.0,0.0,0.0,0.0,0.0,0.0,0.0,0.0,0.0,0.0,0.0,0.0,0.0,0.0,0.0,0.0,0.0,0.0,0.0,0.0,0.0,0.0,0.0,0.0,0.0,0.0,0.0,0.0,0.0,0.0,0.0,0.0,0.0,0.0,0.0,0.0,0.0,0.0,0.0,0.0,0.0,-3.6222,-3.6533,-3.7602,-3.9506,-4.008,-4.042,-4.0474,-3.9736,-3.8433,-3.6477,0.0,0.0,0.0,0.0,0.0,0.0,0.0,0.0,0.0,0.0,0.0,0.0,0.0,0.0,0.0,0.0,0.0,0.0,0.0,0.0,0.0,0.0,0.0,0.0,0.0,0.0,0.0,0.0,0.0,0.0,0.0,0.0,0.0,0.0,0.0,0.0,0.0,0.0,0.0,-3.126,-3.1331,0.0,0.0,0.0,0.0,0.0,0.0,0.0,0.0,-2.8998,0.0,0.0,0.0,0.0,0.0,0.0,0.0,0.0,0.0,0.0,0.0,0.0,0.0,0.0,0.0,0.0,0.0,0.0,0.0,0.0,0.0,0.0,0.0,0.0,0.0,0.0,0.0,0.0,0.0,0.0,0.0,0.0,0.0,0.0,0.0,0.0,0.0,0.0,0.0,0.0,0.0,0.0,0.0,0.0,0.0,0.0,0.0,0.0,0.0,0.0,0.0,0.0,0.0,0.0,0.0,-3.5765,-3.7011,-3.8202,-3.9211,-3.9788,-4.0071,-4.0041,-3.8732,-3.7523,0.0,0.0,0.0,0.0,0.0,0.0,0.0,0.0,0.0,0.0,0.0,0.0,0.0,0.0,0.0,0.0,0.0,0.0,0.0,0.0,0.0,0.0,0.0,0.0,0.0,0.0,0.0,0.0,0.0,0.0,0.0,0.0,0.0,0.0,0.0,0.0,0.0,0.0,0.0,0.0,-3.1752,-3.1963,-3.1977,0.0,0.0,0.0,0.0,0.0,0.0,-2.9336,-2.9153,0.0,0.0,0.0,0.0,0.0,0.0,0.0,0.0,0.0,0.0,0.0,0.0,0.0,0.0,0.0,0.0,0.0,0.0,0.0,0.0,0.0,0.0,0.0,0.0,0.0,0.0,0.0,0.0,0.0,0.0,0.0,0.0,0.0,0.0,0.0,0.0,0.0,0.0,0.0,0.0,0.0,0.0,0.0,0.0,0.0,0.0,0.0,0.0,0.0,0.0,0.0,0.0,0.0,0.0,0.0,-3.4938,-3.7088,-3.84,-3.8826,-3.9271,-3.9538,-3.9508,-3.7907,-3.6821,0.0,0.0,0.0,0.0,0.0,0.0,0.0,0.0,0.0,0.0,0.0,0.0,0.0,0.0,0.0,0.0,0.0,0.0,0.0,0.0,0.0,0.0,0.0,0.0,0.0,0.0,0.0,0.0,0.0,0.0,0.0,0.0,0.0,0.0,0.0,0.0,0.0,0.0,0.0,0.0,0.0,-3.2834,-3.2455,-3.2412,0.0,0.0,0.0,0.0,-2.9588,-2.9954,0.0,0.0,0.0,0.0,0.0,0.0,0.0,0.0,0.0,0.0,0.0,0.0,0.0,0.0,0.0,0.0,0.0,0.0,0.0,0.0,0.0,0.0,0.0,0.0,0.0,0.0,0.0,0.0,0.0,0.0,0.0,0.0,0.0,0.0,0.0,0.0,0.0,0.0,0.0,0.0,0.0,0.0,0.0,0.0,0.0,0.0,0.0,0.0,0.0,0.0,0.0,0.0,0.0,0.0,0.0,0.0,-3.489,-3.6217,-3.7529,-3.876,-3.8855,-3.8892,-3.8892,-3.867,-3.7639,0.0,0.0,0.0,0.0,0.0,0.0,0.0,0.0,0.0,0.0,0.0,0.0,0.0,0.0,0.0,0.0,0.0,0.0,0.0,0.0,0.0,0.0,0.0,0.0,0.0,0.0,0.0,0.0,0.0,0.0,0.0,0.0,0.0,0.0,0.0,0.0,0.0,0.0,0.0,0.0,0.0,-3.4289,-3.2623,-3.2412,-3.2328,0.0,0.0,-3.2145,-3.1991,-3.2483,0.0,0.0,0.0,0.0,0.0,0.0,0.0,0.0,0.0,0.0,0.0,0.0,0.0,0.0,0.0,0.0,0.0,0.0,0.0,0.0,0.0,0.0,0.0,0.0,0.0,0.0,0.0,0.0,0.0,0.0,0.0,0.0,0.0,0.0,0.0,0.0,0.0,0.0,0.0,0.0,0.0,0.0,0.0,0.0,0.0,0.0,0.0,0.0,0.0,0.0,0.0,0.0,0.0,0.0,0.0,-3.3686,-3.4054,-3.6223,-3.7496,-3.7782,-3.8113,-3.83,-3.8285,-3.7201,-3.599,0.0,0.0,0.0,0.0,0.0,0.0,0.0,0.0,0.0,0.0,0.0,0.0,0.0,0.0,0.0,0.0,0.0,0.0,0.0,0.0,0.0,0.0,0.0,0.0,0.0,0.0,0.0,0.0,0.0,0.0,0.0,0.0,0.0,0.0,0.0,0.0,0.0,0.0,0.0,0.0,0.0,0.0,-3.3473,-3.3417,0.0,0.0,0.0,-3.3164,-3.2511,0.0,0.0,0.0,0.0,0.0,0.0,0.0,0.0,0.0,0.0,0.0,0.0,0.0,0.0,0.0,0.0,0.0,0.0,0.0,0.0,0.0,0.0,0.0,0.0,0.0,0.0,0.0,0.0,0.0,0.0,0.0,0.0,0.0,0.0,0.0,0.0,0.0,0.0,0.0,0.0,0.0,0.0,0.0,0.0,0.0,0.0,0.0,0.0,0.0,0.0,0.0,0.0,0.0,0.0,0.0,0.0,0.0,-3.3057,-3.5864,-3.712,-3.6705,-3.7159,-3.7467,-3.7491,-3.598,0.0,0.0,0.0,0.0,0.0,0.0,0.0,0.0,0.0,0.0,0.0,0.0,0.0,0.0,0.0,0.0,0.0,0.0,0.0,0.0,0.0,0.0,0.0,0.0,0.0,0.0,0.0,-2.4334,0.0,0.0,0.0,0.0,0.0,0.0,0.0,0.0,0.0,0.0,0.0,0.0,0.0,0.0,-3.3692,-3.4093,-3.426,-3.4302,0.0,0.0,-3.4234,-3.336,-3.4315,-3.4343,0.0,0.0,0.0,0.0,0.0,0.0,0.0,0.0,0.0,0.0,0.0,0.0,0.0,0.0,0.0,0.0,0.0,0.0,0.0,0.0,0.0,0.0,0.0,0.0,0.0,0.0,0.0,0.0,0.0,0.0,0.0,0.0,0.0,0.0,0.0,0.0,0.0,0.0,0.0,0.0,0.0,0.0,0.0,0.0,0.0,0.0,0.0,0.0,0.0,0.0,0.0,0.0,0.0,0.0,0.0,-3.2246,-3.4605,-3.5871,-3.579,-3.6031,-3.6244,-3.6496,-3.6,-3.4916,0.0,0.0,0.0,0.0,0.0,0.0,0.0,0.0,0.0,0.0,0.0,0.0,0.0,0.0,0.0,0.0,0.0,0.0,0.0,0.0,0.0,0.0,0.0,0.0,0.0,0.0,0.0,0.0,0.0,0.0,0.0,0.0,0.0,0.0,0.0,0.0,0.0,0.0,0.0,0.0,0.0,-3.4578,-3.3998,-3.4392,-3.5204,0.0,-3.5967,-3.5415,-3.5447,-3.6682,-3.6445,-3.2918,0.0,0.0,0.0,0.0,0.0,0.0,0.0,0.0,0.0,0.0,0.0,0.0,0.0,0.0,0.0,0.0,0.0,0.0,0.0,0.0,0.0,0.0,0.0,0.0,0.0,0.0,0.0,0.0,0.0,0.0,0.0,0.0,0.0,0.0,0.0,0.0,0.0,0.0,0.0,0.0,0.0,0.0,0.0,0.0,0.0,0.0,0.0,0.0,0.0,0.0,0.0,0.0,0.0,-3.2092,-3.2119,-3.4463,-3.571,-3.571,-3.579,-3.5831,-3.5965,-3.547,-3.4169,0.0,0.0,0.0,0.0,0.0,0.0,0.0,0.0,0.0,0.0,0.0,0.0,0.0,0.0,0.0,0.0,0.0,0.0,0.0,0.0,0.0,0.0,0.0,0.0,0.0,0.0,0.0,0.0,-2.5897,-2.6276,-2.653,0.0,0.0,0.0,0.0,0.0,0.0,0.0,0.0,0.0,0.0,-3.3873,-3.4803,-3.487,0.0,0.0,-3.583,-3.5609,-3.5622,-3.5941,-3.5502,-3.3479,-3.2626,0.0,0.0,0.0,0.0,0.0,0.0,0.0,0.0,0.0,0.0,0.0,0.0,0.0,0.0,0.0,0.0,0.0,0.0,0.0,0.0,0.0,0.0,0.0,0.0,0.0,0.0,0.0,0.0,0.0,0.0,0.0,0.0,0.0,0.0,0.0,0.0,0.0,0.0,0.0,0.0,0.0,0.0,0.0,0.0,0.0,0.0,0.0,0.0,0.0,0.0,0.0,0.0,-3.1857,-3.2008,-3.4191,-3.5304,-3.5318,-3.5399,-3.548,-3.5507,-3.4805,-3.3493,0.0,0.0,0.0,0.0,0.0,0.0,0.0,0.0,0.0,0.0,0.0,0.0,0.0,0.0,0.0,0.0,0.0,0.0,0.0,0.0,0.0,0.0,0.0,0.0,0.0,0.0,0.0,0.0,-2.6615,-2.7046,-2.7249,0.0,0.0,0.0,0.0,0.0,0.0,0.0,0.0,0.0,0.0,-3.3753,-3.5304,-3.5183,-3.5183,-3.5761,-3.5683,-3.5535,-3.5521,-3.5533,-3.5063,-3.3669,0.0,0.0,0.0,0.0,0.0,0.0,0.0,0.0,0.0,0.0,0.0,0.0,0.0,0.0,0.0,0.0,0.0,0.0,0.0,0.0,0.0,0.0,0.0,0.0,0.0,0.0,0.0,-3.0074,0.0,0.0,-3.0009,0.0,0.0,0.0,0.0,0.0,0.0,0.0,0.0,0.0,0.0,0.0,0.0,0.0,0.0,0.0,0.0,0.0,0.0,0.0,0.0,0.0,0.0,-3.1299,-3.1823,-3.3562,-3.4439,-3.4439,-3.4673,-3.4921,-3.51,-3.4125,-3.3138,-3.2055,0.0,0.0,0.0,0.0,0.0,0.0,0.0,0.0,0.0,0.0,0.0,0.0,0.0,0.0,0.0,0.0,0.0,0.0,0.0,0.0,0.0,0.0,0.0,0.0,0.0,0.0,-2.6713,-2.6177,-2.6125,0.0,0.0,0.0,0.0,0.0,0.0,0.0,0.0,0.0,0.0,-3.2974,-3.4596,-3.5211,-3.5303,-3.5532,-3.6326,-3.5708,-3.5168,-3.5385,-3.6007,-3.575,0.0,0.0,0.0,0.0,0.0,0.0,0.0,0.0,0.0,0.0,0.0,0.0,0.0,0.0,0.0,0.0,0.0,0.0,0.0,0.0,0.0,0.0,0.0,0.0,0.0,0.0,0.0,-3.2568,-3.1849,0.0,0.0,0.0,0.0,0.0,0.0,0.0,0.0,0.0,0.0,0.0,-3.2751,-3.3287,0.0,0.0,0.0,0.0,0.0,0.0,0.0,0.0,0.0,0.0,0.0,0.0,-3.1274,-3.185,-3.3535,-3.4397,-3.4397,-3.4494,-3.4577,-3.4605,-3.4319,-3.3252,-3.14,0.0,0.0,0.0,0.0,0.0,0.0,0.0,0.0,0.0,0.0,0.0,0.0,0.0,0.0,0.0,0.0,0.0,0.0,0.0,0.0,0.0,0.0,0.0,0.0,0.0,-2.7876,0.0,0.0,0.0,0.0,0.0,0.0,0.0,0.0,0.0,0.0,0.0,-3.0986,-3.2515,-3.3378,-3.4201,-3.5155,-3.5299,-3.5538,0.0,0.0,0.0,0.0,0.0,0.0,0.0,0.0,0.0,0.0,0.0,0.0,0.0,0.0,-3.0334,-2.8756,-2.8135,-2.7755,-2.7274,0.0,0.0,0.0,0.0,0.0,0.0,0.0,0.0,0.0,0.0,0.0,0.0,0.0,0.0,-3.3647,-3.3426,-3.2747,0.0,0.0,0.0,0.0,0.0,0.0,0.0,0.0,-3.4178,-3.4741,-3.4389,-3.5008,-3.4711,0.0,-3.3221,-3.1954,0.0,0.0,0.0,0.0,0.0,0.0,0.0,0.0,-3.1561,-3.2176,-3.3626,-3.4397,-3.4397,-3.4397,-3.4397,-3.4384,-3.4018,-3.2816,-3.0751,-2.9052,-2.7523,0.0,0.0,0.0,0.0,0.0,0.0,0.0,0.0,0.0,0.0,0.0,0.0,0.0,0.0,0.0,0.0,0.0,0.0,0.0,0.0,0.0,0.0,0.0,-2.832,0.0,0.0,0.0,0.0,0.0,0.0,0.0,0.0,0.0,-3.0038,-3.0986,-3.215,-3.3679,-3.4058,-3.4528,-3.5456,0.0,0.0,0.0,0.0,0.0,0.0,0.0,-3.4078,-3.4084,-3.3945,-3.3775,-3.3563,-3.3047,-3.2432,-3.1845,0.0,0.0,-2.9466,-2.8736,-2.8251,-2.7977,-2.7893,-2.7679,-2.7162,-2.7621,-2.7854,0.0,0.0,0.0,0.0,0.0,0.0,0.0,0.0,-3.4575,-3.4529,0.0,-3.3039,0.0,0.0,0.0,0.0,-3.1772,-3.3827,0.0,0.0,-3.6277,-3.6884,-3.59,-3.659,-3.6392,-3.5391,-3.5282,-3.4382,-3.2685,-3.1053,0.0,0.0,0.0,0.0,0.0,0.0,-3.2098,-3.2725,-3.3822,-3.4397,-3.4397,-3.4397,-3.4397,-3.4371,-3.3326,-3.198,-3.0283,-2.9666,-2.8577,-2.6889,-2.6758,0.0,0.0,0.0,0.0,0.0,0.0,0.0,0.0,0.0,0.0,0.0,0.0,0.0,0.0,0.0,0.0,0.0,0.0,0.0,0.0,-2.842,0.0,0.0,0.0,0.0,0.0,0.0,0.0,0.0,0.0,0.0,-3.0067,-3.1539,-3.3075,-3.4197,0.0,0.0,0.0,0.0,-3.5852,-3.5413,-3.5752,-3.5909,-3.5413,-3.57,-3.553,-3.4274,0.0,0.0,-3.3238,-3.23,-3.1701,-3.1123,-3.1481,-3.1691,-3.1305,-2.9951,-2.9074,-2.9445,-2.8858,-2.8333,-2.8677,-2.8893,-2.8766,-3.8385,0.0,0.0,0.0,0.0,-3.6871,-3.6988,-3.7119,-3.6906,-3.6424,-3.5808,-3.5244,0.0,0.0,0.0,0.0,0.0,0.0,-3.4743,-3.495,-3.6122,-3.6476,-3.6193,-3.6792,-3.6663,-3.6025,-3.6025,-3.5355,-3.4036,-3.3122,-3.1539,-2.9362,0.0,0.0,0.0,0.0,-3.2293,-3.3313,-3.4031,-3.4397,-3.4397,-3.4397,-3.4397,-3.4397,-3.3718,-3.2908,-3.1993,-3.1013,-2.9925,-2.8616,-2.7732,0.0,0.0,0.0,0.0,0.0,0.0,0.0,0.0,0.0,0.0,0.0,0.0,0.0,0.0,0.0,0.0,0.0,0.0,0.0,-2.8355,-2.842,-2.8417,0.0,0.0,0.0,0.0,0.0,0.0,0.0,0.0,0.0,-3.0477,-3.096,-3.1864,0.0,0.0,-3.3921,-3.4596,-3.4931,-3.5261,-3.5666,-3.5871,0.0,-3.5756,-3.5123,-3.4502,-3.397,-3.4189,-3.4075,-3.2981,-3.2629,-3.2312,-3.1654,-3.1651,-3.1757,-3.1633,-3.1286,-3.0985,-3.1054,-3.0916,-3.0721,-3.0893,-3.0928,-3.0778,-4.072,-3.9459,-3.8627,-3.826,-3.8324,-3.8337,-3.855,-3.8866,-3.8334,-3.798,-3.7677,-3.6955,-3.6057,-3.5194,-3.4837,0.0,0.0,0.0,-3.5811,-3.6121,-3.682,-3.7007,-3.6841,-3.7241,-3.7147,-3.6609,-3.6378,-3.5974,-3.525,-3.4443,-3.3014,-3.1111,0.0,0.0,-3.0593,-3.1759,-3.2709,-3.3439,-3.4082,-3.4397,-3.4397,-3.4397,-3.4397,-3.4384,-3.3875,-3.3417,-3.3051,-3.2163,-3.1248,-3.0333,-2.9405,-2.8425,0.0,0.0,0.0,0.0,0.0,0.0,0.0,0.0,0.0,0.0,0.0,-2.8028,-2.7092,0.0,0.0,0.0,-2.7707,-2.8244,-2.8894,-2.9048,0.0,0.0,0.0,0.0,0.0,0.0,0.0,-3.0695,-3.0322,-3.0266,-3.0927,-3.0508,-3.0923,-3.2947,-3.2907,-3.2919,-3.3603,0.0,-3.4265,-3.4723,-3.4989,-3.5125,-3.5112,-3.4582,-3.4044,-3.3612,-3.3196,-3.2861,-3.2559,-3.2559,-3.2522,-3.2302,-3.2314,-3.2423,-3.2411,-3.2411,-3.2262,-3.1894,-3.1766,-3.1754,-3.1813,-3.1813,-3.1674,-4.2677,-4.1972,-3.9917,-3.9317,-3.9763,-3.9776,-4.0044,-4.0364,-3.9169,-3.9183,-3.993,-3.8176,-3.7446,-3.7501,-3.6722,0.0,-3.6117,-3.7105,-3.7417,-3.7322,-3.8034,-3.8106,-3.766,-3.7776,-3.759,-3.7113,-3.6563,-3.6268,-3.6166,-3.5123,-3.4288,-3.3751,-3.2718,-3.1928,-3.1431,-3.2568,-3.3219,-3.323,-3.397,-3.4343,-3.4356,-3.4356,-3.4356,-3.4356,-3.3873,-3.3599,-3.3574,-3.3011,-3.2463,-3.185,-3.1327,-3.0257,-2.8665,0.0,0.0,0.0,0.0,0.0,0.0,0.0,0.0,0.0,0.0,0.0,0.0,0.0,0.0,0.0,-2.8502,0.0,-2.9859,-3.0124,0.0,0.0,0.0,-3.056,-3.1107,-3.1129,-3.14,-3.2143,0.0,0.0,-3.1224,-3.0188,-3.0237,-3.2575,-3.2389,-3.2285,-3.2931,-3.2965,-3.3011,-3.3131,-3.352,-3.3801,-3.3864,-3.3901,-3.367,-3.3097,-3.2258,-3.1819,-3.196,-3.2162,-3.246,-3.265,-3.2969,-3.3097,-3.3158,-3.3001,-3.2895,-3.1942,-3.1819,-3.1892,-3.1949,-3.202,-3.1949,-4.2932,-4.2768,-4.2183,-4.1648,-4.1214,-4.1201,-4.1185,-4.1062,-4.0769,-4.0341,-3.9775,-3.9321,-3.868,-3.785,-3.7684,-3.7522,-3.7535,-3.7737,-3.7863,-3.7814,-3.8001,-3.8038,-3.7887,-3.752,-3.7303,-3.7152,-3.6609,-3.613,-3.568,-3.5415,-3.5012,-3.4483,-3.4193,-3.3533,-3.2544,-3.2831,-3.3165,-3.355,-3.3775,-3.3882,-3.3839,-3.3894,-3.3894,-3.3882,-3.3724,-3.355,-3.3301,-3.3036,-3.266,-3.2252,-3.1538,-3.074,-2.9879,-2.8621,0.0,0.0,0.0,0.0,0.0,0.0,0.0,0.0,0.0,-2.8486,-2.6797,0.0,-2.8839,0.0,-2.8754,-2.974,-3.0778,-3.0509,0.0,0.0,-3.1134,-3.0931,-3.0772,-3.0611,-3.0395,-3.002,-2.9731,-2.9618,-2.9801,-2.9848,-3.0026,-3.0666,-3.0968,-3.1389,-3.2037,-3.2045,-3.218,-3.2719,-3.2898,-3.3089,-3.3028,-3.26,-3.2218,-3.2015,-3.1772,-3.1629,-3.1669,-3.1732,-3.1834,-3.1885,-3.1947,-3.1986,-3.2037,-3.1986,-3.1971,-3.1739,-3.2295,-3.2914,-3.2925,-3.2914,-3.2799,-4.2986,-4.2986,-4.2986,-4.2733,-4.2276,-4.2276,-4.2167,-4.2032,-4.1501,-4.0937,-4.0388,-3.9923,-3.9346,-3.8781,-3.8755,-3.8755,-3.8755,-3.8743,-3.8755,-3.8755,-3.8755,-3.863,-3.8366,-3.7814,-3.7425,-3.7161,-3.6669,-3.6241,-3.5918,-3.5918,-3.5755,-3.5454,-3.5203,-3.4728,-3.4052,-3.3916,-3.4028,-3.4321,-3.4195,-3.3939,-3.3725,-3.3713,-3.3597,-3.3341,-3.3354,-3.3126,-3.271,-3.2603,-3.2461,-3.226,-3.1613,-3.0932,-3.0381,-2.907,-2.7888,0.0,0.0,0.0,0.0,0.0,0.0,0.0,0.0,0.0,0.0,0.0,-2.9716,-2.9321,-2.9707,-3.038,-3.1336,-3.1069,-3.1051,-3.1561,-3.1473,-3.1228,-3.1033,-3.0882,-3.0797,-3.0641,-3.0251,-3.0066,-3.0268,-3.013,-2.9994,-2.9994,-3.0235,-3.0596,-3.0925,-3.0955,-3.1054,-3.1505,-3.1556,-3.1607,-3.1699,-3.1259,-3.0909,-3.1054,-3.0961,-3.0909,-3.1064,-3.1157,-3.1259,-3.1424,-3.1527,-3.1567,-3.1567,-3.1567,-3.1567,-3.168,-3.2088,-3.2505,-3.2555,-3.2555,-3.2454,-4.2986,-4.2986,-4.2986,-4.2986,-4.2986,-4.2986,-4.2986,-4.2911,-4.1894,-4.1326,-4.1125,-4.0136,-3.9697,-3.9697,-3.9697,-3.9697,-3.9697,-3.9697,-3.9697,-3.9697,-3.9697,-3.9446,-3.9007,-3.8391,-3.7826,-3.7274,-3.6769,-3.6468,-3.6417,-3.6417,-3.6417,-3.6392,-3.5834,-3.5596,-3.5583,-3.536,-3.5193,-3.5053,-3.4716,-3.4267,-3.3713,-3.3679,-3.3372,-3.2823,-3.2784,-3.257,-3.2072,-3.2034,-3.2034,-3.2021,-3.152,-3.1046,-3.065,-2.9538,-2.8671,0.0,-2.756,0.0,0.0,0.0,0.0,0.0,0.0,0.0,0.0,-3.0101,-3.07,-3.1363,-3.1135,-3.1266,-3.2035,-3.1951,-3.1841,-3.172,-3.1704,-3.1638,-3.1456,-3.1419,-3.1576,-3.2048,-3.1263,-3.0875,-3.1203,-3.0536,-2.9994,-2.9994,-3.0047,-3.0088,-3.0036,-3.0088,-3.0099,-2.9994,-2.9994,-3.0297,-3.0391,-3.0245,-3.0141,-3.0297,-3.0256,-3.0099,-3.0349,-3.0536,-3.0795,-3.1013,-3.1167,-3.1322,-3.1373,-3.1373,-3.1373,-3.1322,-3.1373,-3.1476,-3.1629,-3.1669,-3.1669,-4.2986,-4.2986,-4.2986,-4.2986,-4.2986,-4.2986,-4.2986,-4.2936,-4.2338,-4.1505,-4.0639,-3.9973,-3.9697,-3.9697,-3.9697,-3.9697,-3.9697,-3.9697,-3.9697,-3.9697,-3.9697,-3.9647,-3.9509,-3.8956,-3.8404,-3.7839,-3.7287,-3.6797,-3.6417,-3.6417,-3.6417,-3.6417,-3.6257,-3.6254,-3.6254,0.0,0.0,0.0,-3.4274,-3.3979,-3.3852,-3.3424,-3.2932,-3.2365,-3.2327,0.0,-3.1884,-3.1643,-3.1643,-3.1845,-3.1542,0.0,0.0,0.0,0.0,0.0,0.0,0.0,0.0,0.0,0.0,0.0,-3.0284,-3.0148,-2.9948,-3.0666,-3.1622,-3.263,-3.2659,-3.3018,-3.4042,-3.4095,-3.3744,-3.2899,-3.2778,-3.2335,-3.114,-3.0921,-3.0819,-3.0512,-3.0255,-3.0193,-3.0318,-3.0088,-2.9994,-2.9994,-2.9994,-2.9994,-2.9994,-2.9994,-2.9994,-2.9994,-2.9994,-2.9994,-3.0036,-3.0047,-2.9994,-3.0047,-3.0047,-3.0047,-3.0099,-3.0088,-3.0141,-3.0256,-3.0256,-3.0349,-3.0297,-3.0308,-3.0349,-3.0297,-3.0297,-3.0557,-3.1424,-3.1567,-3.1629,-4.2986,-4.2961,-4.274,-4.2778,0.0,-4.2685,-4.2723,-4.2979,-4.2108,-4.1141,-4.0099,-3.9823,-3.9697,-3.9697,-3.9697,-3.9697,-3.9697,-3.9697,-3.9697,-3.9697,-3.9697,-3.9697,-3.9685,-3.9183,-3.8567,-3.799,-3.745,-3.6945,-3.643,-3.6417,-3.6417,-3.6417,-3.6417,-3.6417,-3.6417,-3.6417,-3.5956,-3.5094,-3.4851,-3.4449,-3.3922,-3.3621,-3.3068,-3.2252,-3.2202,0.0,0.0,0.0,0.0,0.0,0.0,0.0,0.0,0.0,0.0,-3.0919,-2.9649,-2.9012,-2.9392,-2.9238,-2.9474,-3.0265,-3.0774,-3.0953,-3.0736,-3.116,-3.1704,-3.2244,-3.2304,-3.252,-3.3035,-3.2901,-3.2568,-3.2041,-3.1713,-3.1252,-3.0534,-3.0383,-3.0283,-3.0089,-2.9994,-2.9994,-2.9994,-2.9994,-2.9994,-2.9994,-2.9994,-3.0015,-2.9994,-2.9994,-2.9994,-2.9994,-2.9994,-2.9994,-2.9994,-2.9994,-2.9994,-2.9994,-2.9994,-2.9994,-2.9994,-2.9994,-2.9994,-2.9994,-2.9994,-2.9994,-2.9994,-2.9994,-2.9994,-2.9994,-2.9994,-3.0141,-3.0703,-3.0817,-3.0868,-4.2986,-4.2936,-4.2539,-4.2552,-4.2798,-4.2502,-4.2502,-4.2622,-4.1731,0.0,0.0,-3.9697,-3.9697,-3.9697,-3.9697,-3.9697,-3.9697,-3.9697,-3.9697,-3.9697,-3.9697,-3.9697,-3.9672,-3.9233,-3.8718,-3.814,-3.7588,-3.7048,-3.6568,-3.6455,-3.6417,-3.6417,-3.6417,-3.6417,-3.6417,-3.6417,-3.6144,-3.5658,-3.5545,-3.5056,-3.4223,-3.4098,-3.3508,-3.2403,-3.2365,-3.1863,-3.0756,-3.0758,-3.0545,-3.0105,-3.0068,-3.0331,-3.0819,-2.9955,-2.9997,-3.1241,-2.9851,-2.9262,-3.0074,-2.9869,-2.9873,-3.0262,-3.0942,-3.1421,-3.148,-3.1483,-3.1554,-3.1657,-3.1645,-3.1691,-3.1782,-3.1475,-3.1146,-3.0946,-3.0561,-3.0287,-3.0036,-2.9994,-3.0036,-2.9994,-3.0077,-3.0087,-3.0015,-3.017,-3.0191,-3.0149,-3.0253,-3.0191,-3.0118,-3.0056,-3.0036,-3.0139,-3.0087,-2.9994,-2.9994,-2.9994,-2.9994,-2.9994,-2.9994,-2.9994,-2.9994,-2.9994,-2.9994,-2.9994,-2.9994,-2.9994,-2.9994,-2.9994,-2.9994,-2.9994,-2.9994,-2.9994,-2.9994,-2.9994,-3.0099,-4.2986,-4.2974,-4.2886,-4.269,-4.2351,-4.274,-4.2371,-4.1514,-4.1351,-4.0661,-3.9697,-3.9697,-3.9697,-3.9697,-3.9697,-3.9697,-3.9697,-3.9697,-3.9697,-3.9697,-3.9697,-3.9697,-3.9697,-3.9622,-3.9283,-3.873,-3.8165,-3.76,-3.7121,-3.6644,-3.6417,-3.6417,-3.6417,-3.6417,-3.6417,-3.6417,-3.6367,-3.6279,-3.578,-3.542,-3.527,-3.4806,-3.4085,-3.3031,-3.2968,-3.2441,-3.1336,-3.1286,-3.1235,-3.1173,-3.1173,-3.1411,-3.1909,-3.1052,-3.0843,-3.146,-3.0853,-3.0537,-3.0675,-3.1007,-3.1234,-3.1278,-3.1027,-3.1056,-3.1477,-3.1487,-3.1702,-3.2185,-3.2194,-3.2474,-3.2876,-3.278,-3.2303,-3.1567,-3.1378,-3.1032,-3.0172,-3.0025,-3.0046,-3.0077,-3.0356,-3.0429,-3.0201,-3.0677,-3.0957,-3.0739,-3.0833,-3.1019,-3.0667,-3.0243,-3.0191,-3.0429,-3.0243,-3.0036,-2.9994,-2.9994,-2.9994,-2.9994,-2.9994,-2.9994,-2.9994,-2.9994,-2.9994,-2.9994,-2.9994,-2.9994,-2.9994,-2.9994,-2.9994,-2.9994,-2.9994,-2.9994,-2.9994,-2.9994,-3.0047,-4.2986,-4.2936,-4.2715,-4.2615,-4.2652,-4.2615,-4.2082,-4.1275,-4.0974,-4.045,-3.9735,-3.9697,-3.9697,-3.9697,-3.9697,-3.9697,-3.9697,-3.9697,-3.9697,-3.9697,-3.9697,-3.9697,-3.9697,-3.9697,-3.9408,-3.8906,-3.8291,-3.7726,-3.7186,-3.6681,-3.6417,-3.6417,-3.6417,-3.6417,-3.6417,-3.6417,-3.6417,-3.6405,-3.6107,-3.5843,-3.5508,-3.5257,-3.4788,-3.3997,-3.396,-3.332,-3.1951,-3.2443,-3.2349,-3.1486,-3.1473,-3.1675,-3.2189,-3.1318,-3.1003,-3.1459,-3.0851,-3.0477,-3.044,-3.0362,-3.0301,-3.0311,-3.0341,-3.0432,-3.0651,-3.0691,-3.0838,-3.1095,-3.1128,-3.1204,-3.1432,-3.1443,-3.1249,-3.0785,-3.0744,-3.0642,-3.0421,-3.0367,-3.047,-3.0708,-3.0926,-3.0977,-3.077,-3.1177,-3.1319,-3.1102,-3.1267,-3.136,-3.1371,-3.0812,-3.0346,-3.0305,-3.0129,-3.0025,-2.9994,-2.9994,-2.9994,-2.9994,-2.9994,-2.9994,-2.9994,-2.9994,-2.9994,-2.9994,-2.9994,-2.9994,-2.9994,-2.9994,-2.9994,-2.9994,-2.9994,-2.9994,-2.9994,-2.9994,-2.9994,-4.2986,-4.2936,-4.2577,-4.264,-4.2911,-4.2258,-4.1718,-4.1238,-4.0711,-4.0212,-3.9735,-3.9697,-3.9697,-3.9697,-3.9697,-3.9697,-3.9697,-3.9697,-3.9697,-3.9697,-3.9697,-3.9697,-3.9697,-3.9697,-3.9459,-3.907,-3.8479,-3.7914,-3.7362,-3.6857,-3.6376,-3.6073,-3.6013,-3.6061,-3.6013,-3.6061,-3.6156,-3.6358,-3.6417,-3.6169,-3.5696,-3.5683,-3.5466,-3.4919,-3.4628,-3.39,-3.2635,-3.3052,-3.2779,-3.1606,-3.148,-3.167,-3.2048,-3.1182,-3.0789,-3.1067,-3.0438,-3.0018,-3.007,-2.9697,-2.9466,-2.9466,-2.9787,-2.9994,-2.9994,-2.9994,-2.9994,-2.9994,-3.0078,-3.0036,-3.012,-3.0161,-3.016,-3.016,-3.0263,-3.0534,-3.0781,-3.075,-3.0874,-3.1278,-3.1381,-3.1371,-3.1402,-3.1557,-3.1702,-3.1712,-3.1681,-3.1805,-3.1853,-3.1329,-3.0698,-3.0284,-3.0067,-2.9994,-2.9994,-2.9994,-2.9994,-2.9994,-2.9994,-2.9994,-2.9994,-2.9994,-2.9994,-2.9994,-2.9994,-2.9994,-2.9994,-2.9994,-2.9994,-2.9994,-2.9994,-2.9994,-2.9994,-2.9994,-2.9994,-4.2986,-4.2974,-4.2911,-4.2979,-4.2861,-4.1882,-4.1376,-4.125,-4.0699,-4.0199,-3.9747,-3.9697,-3.9697,-3.9697,-3.9697,-3.9697,-3.9697,-3.9697,-3.9697,-3.9697,-3.9697,-3.9697,-3.9697,-3.9697,-3.9672,-3.9534,-3.9032,-3.8454,-3.7927,-3.7349,-3.6341,-3.5078,-3.4933,-3.4969,-3.4969,-3.4981,-3.5427,-3.6358,-3.6417,-3.638,-3.6355,-3.6342,-3.6019,-3.5445,-3.4558,-3.3763,-3.2978,-3.2207,-3.1677,-3.1536,-3.1489,-3.15,-3.151,-3.0682,-3.0182,-3.0209,-2.9706,-2.9568,-2.9953,-2.9964,-2.9911,-2.9932,-2.9953,-2.9994,-2.9994,-3.0015,-3.0005,-3.0005,-3.0005,-3.0036,-3.0025,-3.0377,-3.0626,-3.0636,-3.0915,-3.1278,-3.1247,-3.0946,-3.0864,-3.1319,-3.1454,-3.1391,-3.1536,-3.2064,-3.2463,-3.2457,-3.2437,-3.2354,-3.206,-3.1671,-3.1153,-3.0688,-3.0305,-3.0036,-3.0005,-2.9994,-2.9994,-2.9994,-2.9994,-2.9994,-2.9994,-2.9994,-2.9994,-2.9994,-2.9994,-2.9994,-2.9994,-2.9994,-2.9994,-2.9994,-2.9994,-2.9994,-2.9994,-2.9994,-2.9994,-4.2986,-4.2986,-4.2986,-4.2986,-4.2861,-4.2145,-4.1819,-4.1743,-4.089,-4.0388,-4.0149,-3.9848,-3.9697,-3.9697,-3.9697,-3.9697,-3.9697,-3.9697,-3.9697,-3.9697,-3.9697,-3.9697,-3.9697,-3.9697,-3.9697,-3.9647,-3.9132,-3.8743,-3.8454,-3.7626,-3.6051,-3.4139,-3.4483,-3.4483,-3.3895,-3.3845,-3.4091,-3.4483,-3.4495,-3.4532,-3.4678,-3.5763,-3.5961,-3.5169,-3.4655,-3.3716,-3.2434,-3.2373,-3.2226,-3.1633,-3.1572,-3.1572,-3.1584,-3.1196,-3.0716,-3.009,-2.9859,-2.9787,-2.9984,-2.9994,-2.9994,-2.9994,-2.9994,-2.9994,-3.0015,-3.0243,-3.0294,-3.0077,-3.0243,-3.0398,-3.0439,-3.0822,-3.1091,-3.1135,-3.104,-3.1184,-3.1712,-3.1122,-3.104,-3.1961,-3.193,-3.1878,-3.2147,-3.2489,-3.2659,-3.2669,-3.2669,-3.2566,-3.238,-3.2054,-3.1609,-3.1164,-3.0708,-3.0305,-3.0077,-2.9994,-2.9994,-2.9994,-2.9994,-2.9994,-2.9994,-2.9994,-2.9994,-2.9994,-2.9994,-2.9994,-2.9994,-2.9994,-2.9994,-2.9994,-2.9994,-2.9994,-2.9994,-2.9994,-2.9994,-4.2986,-4.2986,-4.2986,-4.2986,-4.2949,-4.2547,-4.2351,-4.2099,-4.1153,-4.0664,-4.0463,-3.9936,-3.9697,-3.9697,-3.9697,-3.9697,-3.9697,-3.9697,-3.9697,-3.9697,-3.9697,-3.953,-3.9258,-3.9193,-3.9206,-3.9092,-3.8475,-3.8216,-3.8237,-3.6911,-3.5266,-3.3731,-3.3755,-3.3537,-3.2839,-3.275,-3.2901,-3.3201,-3.3201,-3.3201,-3.3449,-3.4727,-3.5126,-3.4434,-3.408,-3.3178,-3.1728,-3.2044,-3.1993,-3.1176,-3.1176,-3.1187,-3.1176,-3.1187,-3.0785,-3.0088,-2.9994,-2.9994,-2.9994,-2.9994,-2.9994,-3.0015,-3.0087,-3.0129,-3.0118,-3.0532,-3.0574,-3.0118,-3.0636,-3.1019,-3.075,-3.1215,-3.1536,-3.1536,-3.1329,-3.1547,-3.2085,-3.1505,-3.1516,-3.2432,-3.2215,-3.2163,-3.2545,-3.2669,-3.2669,-3.2669,-3.2669,-3.2669,-3.2607,-3.2266,-3.1868,-3.1443,-3.0977,-3.0522,-3.0098,-2.9994,-2.9994,-2.9994,-2.9994,-2.9994,-2.9994,-2.9994,-2.9994,-2.9994,-2.9994,-2.9994,-2.9994,-2.9994,-2.9994,-2.9994,-2.9994,-2.9994,-2.9994,-2.9994,-2.9994,-4.2986,-4.2986,-4.2986,-4.2986,-4.2974,-4.2936,-4.269,-4.2225,-4.1555,-4.0974,-4.0513,-3.9973,-3.971,-3.9697,-3.9697,-3.9697,-3.9697,-3.9697,-3.9697,-3.9697,-3.9645,-3.9037,-3.7991,-3.7991,-3.8003,-3.7885,-3.7056,-3.669,-3.6964,-3.5168,-3.4009,-3.3861,-3.2605,-3.1801,-3.171,-3.171,-3.2196,-3.2851,-3.2951,-3.3101,-3.3101,-3.325,-3.33,-3.3089,-3.2336,-3.1779,-3.1483,-3.064,-3.0141,-3.0088,-3.0141,-3.0088,-3.0099,-3.0099,-3.0088,-2.9994,-2.9994,-2.9994,-2.9994,-3.0025,-3.0036,-3.0067,-3.0439,-3.0491,-3.0222,-3.0822,-3.0895,-3.0098,-3.1164,-3.1567,-3.0957,-3.1526,-3.1971,-3.1926,-3.2277,-3.2463,-3.2587,-3.207,-3.2209,-3.2494,-3.2318,-3.2256,-3.2618,-3.2669,-3.2669,-3.2669,-3.2669,-3.2669,-3.2618,-3.2287,-3.194,-3.1495,-3.1029,-3.0543,-3.0118,-2.9994,-2.9994,-2.9994,-2.9994,-2.9994,-2.9994,-2.9994,-2.9994,-2.9994,-2.9994,-2.9994,-2.9994,-2.9994,-2.9994,-2.9994,-2.9994,-2.9994,-2.9994,-2.9994,-2.9994,-4.2986,-4.2986,-4.2986,-4.2986,-4.2986,-4.2986,-4.2861,-4.2703,-4.2095,-4.1555,-4.0949,-4.0463,-4.0023,-3.9697,-3.9697,-3.9697,-3.9697,-3.9697,-3.9697,-3.9633,-3.8933,-3.8332,-3.7885,-3.718,-3.6792,-3.6738,-3.6402,-3.5771,-3.5046,-3.4849,-3.3963,-3.2531,-3.218,-3.1743,-3.1095,-3.0747,-3.0795,-3.1105,-3.1146,-3.1146,-3.1197,-3.1146,-3.1146,-3.1208,-3.1483,-3.1278,-3.0588,-3.0193,-2.9994,-2.9994,-2.9994,-2.9994,-2.9994,-2.9994,-2.9994,-2.9994,-2.9994,-2.9994,-3.0036,-3.0274,-3.0439,-3.047,-3.0874,-3.104,-3.0957,-3.1164,-3.1112,-3.0781,-3.1326,-3.1702,-3.1474,-3.194,-3.2297,-3.207,-3.2132,-3.2437,-3.2509,-3.2106,-3.1899,-3.2509,-3.2514,-3.2514,-3.2545,-3.2669,-3.2669,-3.2669,-3.2669,-3.2669,-3.2659,-3.2561,-3.2302,-3.1868,-3.1422,-3.0967,-3.0512,-3.016,-2.9994,-2.9994,-2.9994,-2.9994,-2.9994,-2.9994,-2.9994,-2.9994,-2.9994,-2.9994,-2.9994,-2.9994,-2.9994,-2.9994,-2.9994,-2.9994,-2.9994,-2.9994,-2.9994,-4.2986,-4.2986,-4.2986,-4.2986,-4.2986,-4.2986,-4.2986,-4.2911,-4.2451,-4.1944,-4.1543,-4.1028,-4.0475,-4.0061,-4.0136,-4.0099,-3.9948,-3.9785,-3.9697,-3.9594,-3.8437,-3.7725,-3.7233,-3.6197,-3.5651,-3.5651,-3.5651,-3.5044,-3.4164,-3.4184,-3.3519,-3.2314,-3.2116,-3.1593,-3.0753,-3.0367,-3.016,-3.0036,-2.9994,-2.9994,-2.9994,-2.9994,-2.9994,-3.0099,-3.0733,-3.0785,-2.9994,-2.9994,-2.9994,-2.9994,-2.9994,-2.9994,-2.9994,-2.9994,-2.9994,-2.9994,-2.9994,-2.9994,-3.0025,-3.0294,-3.046,-3.0501,-3.1008,-3.1288,-3.1029,-3.1329,-3.1267,-3.105,-3.1485,-3.1857,-3.1681,-3.2188,-3.2535,-3.2256,-3.2204,-3.2318,-3.2654,-3.2199,-3.2085,-3.2375,-3.2411,-3.237,-3.2344,-3.2426,-3.2421,-3.2442,-3.2613,-3.2669,-3.2669,-3.2659,-3.2514,-3.206,-3.1795,-3.1309,-3.0822,-3.0408,-3.0108,-3.0067,-3.0005,-2.9994,-2.9994,-2.9994,-2.9994,-2.9994,-2.9994,-2.9994,-2.9994,-2.9994,-2.9994,-2.9994,-2.9994,-2.9994,-2.9994,-2.9994,-2.9994,-4.2986,-4.2986,-4.2986,-4.2986,-4.2986,-4.2986,-4.2986,-4.2898,-4.2434,-4.2238,-4.2037,-4.1555,-4.104,-4.0689,-4.0899,-4.0924,-4.0501,-4.0074,-3.9783,-3.9513,-3.8392,-3.7215,-3.6143,-3.5013,-3.448,-3.448,-3.448,-3.4469,-3.4236,-3.3112,-3.2723,-3.3256,-3.2127,-3.1327,-3.0719,-3.0657,-3.0419,-3.0098,-2.9994,-2.9994,-2.9994,-2.9994,-3.0025,-3.0036,-3.012,-3.012,-3.0025,-3.0015,-2.9994,-2.9994,-2.9994,-2.9994,-2.9994,-2.9994,-2.9994,-3.0046,-3.0015,-3.0005,-3.0036,-3.0087,-3.0149,-3.0253,-3.0895,-3.1081,-3.0739,-3.1298,-3.1598,-3.1143,-3.1505,-3.1812,-3.1661,-3.2209,-3.2685,-3.2638,-3.2545,-3.2618,-3.2649,-3.2649,-3.2483,-3.2132,-3.2019,-3.1857,-3.1629,-3.1795,-3.2033,-3.205,-3.2323,-3.2483,-3.2463,-3.2494,-3.2421,-3.2132,-3.1884,-3.1609,-3.1122,-3.0646,-3.0367,-3.0129,-3.0046,-2.9994,-2.9994,-2.9994,-2.9994,-2.9994,-2.9994,-2.9994,-2.9994,-2.9994,-2.9994,-2.9994,-2.9994,-2.9994,-2.9994,-2.9994,-2.9994,-4.2986,-4.2986,-4.2986,-4.2986,-4.2986,-4.2986,-4.2986,-4.2974,-4.2785,-4.2564,-4.2225,-4.2024,-4.1605,-4.115,-4.1213,-4.12,-4.1025,-4.0824,-4.0177,-3.9033,-3.7873,-3.6518,-3.508,-3.3818,-3.3218,-3.3285,-3.3275,-3.3275,-3.3197,-3.2731,-3.2726,-3.2811,-3.2211,-3.1609,-3.1174,-3.0853,-3.046,-3.0056,-2.9994,-2.9994,-2.9994,-2.9994,-3.0139,-3.0398,-3.017,-3.0129,-3.0429,-3.017,-3.0005,-2.9994,-2.9994,-2.9994,-2.9994,-2.9994,-3.0139,-3.0398,-3.016,-3.016,-3.0429,-3.047,-3.045,-3.0563,-3.104,-3.1391,-3.1371,-3.1474,-3.1629,-3.1547,-3.1833,-3.1905,-3.1971,-3.2297,-3.2525,-3.2235,-3.2473,-3.2669,-3.2638,-3.239,-3.2153,-3.1988,-3.1774,-3.1536,-3.1422,-3.1536,-3.1578,-3.1588,-3.1754,-3.1857,-3.1868,-3.2126,-3.2173,-3.2008,-3.1971,-3.1785,-3.1215,-3.0729,-3.0439,-3.017,-3.0036,-2.9994,-2.9994,-2.9994,-2.9994,-2.9994,-2.9994,-2.9994,-2.9994,-2.9994,-2.9994,-2.9994,-2.9994,-2.9994,-2.9994,-2.9994,-2.9994,-4.2986,-4.2986,-4.2986,-4.2986,-4.2986,-4.2986,-4.2986,-4.2986,-4.2986,-4.2773,-4.2564,-4.2514,-4.2158,-4.1769,-4.1844,-4.1831,-4.1693,-4.1844,-4.0734,-3.8765,-3.7545,-3.6161,-3.4664,-3.3338,-3.2669,-3.2669,-3.2669,-3.2669,-3.2669,-3.2669,-3.2669,-3.2597,-3.238,-3.2075,-3.1629,-3.1174,-3.0719,-3.0294,-3.0077,-2.9994,-2.9994,-2.9994,-3.0129,-3.0336,-3.0139,-3.0149,-3.0387,-3.0139,-2.9994,-2.9994,-2.9994,-2.9994,-2.9994,-3.0015,-3.0201,-3.0512,-3.046,-3.0398,-3.0646,-3.0667,-3.0594,-3.0574,-3.1019,-3.136,-3.1536,-3.1454,-3.1785,-3.1926,-3.1988,-3.206,-3.2246,-3.2483,-3.2452,-3.2039,-3.2401,-3.2649,-3.2618,-3.2266,-3.1915,-3.1764,-3.1391,-3.1102,-3.0915,-3.105,-3.1102,-3.1133,-3.1278,-3.1381,-3.1433,-3.1629,-3.1733,-3.1795,-3.1723,-3.1474,-3.1164,-3.0812,-3.0501,-3.0243,-3.0005,-2.9994,-2.9994,-2.9994,-2.9994,-2.9994,-2.9994,-2.9994,-2.9994,-2.9994,-2.9994,-2.9994,-2.9994,-2.9994,-2.9994,-2.9994,-2.9994,-4.2986,-4.2986,-4.2986,-4.2986,-4.2986,-4.2986,-4.2986,-4.2986,-4.2986,-4.2961,-4.2936,-4.2898,-4.2604,-4.2329,-4.2499,-4.2517,-4.2291,-4.261,-4.1281,-3.9018,-3.762,-3.641,-3.4739,-3.3293,-3.2737,-3.2669,-3.2669,-3.2669,-3.2669,-3.2669,-3.2669,-3.2659,-3.2618,-3.2421,-3.1936,-3.1598,-3.1153,-3.0626,-3.0263,-3.0077,-3.0015,-2.9994,-3.0046,-3.0098,-3.0046,-3.0046,-3.0149,-3.0067,-2.9994,-2.9994,-2.9994,-2.9994,-2.9994,-2.9994,-3.0201,-3.0708,-3.0708,-3.0739,-3.076,-3.0822,-3.0657,-3.0398,-3.0936,-3.1236,-3.1122,-3.1547,-3.1888,-3.1957,-3.1926,-3.205,-3.2426,-3.253,-3.2344,-3.207,-3.2261,-3.2432,-3.2525,-3.2122,-3.1712,-3.134,-3.0936,-3.0512,-3.018,-3.045,-3.0594,-3.0708,-3.0946,-3.1071,-3.1164,-3.1184,-3.1309,-3.136,-3.1391,-3.1267,-3.0988,-3.0843,-3.0522,-3.0191,-2.9994,-2.9994,-2.9994,-2.9994,-2.9994,-2.9994,-2.9994,-2.9994,-2.9994,-2.9994,-2.9994,-2.9994,-2.9994,-2.9994,-2.9994,-2.9994,-2.9994,-4.2986,-4.2986,-4.2986,-4.2986,-4.2986,-4.2986,-4.2986,-4.2986,-4.2986,-4.2986,-4.2986,-4.2986,-4.2357,-4.157,-4.2482,-4.2413,-4.1877,-4.2494,-4.159,-3.9232,-3.8378,-3.6425,-3.4248,-3.3106,-3.268,-3.2669,-3.2669,-3.2669,-3.2669,-3.2669,-3.2669,-3.2669,-3.2659,-3.2509,-3.2008,-3.1919,-3.1433,-3.0791,-3.0584,-3.0315,-3.0046,-2.9994,-3.017,-3.046,-3.017,-3.017,-3.0408,-3.017,-2.9994,-2.9994,-2.9994,-2.9994,-2.9994,-3.0005,-3.0325,-3.0936,-3.0884,-3.1008,-3.1443,-3.134,-3.1122,-3.105,-3.1143,-3.1454,-3.1681,-3.1578,-3.1754,-3.1812,-3.1774,-3.164,-3.1743,-3.1795,-3.1692,-3.1609,-3.1764,-3.1805,-3.1723,-3.134,-3.0977,-3.0843,-3.047,-3.018,-3.0087,-3.0098,-3.0222,-3.0243,-3.0336,-3.045,-3.0584,-3.0739,-3.0864,-3.1008,-3.105,-3.0988,-3.0884,-3.077,-3.0522,-3.0149,-2.9994,-2.9994,-2.9994,-2.9994,-2.9994,-2.9994,-2.9994,-2.9994,-2.9994,-2.9994,-2.9994,-2.9994,-2.9994,-2.9994,-2.9994,-2.9994,-2.9994,-4.2986,-4.2986,-4.2986,-4.2986,-4.2986,-4.2986,-4.2986,-4.2986,-4.2986,-4.2986,-4.2918,-4.2388,-4.181,-4.1203,-4.1329,-4.1272,-4.1043,-4.1639,-4.0858,-3.9077,-3.7318,-3.5419,-3.3726,-3.3089,-3.2913,-3.2669,-3.2669,-3.2669,-3.2669,-3.2669,-3.2669,-3.2669,-3.2669,-3.2525,-3.2364,-3.2039,-3.176,-3.1278,-3.0926,-3.0543,-3.0305,-3.0087,-3.0108,-3.0325,-3.0118,-3.0149,-3.0315,-3.0129,-2.9994,-2.9994,-2.9889,-2.9879,-2.9994,-2.9889,-3.023,-3.1029,-3.0988,-3.1236,-3.1578,-3.1505,-3.1298,-3.1133,-3.1091,-3.1205,-3.1381,-3.1371,-3.1567,-3.1874,-3.1774,-3.1785,-3.1868,-3.1785,-3.1671,-3.1681,-3.1495,-3.1391,-3.1381,-3.1008,-3.0739,-3.0584,-3.0305,-3.0005,-3.0005,-3.0015,-3.0005,-3.0015,-3.0046,-3.0077,-3.0098,-3.0274,-3.0439,-3.0574,-3.0615,-3.0543,-3.0512,-3.0429,-3.0408,-3.0077,-2.9994,-2.9994,-2.9994,-2.9994,-2.9994,-2.9994,-2.9994,-2.9994,-2.9994,-2.9994,-2.9994,-2.9994,-2.9994,-2.9994,-2.9994,-2.9994,-2.9994,-4.2986,-4.2986,-4.2986,-4.2986,-4.2986,-4.2986,-4.2986,-4.2986,-4.2986,-4.2986,-4.2737,-4.1684,-4.1031,-4.0789,-3.9919,-3.958,-4.0036,-4.057,-3.9931,-3.8216,-3.6164,-3.4123,-3.3613,-3.3166,-3.2915,-3.2664,-3.2669,-3.2612,-3.2612,-3.2669,-3.2612,-3.2555,-3.2555,-3.2612,-3.2364,-3.2153,-3.1993,-3.1659,-3.1189,-3.0807,-3.0675,-3.0417,-3.0377,-3.0367,-3.0367,-3.0305,-3.0305,-3.0159,-3.0159,-3.017,-2.9783,-2.9722,-2.9879,-2.9722,-2.9968,-3.0591,-3.1091,-3.1371,-3.1495,-3.1598,-3.1443,-3.1205,-3.1091,-3.0895,-3.1205,-3.1443,-3.1671,-3.1957,-3.1946,-3.2012,-3.2199,-3.2116,-3.1899,-3.1774,-3.1547,-3.1412,-3.1353,-3.1008,-3.076,-3.075,-3.0387,-3.0201,-3.0149,-3.0139,-3.0149,-3.0253,-3.0201,-3.0139,-3.0077,-3.0098,-3.016,-3.016,-3.0139,-3.0067,-3.0067,-3.0056,-3.0077,-2.9994,-2.9994,-2.9994,-2.9994,-2.9994,-2.9994,-2.9994,-2.9994,-2.9994,-2.9994,-2.9994,-2.9994,-2.9994,-2.9994,-2.9994,-2.9994,-2.9994,-2.9994,-4.2986,-4.2986,-4.2986,-4.2986,-4.2986,-4.2986,-4.2986,-4.2986,-4.2986,-4.2986,-4.2681,-4.1627,-4.0384,-3.9193,-3.8969,-3.8543,-3.7936,-3.9381,-3.9814,-3.8186,-3.5673,-3.4247,-3.3619,-3.3002,-3.258,-3.2428,-3.2373,-3.2373,-3.243,-3.2498,-3.244,-3.2086,-3.2258,-3.2248,-3.1988,-3.1954,-3.1627,-3.139,-3.134,-3.1164,-3.0953,-3.0972,-3.0988,-3.0998,-3.0998,-3.104,-3.1016,-3.0843,-3.0843,-3.0797,-3.0216,-2.9666,-2.9761,-2.9688,-2.9893,-3.0419,-3.1034,-3.1536,-3.1847,-3.207,-3.2328,-3.2147,-3.1957,-3.2282,-3.2261,-3.1864,-3.1874,-3.1915,-3.1743,-3.1702,-3.1836,-3.165,-3.1671,-3.1661,-3.1567,-3.1454,-3.1381,-3.1278,-3.1195,-3.1164,-3.1102,-3.1071,-3.104,-3.0977,-3.0864,-3.0626,-3.047,-3.0367,-3.0243,-3.0129,-3.0098,-3.0149,-3.0005,-3.0036,-3.0201,-3.0263,-3.0356,-3.0346,-3.0305,-3.0274,-3.0263,-3.0077,-3.0108,-3.0067,-2.9994,-2.9994,-2.9942,-2.9942,-2.9942,-2.9942,-2.9942,-2.9942,-2.9942,-2.9942,-2.9994,-4.2986,-4.2986,-4.2986,-4.2986,-4.2986,-4.2986,-4.2986,-4.2986,-4.2986,-4.2625,-4.1854,-4.0616,-3.9193,-3.7768,-3.7237,-3.6764,-3.7358,-3.8436,-3.8436,-3.6824,-3.4922,-3.3933,-3.3309,-3.2693,-3.2295,-3.2304,-3.2157,-3.2086,-3.2133,-3.219,-3.2076,-3.1845,-3.196,-3.1971,-3.1845,-3.1787,-3.1724,-3.1502,-3.1374,-3.1263,-3.1293,-3.1168,-3.1196,-3.1186,-3.1186,-3.1186,-3.11,-3.1001,-3.1001,-3.0908,-3.0309,-2.9917,-3.0069,-2.9971,-3.0039,-3.0544,-3.1127,-3.1632,-3.1973,-3.2127,-3.2184,-3.237,-3.2061,-3.1993,-3.2008,-3.1847,-3.1888,-3.1884,-3.1812,-3.1754,-3.1971,-3.2023,-3.2012,-3.2012,-3.2002,-3.2002,-3.195,-3.1661,-3.1381,-3.1381,-3.134,-3.1329,-3.1371,-3.1495,-3.1371,-3.1029,-3.1008,-3.0905,-3.0801,-3.0657,-3.0439,-3.0356,-3.0118,-3.0108,-3.0367,-3.0563,-3.0801,-3.0843,-3.0874,-3.0853,-3.0853,-3.0563,-3.0263,-3.017,-3.0067,-2.9889,-2.9827,-2.9827,-2.9774,-2.9617,-2.9617,-2.9722,-2.9827,-2.9879,-2.9942,-4.2681,-4.2681,-4.2681,-4.2681,-4.275,-4.2918,-4.2986,-4.2986,-4.2918,-4.2206,-4.0916,-3.9311,-3.8056,-3.6621,-3.5263,-3.5746,-3.6896,-3.6946,-3.6276,-3.5623,-3.4465,-3.3618,-3.2985,-3.2566,-3.2235,-3.2324,-3.1902,-3.176,-3.173,-3.173,-3.1797,-3.1672,-3.173,-3.1672,-3.1672,-3.1672,-3.1536,-3.1446,-3.1321,-3.1274,-3.142,-3.1248,-3.1172,-3.1162,-3.1283,-3.1293,-3.1303,-3.1273,-3.1211,-3.1105,-3.0504,-3.0504,-3.0631,-3.0379,-3.0193,-3.0736,-3.1213,-3.1671,-3.1819,-3.1856,-3.1881,-3.2014,-3.1579,-3.1373,-3.1571,-3.1805,-3.194,-3.2075,-3.2168,-3.2215,-3.2607,-3.2545,-3.2576,-3.2597,-3.2638,-3.2669,-3.2535,-3.2023,-3.1764,-3.1681,-3.1816,-3.1868,-3.1795,-3.1816,-3.164,-3.1505,-3.1485,-3.1433,-3.1363,-3.1208,-3.0915,-3.0791,-3.0626,-3.0563,-3.0781,-3.0884,-3.1122,-3.1215,-3.1298,-3.1298,-3.1288,-3.1019,-3.0667,-3.0274,-3.0076,-2.9951,-2.9837,-2.9827,-2.9669,-2.9343,-2.9396,-2.9659,-2.9774,-2.9827,-2.9879,-4.1386,-4.1386,-4.1386,-4.1386,-4.1627,-4.2513,-4.2918,-4.2986,-4.2569,-4.1854,-4.0488,-3.9005,-3.7396,-3.6011,-3.4891,-3.5149,-3.5746,-3.5324,-3.485,-3.4943,-3.41,-3.3373,-3.3086,-3.248,-3.2231,-3.2046,-3.1712,-3.1392,-3.1441,-3.1614,-3.1508,-3.1228,-3.1276,-3.1334,-3.117,-3.1064,-3.1122,-3.118,-3.1206,-3.1271,-3.1337,-3.1449,-3.1482,-3.1539,-3.169,-3.1834,-3.1952,-3.1983,-3.208,-3.2034,-3.1451,-3.1202,-3.1023,-3.0432,-3.0221,-3.0438,-3.1131,-3.16,-3.1733,-3.1988,-3.2152,-3.224,-3.1983,-3.1962,-3.2143,-3.2267,-3.2349,-3.2421,-3.2504,-3.2576,-3.2649,-3.2669,-3.2669,-3.2669,-3.2669,-3.2669,-3.2628,-3.253,-3.2364,-3.2313,-3.2385,-3.2406,-3.2271,-3.2178,-3.2106,-3.1992,-3.194,-3.1816,-3.164,-3.1495,-3.1319,-3.1267,-3.1236,-3.1226,-3.1278,-3.1319,-3.1433,-3.1505,-3.1557,-3.1567,-3.1516,-3.1381,-3.1091,-3.0812,-3.0398,-3.0076,-2.9962,-2.9878,-2.9722,-2.9511,-2.9554,-2.9669,-2.9659,-2.9659,-2.9722,-4.0512,-4.1031,-4.0396,-4.05,-4.1157,-4.1741,-4.1911,-4.1728,-4.1558,-4.0303,-3.8569,-3.7385,-3.6184,-3.4922,-3.4215,-3.4225,-3.43,-3.443,-3.4192,-3.427,-3.3723,-3.3281,-3.3076,-3.2432,-3.207,-3.1779,-3.1368,-3.1112,-3.1112,-3.1228,-3.118,-3.0995,-3.1054,-3.1005,-3.0947,-3.0957,-3.0898,-3.0957,-3.1064,-3.116,-3.1267,-3.1498,-3.1556,-3.1614,-3.1672,-3.1787,-3.1787,-3.1797,-3.1787,-3.1662,-3.1315,-3.116,-3.0984,-3.0777,-3.0519,-3.072,-3.1154,-3.1513,-3.158,-3.1812,-3.1825,-3.195,-3.1903,-3.196,-3.2201,-3.2399,-3.2555,-3.2669,-3.2669,-3.2669,-3.2669,-3.2669,-3.2669,-3.2669,-3.2669,-3.2669,-3.2669,-3.2669,-3.2669,-3.2669,-3.2587,-3.2535,-3.2587,-3.2525,-3.2571,-3.2452,-3.2339,-3.2209,-3.1992,-3.1857,-3.1733,-3.1723,-3.1723,-3.1723,-3.1764,-3.1836,-3.1847,-3.1888,-3.1909,-3.1909,-3.1833,-3.1771,-3.1657,-3.145,-3.0975,-3.0364,-3.0041,-2.9935,-2.9813,-2.9657,-2.9583,-2.9497,-2.9479,-2.9448,-2.9603,-3.9451,-4.0268,-3.9275,-3.9569,-4.0628,-4.1031,-4.0973,-4.0662,-4.0592,-3.8982,-3.6356,-3.5816,-3.5108,-3.4037,-3.3587,-3.3442,-3.3354,-3.4063,-3.3905,-3.3434,-3.3305,-3.3066,-3.2646,-3.2246,-3.1846,-3.1562,-3.1123,-3.0898,-3.0947,-3.1005,-3.0947,-3.0889,-3.0889,-3.0898,-3.0898,-3.0898,-3.0898,-3.0898,-3.0898,-3.1054,-3.116,-3.1218,-3.1218,-3.1218,-3.1276,-3.1325,-3.1383,-3.1508,-3.145,-3.1334,-3.116,-3.0995,-3.0947,-3.0889,-3.1005,-3.117,-3.1276,-3.1441,-3.1546,-3.1488,-3.1508,-3.1672,-3.1441,-3.1672,-3.196,-3.2201,-3.243,-3.2612,-3.2669,-3.2669,-3.2669,-3.2669,-3.2669,-3.2669,-3.2669,-3.2669,-3.2669,-3.2669,-3.2669,-3.2669,-3.2669,-3.2669,-3.2669,-3.2669,-3.2597,-3.2597,-3.2494,-3.2504,-3.2364,-3.2271,-3.2132,-3.2178,-3.2122,-3.2122,-3.2194,-3.2395,-3.2385,-3.2385,-3.2395,-3.2395,-3.2262,-3.2128,-3.203,-3.1845,-3.1246,-3.0625,-3.035,-3.0199,-3.0337,-3.0222,-2.9698,-2.9624,-2.9957,-2.988,-2.9867,-3.7599,-3.7708,-3.7588,-3.8257,-3.9428,-4.0488,-4.0801,-4.0419,-4.0071,-3.8509,-3.5694,-3.5468,-3.4642,-3.3704,-3.3413,-3.3174,-3.3129,-3.3303,-3.3427,-3.3057,-3.2949,-3.2715,-3.2256,-3.1787,-3.1611,-3.1396,-3.1064,-3.0918,-3.0898,-3.0898,-3.0898,-3.0898,-3.0898,-3.0898,-3.0898,-3.0898,-3.0898,-3.0898,-3.0898,-3.0947,-3.0947,-3.0947,-3.0947,-3.0995,-3.117,-3.1267,-3.1267,-3.145,-3.1508,-3.1267,-3.1276,-3.1112,-3.0947,-3.0898,-3.0898,-3.1005,-3.117,-3.1325,-3.1325,-3.1267,-3.1276,-3.1392,-3.1276,-3.1334,-3.1614,-3.2018,-3.2373,-3.2669,-3.2669,-3.2669,-3.2669,-3.2669,-3.2669,-3.2669,-3.2669,-3.2669,-3.2669,-3.2669,-3.2669,-3.2669,-3.2669,-3.2669,-3.2669,-3.2669,-3.2669,-3.2669,-3.2669,-3.2669,-3.2638,-3.2504,-3.2442,-3.2411,-3.239,-3.2401,-3.2401,-3.2587,-3.2628,-3.2669,-3.2669,-3.2669,-3.254,-3.2354,-3.2281,-3.1978,-3.1411,-3.1136,-3.1013,-3.096,-3.1062,-3.0833,-3.0401,-3.0469,-3.0748,-3.0498,-3.0073,-3.587,-3.6485,-3.5859,-3.6316,-3.7473,-3.81,-3.8212,-3.7903,-3.7723,-3.6467,-3.4736,-3.432,-3.3912,-3.3403,-3.2978,-3.29,-3.3066,-3.3115,-3.3135,-3.3057,-3.2881,-3.2568,-3.2168,-3.1719,-3.1445,-3.1201,-3.1016,-3.0908,-3.0898,-3.0908,-3.0898,-3.0918,-3.0898,-3.0898,-3.0928,-3.0898,-3.0898,-3.0898,-3.0898,-3.0898,-3.0898,-3.0898,-3.0898,-3.0898,-3.1054,-3.1054,-3.1102,-3.116,-3.1228,-3.1044,-3.1054,-3.1005,-3.0947,-3.0898,-3.0898,-3.0898,-3.0995,-3.1054,-3.1054,-3.1112,-3.1112,-3.1054,-3.1112,-3.117,-3.1325,-3.173,-3.2133,-3.243,-3.2487,-3.2555,-3.2669,-3.2669,-3.2669,-3.2669,-3.2669,-3.2669,-3.2669,-3.2669,-3.2669,-3.2669,-3.2669,-3.2669,-3.2669,-3.2669,-3.2669,-3.2669,-3.2669,-3.2669,-3.2669,-3.2628,-3.2597,-3.2618,-3.2607,-3.2607,-3.2597,-3.2649,-3.2649,-3.2669,-3.2669,-3.2669,-3.2669,-3.2534,-3.2373,-3.2201,-3.1765,-3.1598,-3.1615,-3.1365,-3.1179,-3.1107,-3.1121,-3.1123,-3.1039,-3.051,-3.0133,-3.4248,-3.499,-3.4451,-3.4983,-3.6096,-3.6189,-3.6138,-3.5867,-3.5928,-3.4964,-3.3713,-3.3408,-3.3369,-3.3223,-3.2822,-3.2871,-3.3203,-3.3027,-3.3066,-3.3096,-3.2939,-3.2568,-3.2148,-3.1719,-3.1357,-3.1045,-3.0957,-3.0986,-3.1064,-3.1074,-3.1094,-3.1045,-3.0947,-3.0996,-3.1016,-3.0957,-3.0898,-3.0898,-3.0898,-3.0898,-3.0898,-3.0898,-3.0898,-3.0898,-3.0898,-3.0898,-3.0898,-3.0947,-3.0947,-3.0947,-3.0947,-3.0947,-3.0898,-3.0898,-3.0898,-3.0898,-3.0947,-3.0947,-3.0947,-3.0947,-3.0898,-3.0898,-3.0947,-3.1054,-3.1276,-3.1566,-3.1845,-3.2143,-3.2143,-3.2315,-3.2487,-3.2545,-3.2612,-3.2669,-3.2669,-3.2669,-3.269,-3.2752,-3.2731,-3.2669,-3.2669,-3.2669,-3.2669,-3.2669,-3.2669,-3.2669,-3.2669,-3.2669,-3.2669,-3.2669,-3.2669,-3.2669,-3.2669,-3.2669,-3.2669,-3.2669,-3.2669,-3.2669,-3.2669,-3.2669,-3.2669,-3.2487,-3.2315,-3.2143,-3.1971,-3.1812,-3.1637,-3.1385,-3.1248,-3.1467,-3.1569,-3.138,-3.1172,-3.0604,-3.0353,-3.2705,-3.2642,-3.3682,-3.4788,-3.5962,-3.6096,-3.5933,-3.5498,-3.5673,-3.4798,-3.3471,-3.3379,-3.3174,-3.2998,-3.3086,-3.3027,-3.29,-3.3213,-3.3154,-3.2969,-3.2773,-3.2539,-3.2187,-3.1855,-3.1533,-3.1426,-3.126,-3.1269,-3.1396,-3.1475,-3.1484,-3.1445,-3.1191,-3.123,-3.1201,-3.1055,-3.0908,-3.0898,-3.0898,-3.0898,-3.0898,-3.0898,-3.0898,-3.0898,-3.0898,-3.0898,-3.0898,-3.0898,-3.0898,-3.0898,-3.0898,-3.0898,-3.0898,-3.0898,-3.0898,-3.0898,-3.0976,-3.0996,-3.0996,-3.0937,-3.0898,-3.0898,-3.0947,-3.1005,-3.1228,-3.1286,-3.1518,-3.1888,-3.2047,-3.22,-3.2313,-3.2393,-3.2703,-3.2823,-3.2963,-3.3068,-3.3058,-3.2996,-3.2954,-3.2731,-3.2721,-3.2861,-3.2731,-3.2742,-3.268,-3.2669,-3.2669,-3.2669,-3.2669,-3.2669,-3.2669,-3.2669,-3.2669,-3.2669,-3.2669,-3.2669,-3.2669,-3.2669,-3.2669,-3.2669,-3.2669,-3.2487,-3.2373,-3.2133,-3.196,-3.1787,-3.1652,-3.1361,-3.1355,-3.1883,-3.2038,-3.169,-3.1582,-3.1278,-3.1015,-3.2373,-3.2346,-3.2578,-3.3013,-3.3631,-3.3932,-3.4014,-3.4011,-3.42,-3.4017,-3.3408,-3.3174,-3.3096,-3.3144,-3.3018,-3.3115,-3.3125,-3.3018,-3.3096,-3.2969,-3.2725,-3.251,-3.2295,-3.2187,-3.1914,-3.1875,-3.1738,-3.1719,-3.1894,-3.1914,-3.2129,-3.2031,-3.1621,-3.1426,-3.1348,-3.1201,-3.0986,-3.0918,-3.0908,-3.0898,-3.0898,-3.0898,-3.0898,-3.0898,-3.0898,-3.0898,-3.0898,-3.0898,-3.0898,-3.0918,-3.0937,-3.0967,-3.0986,-3.0976,-3.0976,-3.1006,-3.1152,-3.126,-3.1211,-3.1084,-3.0898,-3.0898,-3.0898,-3.0986,-3.1172,-3.128,-3.1594,-3.1869,-3.2126,-3.2353,-3.27,-3.2957,-3.3243,-3.3261,-3.3327,-3.3403,-3.343,-3.331,-3.3368,-3.3317,-3.3203,-3.3172,-3.3037,-3.2892,-3.2752,-3.2669,-3.2669,-3.2669,-3.2669,-3.2669,-3.2669,-3.2669,-3.2669,-3.2669,-3.2669,-3.2669,-3.2669,-3.2669,-3.2669,-3.2669,-3.2669,-3.2669,-3.2487,-3.2258,-3.196,-3.1787,-3.1614,-3.1334,-3.145,-3.1787,-3.1903,-3.1842,-3.1757,-3.1682,-3.145,-3.2076,-3.196,-3.173,-3.1837,-3.2227,-3.2588,-3.2816,-3.3018,-3.3354,-3.3418,-3.3398,-3.3105,-3.3125,-3.3271,-3.3174,-3.3135,-3.3271,-3.3193,-3.3223,-3.3115,-3.2939,-3.2754,-3.2744,-3.2607,-3.2344,-3.2334,-3.2207,-3.2168,-3.2344,-3.2415,-3.2578,-3.2617,-3.2305,-3.2021,-3.1846,-3.1494,-3.1211,-3.1103,-3.1084,-3.0976,-3.0937,-3.0898,-3.1025,-3.1064,-3.1123,-3.125,-3.1328,-3.1396,-3.1367,-3.1357,-3.1348,-3.1309,-3.1289,-3.1269,-3.1269,-3.1367,-3.1504,-3.1699,-3.1621,-3.1484,-3.1279,-3.1446,-3.1357,-3.1338,-3.1348,-3.1533,-3.1879,-3.2028,-3.2334,-3.2643,-3.2955,-3.2995,-3.3134,-3.3172,-3.3489,-3.3587,-3.3726,-3.3706,-3.3816,-3.3886,-3.3741,-3.3586,-3.3524,-3.3368,-3.3021,-3.2866,-3.2669,-3.2669,-3.2669,-3.2669,-3.2669,-3.2669,-3.2669,-3.2669,-3.2669,-3.2669,-3.2669,-3.2669,-3.2669,-3.2669,-3.2669,-3.2669,-3.2669,-3.2487,-3.2201,-3.1845,-3.1614,-3.1392,-3.145,-3.1556,-3.1672,-3.174,-3.1508,-3.1392,-3.145,-3.1624,-3.1325,-3.1325,-3.182,-3.2474,-3.2563,-3.2853,-3.3232,-3.3379,-3.3418,-3.3418,-3.335,-3.3359,-3.3408,-3.332,-3.3359,-3.3359,-3.334,-3.335,-3.331,-3.3164,-3.3281,-3.3213,-3.2978,-3.2773,-3.2676,-3.2568,-3.2568,-3.2773,-3.2783,-3.3027,-3.3135,-3.2871,-3.2588,-3.2685,-3.2324,-3.1914,-3.1572,-3.1514,-3.1309,-3.1133,-3.1094,-3.1269,-3.1435,-3.1514,-3.165,-3.1816,-3.1885,-3.1865,-3.1875,-3.1964,-3.1914,-3.1924,-3.1943,-3.1963,-3.2012,-3.209,-3.2158,-3.2229,-3.2148,-3.21,-3.2023,-3.1846,-3.1904,-3.2031,-3.2139,-3.2158,-3.234,-3.2407,-3.2468,-3.2581,-3.2763,-3.3014,-3.3296,-3.3649,-3.391,-3.4072,-3.4142,-3.4274,-3.4434,-3.4227,-3.4051,-3.4031,-3.3896,-3.3424,-3.3114,-3.2793,-3.2778,-3.2835,-3.2917,-3.3068,-3.3027,-3.3037,-3.2913,-3.2913,-3.2778,-3.2737,-3.2669,-3.2669,-3.2669,-3.2669,-3.2669,-3.2669,-3.2612,-3.2373,-3.2018,-3.173,-3.1508,-3.145,-3.1334,-3.1566,-3.1566,-3.1276,-3.116,-3.1276,-3.1383,-3.1276,-3.1112,-3.1545,-3.2281,-3.234,-3.2623,-3.2998,-3.3281,-3.3418,-3.3418,-3.3418,-3.3418,-3.3418,-3.3418,-3.3408,-3.3379,-3.3076,-3.3076,-3.3379,-3.3203,-3.3232,-3.3252,-3.3271,-3.3184,-3.3174,-3.3037,-3.2978,-3.3213,-3.3164,-3.3232,-3.333,-3.3223,-3.2891,-3.249,-3.2258,-3.2051,-3.1973,-3.1943,-3.1875,-3.1748,-3.1709,-3.1768,-3.1934,-3.1953,-3.206,-3.2236,-3.2285,-3.2285,-3.2275,-3.2275,-3.2266,-3.2256,-3.2256,-3.2287,-3.2285,-3.2373,-3.2734,-3.2891,-3.2959,-3.2705,-3.2432,-3.2246,-3.2256,-3.2238,-3.2461,-3.2529,-3.2637,-3.2783,-3.2914,-3.3132,-3.3381,-3.3607,-3.3741,-3.4009,-3.4308,-3.4503,-3.4626,-3.4749,-3.485,-3.4807,-3.4233,-3.4019,-3.4111,-3.3754,-3.3551,-3.3315,-3.3406,-3.3517,-3.3648,-3.372,-3.3586,-3.3503,-3.3285,-3.3141,-3.3089,-3.2985,-3.2965,-3.2793,-3.2669,-3.2669,-3.2824,-3.2742,-3.2793,-3.2492,-3.219,-3.1845,-3.1508,-3.117,-3.1112,-3.1286,-3.1392,-3.1218,-3.1218,-3.1392,-3.1387,-3.1319,-3.1064,-3.1387,-3.209,-3.2229,-3.248,-3.2988,-3.3301,-3.3418,-3.3418,-3.3418,-3.3418,-3.3418,-3.3418,-3.3418,-3.3379,-3.3184,-3.3076,-3.3379,-3.3174,-3.3242,-3.3369,-3.3418,-3.3359,-3.3418,-3.3418,-3.3398,-3.3379,-3.3408,-3.3408,-3.3408,-3.3408,-3.3144,-3.2783,-3.2676,-3.2559,-3.2471,-3.2373,-3.2275,-3.2158,-3.2129,-3.2217,-3.2334,-3.2412,-3.2471,-3.2568,-3.2598,-3.2588,-3.2578,-3.2578,-3.2578,-3.2578,-3.2588,-3.2598,-3.2705,-3.2832,-3.3154,-3.3301,-3.3359,-3.3057,-3.2764,-3.2617,-3.2607,-3.2617,-3.2891,-3.2978,-3.3105,-3.3301,-3.335,-3.3389,-3.3733,-3.3733,-3.3839,-3.4017,-3.431,-3.4425,-3.4519,-3.482,-3.5005,-3.5067,-3.4503,-3.4024,-3.4085,-3.4075,-3.3913,-3.3801,-3.3951,-3.4017,-3.4126,-3.4137,-3.4072,-3.3927,-3.372,-3.3575,-3.3492,-3.3379,-3.3223,-3.3083,-3.301,-3.3234,-3.3451,-3.3203,-3.2985,-3.2833,-3.2561,-3.1906,-3.1508,-3.117,-3.1005,-3.1005,-3.1112,-3.116,-3.1218,-3.1334,-3.1523,-3.1455,-3.1084,-3.1396,-3.206,-3.2187,-3.2666,-3.3389,-3.3418,-3.3418,-3.3418,-3.3418,-3.3418,-3.3418,-3.3418,-3.3418,-3.3418,-3.3316,-3.3389,-3.3408,-3.332,-3.3398,-3.3398,-3.3418,-3.3418,-3.3418,-3.3418,-3.3418,-3.3418,-3.3418,-3.3418,-3.3418,-3.3418,-3.3301,-3.3242,-3.3174,-3.3047,-3.2881,-3.2803,-3.2676,-3.2529,-3.2393,-3.2578,-3.2725,-3.2822,-3.2969,-3.3105,-3.3213,-3.3252,-3.3281,-3.332,-3.335,-3.3369,-3.3398,-3.3408,-3.3389,-3.3359,-3.3389,-3.3408,-3.3418,-3.3398,-3.3193,-3.3271,-3.3369,-3.333,-3.3252,-3.3262,-3.3281,-3.3389,-3.3398,-3.3418,-3.3418,-3.3481,-3.3597,-3.3723,-3.3912,-3.4037,-3.4278,-3.4662,-3.4891,-3.5067,-3.4769,-3.4419,-3.4316,-3.4082,-3.3937,-3.3785,-3.3891,-3.4024,-3.4235,-3.4285,-3.4304,-3.4219,-3.4145,-3.402,-3.3906,-3.3644,-3.343,-3.3613,-3.3613,-3.3847,-3.3896,-3.3658,-3.3451,-3.3379,-3.2912,-3.216,-3.1624,-3.1218,-3.1112,-3.1015,-3.0947,-3.1054,-3.0995,-3.1064,-3.1797,-3.1514,-3.1387,-3.1475,-3.1777,-3.2353,-3.293,-3.3389,-3.3418,-3.3418,-3.3418,-3.3418,-3.3418,-3.3418,-3.3418,-3.3418,-3.3418,-3.3418,-3.3408,-3.3418,-3.3418,-3.3418,-3.3418,-3.3418,-3.3418,-3.3418,-3.3418,-3.3418,-3.3418,-3.3418,-3.3418,-3.3418,-3.3418,-3.3418,-3.3418,-3.3418,-3.331,-3.3242,-3.3184,-3.3076,-3.3008,-3.2949,-3.3086,-3.3144,-3.3174,-3.3301,-3.3369,-3.3418,-3.3418,-3.3418,-3.3418,-3.3418,-3.3418,-3.3418,-3.3408,-3.3408,-3.3408,-3.3418,-3.3418,-3.3418,-3.3418,-3.3418,-3.3418,-3.3418,-3.3408,-3.3418,-3.3418,-3.3418,-3.3418,-3.3418,-3.3418,-3.3418,-3.3418,-3.3481,-3.3607,-3.367,-3.3859,-3.4047,-3.4433,-3.4673,-3.4859,-3.4735,-3.4423,-3.4195,-3.3941,-3.38,-3.3727,-3.3818,-3.3999,-3.4207,-3.437,-3.439,-3.4501,-3.4448,-3.4293,-3.417,-3.3906,-3.3674,-3.3887,-3.4019,-3.3957,-3.3966,-3.3961,-3.3875,-3.3641,-3.3053,-3.233,-3.1936,-3.1729,-3.1287,-3.1151,-3.1025,-3.0898,-3.0967,-3.0908,-3.1758,-3.1504,-3.1338,-3.1357,-3.1621,-3.2256,-3.2705,-3.2969,-3.3271,-3.3418,-3.3418,-3.3418,-3.3418,-3.3418,-3.3418,-3.3418,-3.3418,-3.3418,-3.3418,-3.3418,-3.3418,-3.3418,-3.3418,-3.3418,-3.3418,-3.3418,-3.3418,-3.3418,-3.3418,-3.3418,-3.3418,-3.3418,-3.3418,-3.3418,-3.3418,-3.3418,-3.3418,-3.3398,-3.3398,-3.3418,-3.3418,-3.3418,-3.3418,-3.3418,-3.3418,-3.3418,-3.3418,-3.3418,-3.3418,-3.3418,-3.3418,-3.3418,-3.3418,-3.3418,-3.3418,-3.3418,-3.3418,-3.3418,-3.3418,-3.3418,-3.3418,-3.3418,-3.3418,-3.3418,-3.3418,-3.3418,-3.3418,-3.3418,-3.3418,-3.3418,-3.3418,-3.3418,-3.3418,-3.3418,-3.3481,-3.3481,-3.367,-3.3806,-3.4057,-3.436,-3.4423,-3.436,-3.4173,-3.3985,-3.3796,-3.3607,-3.3544,-3.3621,-3.3865,-3.418,-3.4378,-3.4481,-3.4667,-3.4759,-3.4605,-3.4481,-3.4379,-3.4217,-3.4329,-3.434,-3.4166,-3.4196,-3.4348,-3.419,-3.385,-3.3341,-3.2837,-3.2654,-3.2392,-3.1967,-3.1643,-3.1614,-3.1407,-3.1035,-3.1015,-3.1553,-3.1475,-3.1074,-3.1123,-3.1504,-3.1924,-3.2119,-3.2268,-3.292,-3.332,-3.333,-3.3408,-3.3418,-3.3418,-3.3418,-3.3418,-3.3418,-3.3418,-3.3418,-3.3418,-3.3418,-3.3418,-3.3418,-3.3418,-3.3418,-3.3418,-3.3418,-3.3418,-3.3418,-3.3418,-3.3418,-3.3418,-3.3418,-3.3418,-3.3418,-3.3418,-3.3418,-3.3418,-3.3418,-3.3418,-3.3418,-3.3418,-3.3418,-3.3418,-3.3418,-3.3418,-3.3418,-3.3418,-3.3418,-3.3418,-3.3418,-3.3418,-3.3418,-3.3418,-3.3418,-3.3418,-3.3418,-3.3418,-3.3418,-3.3418,-3.3418,-3.3418,-3.3418,-3.3418,-3.3418,-3.3418,-3.3418,-3.3418,-3.3418,-3.3418,-3.3418,-3.3418,-3.3418,-3.3418,-3.3418,-3.3418,-3.3481,-3.367,-3.3859,-3.4047,-3.4047,-3.4047,-3.4047,-3.3859,-3.367,-3.3481,-3.3418,-3.3418,-3.3607,-3.3985,-3.4173,-3.436,-3.4654,-3.481,-3.4872,-3.48,-3.4892,-3.4871,-3.4717,-3.45,-3.4236,-3.441,-3.4841,-3.4462,-3.4099,-3.3955,-3.362,-3.3321,-3.3072,-3.2963,-3.2664,-3.2455,-3.2078,-3.1643,-3.128,-3.1816,-3.1475,-3.1064,-3.0957,-3.1094,-3.1494,-3.167,-3.1719,-3.2226,-3.2656,-3.2959,-3.3232,-3.3398,-3.3359,-3.3408,-3.3418,-3.3418,-3.3418,-3.3418,-3.3418,-3.3418,-3.3418,-3.3418,-3.3418,-3.3418,-3.3418,-3.3418,-3.3418,-3.3418,-3.3418,-3.3418,-3.3418,-3.3418,-3.3418,-3.3418,-3.3418,-3.3418,-3.3418,-3.3418,-3.3418,-3.3418,-3.3418,-3.3418,-3.3418,-3.3418,-3.3418,-3.3418,-3.3418,-3.3418,-3.3418,-3.3418,-3.3418,-3.3418,-3.3418,-3.3418,-3.3418,-3.3418,-3.3418,-3.3418,-3.3418,-3.3418,-3.3418,-3.3418,-3.3418,-3.3418,-3.3418,-3.3418,-3.3418,-3.3418,-3.3418,-3.3418,-3.3418,-3.3418,-3.3418,-3.3418,-3.3418,-3.3418,-3.3544,-3.367,-3.3733,-3.3733,-3.3806,-3.3806,-3.3733,-3.3544,-3.3418,-3.3418,-3.3418,-3.3418,-3.367,-3.3796,-3.4047,-3.461,-3.4819,-3.4859,-3.4922,-3.4922,-3.4735,-3.455,-3.4393,-3.4235,-3.456,-3.4851,-3.4656,-3.4368,-3.4326,-3.4171,-3.3735,-3.3585,-3.3638,-3.3477,-3.3216,-3.3005,-3.2605,-3.2038,-3.1465,-3.1211,-3.0986,-3.0898,-3.0937,-3.1143,-3.124,-3.1318,-3.1699,-3.2002,-3.2314,-3.2822,-3.3144,-3.3213,-3.332,-3.3418,-3.3418,-3.3418,-3.3418,-3.3418,-3.3418,-3.3418,-3.3418,-3.3418,-3.3418,-3.3418,-3.3418,-3.3418,-3.3418,-3.3418,-3.3418,-3.3418,-3.3418,-3.3418,-3.3418,-3.3418,-3.3418,-3.3418,-3.3418,-3.3418,-3.3418,-3.3418,-3.3418,-3.3418,-3.3418,-3.3418,-3.3418,-3.3418,-3.3418,-3.3418,-3.3418,-3.3418,-3.3418,-3.3418,-3.3418,-3.3418,-3.3418,-3.3418,-3.3418,-3.3418,-3.3418,-3.3418,-3.3418,-3.3418,-3.3418,-3.3418,-3.3418,-3.3418,-3.3418,-3.3418,-3.3418,-3.3418,-3.3418,-3.3418,-3.3418,-3.3418,-3.3418,-3.3418,-3.3544,-3.3544,-3.3544,-3.3554,-3.3617,-3.3617,-3.3418,-3.3418,-3.3418,-3.3418,-3.3418,-3.3418,-3.3544,-3.3733,-3.4235,-3.4423,-3.436,-3.4548,-3.4807,-3.461,-3.436,-3.4235,-3.4173,-3.46,-3.482,-3.4615,-3.4677,-3.4922,-3.4665,-3.4256,-3.4389,-3.4615,-3.4309,-3.3953,-3.372,-3.3498,-3.3155,-3.0918,-3.0898,-3.0898,-3.0898,-3.0898,-3.0898,-3.0908,-3.0967,-3.1279,-3.1484,-3.168,-3.2402,-3.2685,-3.292,-3.3213,-3.334,-3.3418,-3.3418,-3.3418,-3.3418,-3.3418,-3.3418,-3.3418,-3.3418,-3.3418,-3.3418,-3.3418,-3.3418,-3.3418,-3.3418,-3.3418,-3.3418,-3.3418,-3.3418,-3.3418,-3.3418,-3.3418,-3.3418,-3.3418,-3.3418,-3.3418,-3.3418,-3.3418,-3.3418,-3.3418,-3.3418,-3.3418,-3.3418,-3.3418,-3.3418,-3.3418,-3.3418,-3.3418,-3.3418,-3.3418,-3.3418,-3.3418,-3.3418,-3.3418,-3.3418,-3.3418,-3.3418,-3.3418,-3.3418,-3.3418,-3.3418,-3.3418,-3.3418,-3.3418,-3.3418,-3.3418,-3.3418,-3.3418,-3.3418,-3.3418,-3.3418,-3.3418,-3.3418,-3.3418,-3.3418,-3.3418,-3.3418,-3.3418,-3.3418,-3.3418,-3.3418,-3.3418,-3.3418,-3.3418,-3.3418,-3.3418,-3.3544,-3.3796,-3.3922,-3.3985,-3.4235,-3.461,-3.4485,-3.4298,-3.411,-3.4047,-3.4298,-3.4538,-3.4642,-3.4758,-3.4933,-3.5088,-3.4892,-3.5098,-3.5242,-3.5005,-3.4595,-3.437,-3.4186,-3.4206,-3.0898,-3.0898,-3.0898,-3.0898,-3.0898,-3.0898,-3.0898,-3.0898,-3.0976,-3.1182,-3.1562,-3.2012,-3.2441,-3.2822,-3.3232,-3.3408,-3.3418,-3.3418,-3.3418,-3.3418,-3.3418,-3.3418,-3.3418,-3.3418,-3.3418,-3.3418,-3.3418,-3.3418,-3.3418,-3.3418,-3.3418,-3.3418,-3.3418,-3.3418,-3.3418,-3.3418,-3.3418,-3.3418,-3.3418,-3.3418,-3.3418,-3.3418,-3.3418,-3.3418,-3.3418,-3.3418,-3.3418,-3.3418,-3.3418,-3.3418,-3.3418,-3.3418,-3.3418,-3.3418,-3.3418,-3.3418,-3.3418,-3.3418,-3.3418,-3.3418,-3.3418,-3.3418,-3.3418,-3.3418,-3.3418,-3.3418,-3.3418,-3.3418,-3.3418,-3.3418,-3.3418,-3.3418,-3.3418,-3.3418,-3.3418,-3.3418,-3.3418,-3.3418,-3.3418,-3.3418,-3.3418,-3.3418,-3.3418,-3.3418,-3.3418,-3.3418,-3.3418,-3.3418,-3.3418,-3.3418,-3.3418,-3.3418,-3.3481,-3.367,-3.3859,-3.411,-3.4423,-3.4298,-3.4173,-3.3985,-3.3859,-3.3869,-3.4047,-3.4288,-3.4475,-3.4612,-3.4849,-3.5118,-3.5222,-3.5253,-3.5335,-3.515,-3.4995,-3.4841,-3.4769]},{"header":{"parameterUnit":"m.s-1","parameterCategory":1,"la1":31.0,"la2":29.5877,"lo1":-88.7671,"lo2":-86.6584,"dy":0.0162,"dx":0.0185,"nx":115,"ny":88,"refTime":"2026-04-21T00:00:00:Z","depth":0,"parameterNumber":3,"parameterNumberName":"V-component_of_WINDS"},"data":[0.0,0.0,0.0,0.0,0.0,0.0,0.0,0.0,0.0,0.0,0.0,0.0,0.0,0.0,0.0,0.0,0.0,0.0,0.0,0.0,0.0,0.0,0.0,0.0,0.0,0.0,0.0,0.0,0.0,0.0,0.0,0.0,0.0,0.0,0.0,0.0,0.0,0.0,0.0,0.0,0.0,0.0,0.0,0.0,0.0,0.0,0.0,0.0,0.0,0.0,0.0,0.0,0.0,0.0,0.0,0.0,0.0,0.0,0.0,0.0,0.0,0.0,0.0,0.0,0.0,0.0,0.0,0.0,0.0,0.0,0.0,0.0,0.0,0.0,0.0,0.0,0.0,0.0,0.0,0.0,0.0,0.0,0.0,0.0,0.0,0.0,0.0,0.0,0.0,0.0,0.0,0.0,0.0,0.0,0.0,0.0,0.0,0.0,0.0,0.0,0.0,0.0,0.0,0.0,0.0,0.0,0.0,0.0,0.0,0.0,0.0,0.0,0.0,0.0,0.0,0.0,0.0,0.0,0.0,0.0,0.0,0.0,0.0,0.0,0.0,0.0,0.0,0.0,0.0,0.0,0.0,0.0,0.0,0.0,0.0,0.0,0.0,0.0,0.0,0.0,0.0,0.0,0.0,0.0,0.0,0.0,0.0,0.0,0.0,0.0,0.0,0.0,0.0,0.0,0.0,0.0,0.0,0.0,0.0,0.0,0.0,0.0,0.0,0.0,0.0,0.0,0.0,0.0,0.0,0.0,0.0,0.0,0.0,0.0,0.0,0.0,0.0,0.0,0.0,0.0,0.0,0.0,0.0,0.0,0.0,0.0,0.0,0.0,0.0,0.0,0.0,0.0,0.0,0.0,0.0,0.0,0.0,0.0,0.0,0.0,0.0,0.0,0.0,0.0,0.0,0.0,0.0,0.0,0.0,0.0,0.0,0.0,0.0,0.0,0.0,0.0,0.0,0.0,0.0,0.0,0.0,0.0,0.0,0.0,0.0,0.0,0.0,0.0,0.0,0.0,0.0,0.0,0.0,0.0,0.0,0.0,0.0,0.0,0.0,0.0,0.0,0.0,0.0,0.0,0.0,0.0,0.0,0.0,0.0,0.0,0.0,0.0,0.0,0.0,0.0,0.0,0.0,0.0,0.0,0.0,0.0,0.0,0.0,0.0,0.0,0.0,0.0,0.0,0.0,0.0,0.0,0.0,0.0,0.0,0.0,0.0,0.0,0.0,0.0,0.0,0.0,0.0,0.0,0.0,0.0,0.0,0.0,0.0,0.0,0.0,0.0,0.0,0.0,0.0,0.0,0.0,0.0,0.0,0.0,0.0,0.0,0.0,0.0,0.0,0.0,0.0,0.0,0.0,0.0,0.0,0.0,0.0,0.0,0.0,0.0,0.0,0.0,0.0,0.0,0.0,0.0,0.0,0.0,0.0,0.0,0.0,0.0,0.0,0.0,0.0,0.0,0.0,0.0,0.0,0.0,0.0,0.0,0.0,0.0,0.0,0.0,0.0,0.0,0.0,0.0,0.0,0.0,0.0,0.0,0.0,0.0,0.0,0.0,0.0,0.0,0.0,0.0,0.0,0.0,0.0,0.0,0.0,0.0,0.0,0.0,0.0,0.0,0.0,0.0,0.0,0.0,0.0,0.0,0.0,0.0,0.0,0.0,0.0,0.0,0.0,0.0,0.0,0.0,0.0,0.0,0.0,0.0,0.0,0.0,0.0,0.0,0.0,0.0,0.0,0.0,0.0,0.0,0.0,0.0,0.0,0.0,0.0,0.0,0.0,0.0,0.0,0.0,0.0,0.0,0.0,0.0,0.0,0.0,0.0,0.0,0.0,0.0,0.0,0.0,0.0,0.0,0.0,0.0,0.0,0.0,0.0,0.0,0.0,0.0,0.0,0.0,0.0,0.0,0.0,0.0,0.0,0.0,0.0,0.0,0.0,0.0,0.0,0.0,0.0,0.0,0.0,0.0,0.0,0.0,0.0,0.0,0.0,0.0,0.0,0.0,0.0,0.0,0.0,0.0,0.0,0.0,0.0,0.0,0.0,0.0,0.0,0.0,0.0,0.0,0.0,0.0,0.0,0.0,0.0,0.0,0.0,0.0,0.0,0.0,0.0,0.0,0.0,0.0,0.0,0.0,0.0,0.0,0.0,0.0,0.0,0.0,0.0,0.0,0.0,0.0,0.0,0.0,0.0,0.0,0.0,0.0,0.0,0.0,0.0,0.0,0.0,0.0,0.0,0.0,0.0,0.0,0.0,0.0,0.0,0.0,0.0,0.0,0.0,0.0,0.0,0.0,0.0,0.0,0.0,0.0,0.0,0.0,0.0,0.0,0.0,0.0,0.0,0.0,0.0,0.0,0.0,0.0,0.0,0.0,0.0,0.0,0.0,0.0,0.0,0.0,0.0,0.0,0.0,0.0,0.0,0.0,0.0,0.0,0.0,0.0,0.0,0.0,0.0,0.0,0.0,0.0,0.0,0.0,0.0,0.0,0.0,0.0,0.0,0.0,0.0,0.0,0.0,0.0,0.0,0.0,0.0,0.0,0.0,0.0,0.0,0.0,0.0,0.0,0.0,0.0,0.0,0.0,0.0,0.0,0.0,0.0,0.0,0.0,0.0,0.0,0.0,0.0,0.0,0.0,0.0,0.0,0.0,0.0,0.0,0.0,0.0,0.0,0.0,0.0,0.0,0.0,0.0,0.0,0.0,0.0,0.0,0.0,0.0,0.0,0.0,0.0,0.0,0.0,0.0,0.0,0.0,0.0,0.0,0.0,0.0,0.0,0.0,0.0,0.0,0.0,0.0,0.0,0.0,0.0,0.0,0.0,0.0,0.0,0.0,0.0,0.0,0.0,0.0,0.0,0.0,0.0,0.0,0.0,0.0,0.0,0.0,0.0,0.0,0.0,0.0,0.0,0.0,0.0,0.0,0.0,0.0,0.0,0.0,0.0,0.0,0.0,0.0,0.0,0.0,0.0,0.0,0.0,0.0,0.0,0.0,0.0,0.0,0.0,0.0,0.0,0.0,0.0,0.0,0.0,0.0,0.0,0.0,0.0,0.0,0.0,0.0,0.0,0.0,0.0,0.0,0.0,0.0,0.0,0.0,0.0,0.0,0.0,0.0,0.0,0.0,0.0,0.0,0.0,0.0,0.0,0.0,0.0,0.0,0.0,0.0,0.0,0.0,0.0,0.0,0.0,0.0,0.0,0.0,0.0,0.0,0.0,0.0,0.0,0.0,0.0,0.0,0.0,0.0,0.0,0.0,0.0,0.0,0.0,0.0,0.0,0.0,0.0,0.0,0.0,0.0,0.0,0.0,0.0,0.0,0.0,0.0,0.0,0.0,0.0,0.0,0.0,0.0,0.0,0.0,0.0,0.0,0.0,0.0,0.0,0.0,0.0,0.0,0.0,0.0,0.0,0.0,0.0,0.0,0.0,0.0,0.0,0.0,0.0,0.0,0.0,0.0,0.0,0.0,0.0,0.0,0.0,0.0,0.0,0.0,0.0,0.0,0.0,0.0,0.0,0.0,0.0,0.0,0.0,0.0,0.0,0.0,0.0,0.0,0.0,0.0,0.0,0.0,0.0,0.0,0.0,0.0,0.0,0.0,0.0,0.0,0.0,0.0,0.0,0.0,0.0,0.0,0.0,0.0,0.0,0.0,0.0,0.0,0.0,0.0,0.0,0.0,0.0,0.0,0.0,0.0,0.0,0.0,0.0,0.0,0.0,0.0,0.0,0.0,0.0,0.0,0.0,0.0,0.0,0.0,0.0,0.0,0.0,0.0,0.0,0.0,0.0,0.0,0.0,0.0,0.0,0.0,0.0,0.0,0.0,0.0,0.0,0.0,0.0,0.0,0.0,0.0,0.0,0.0,0.0,0.0,0.0,0.0,0.0,0.0,0.0,0.0,0.0,0.0,0.0,0.0,0.0,0.0,0.0,0.0,0.0,0.0,0.0,0.0,0.0,0.0,0.0,0.0,0.0,0.0,0.0,0.0,0.0,0.0,0.0,0.0,0.0,0.0,0.0,0.0,0.0,0.0,0.0,0.0,0.0,0.0,0.0,0.0,0.0,0.0,0.0,0.0,0.0,0.0,0.0,0.0,0.0,0.0,0.0,0.0,0.0,0.0,0.0,0.0,0.0,0.0,0.0,0.0,0.0,0.0,0.0,0.0,0.0,0.0,0.0,0.0,0.0,0.0,0.0,0.0,0.0,0.0,0.0,0.0,0.0,0.0,0.0,0.0,0.0,0.0,0.0,0.0,2.1015,0.0,0.0,0.0,0.0,0.0,0.0,0.0,0.0,0.0,0.0,0.0,0.0,0.0,0.0,0.0,0.0,0.0,0.0,0.0,0.0,0.0,0.0,0.0,0.0,0.0,0.0,0.0,0.0,0.0,0.0,0.0,0.0,0.0,0.0,0.0,0.0,0.0,0.0,0.0,0.0,0.0,0.0,0.0,0.0,0.0,0.0,0.0,0.0,0.0,0.0,0.0,0.0,0.0,0.0,0.0,0.0,0.0,0.0,0.0,0.0,0.0,0.0,0.0,0.0,0.0,0.0,0.0,0.0,0.0,0.0,0.0,0.0,0.0,0.0,0.0,0.0,0.0,0.0,0.0,0.0,0.0,0.0,0.0,0.0,0.0,0.0,0.0,0.0,0.0,0.0,0.0,0.0,0.0,0.0,0.0,0.0,0.0,0.0,0.0,0.0,0.0,0.0,0.0,0.0,0.0,0.0,0.0,0.0,0.0,0.0,2.2684,2.2673,2.1974,2.1518,2.1254,0.0,0.0,0.0,0.0,0.0,0.0,0.0,0.0,0.0,0.0,0.0,0.0,0.0,0.0,0.0,0.0,0.0,0.0,0.0,0.0,0.0,0.0,0.0,0.0,0.0,0.0,0.0,0.0,0.0,0.0,0.0,0.0,0.0,0.0,0.0,0.0,0.0,0.0,0.0,0.0,0.0,0.0,0.0,0.0,0.0,0.0,0.0,0.0,0.0,0.0,0.0,0.0,0.0,0.0,0.0,0.0,0.0,0.0,0.0,0.0,0.0,0.0,0.0,0.0,0.0,0.0,0.0,0.0,0.0,0.0,0.0,0.0,0.0,0.0,0.0,0.0,0.0,0.0,0.0,0.0,0.0,0.0,0.0,0.0,0.0,0.0,0.0,0.0,0.0,0.0,0.0,0.0,0.0,0.0,0.0,0.0,0.0,0.0,0.0,0.0,0.0,0.0,0.0,0.0,0.0,0.0,0.0,0.0,0.0,0.0,0.0,0.0,2.2193,2.1647,2.1441,0.0,0.0,0.0,0.0,0.0,0.0,0.0,0.0,0.0,0.0,0.0,0.0,0.0,0.0,0.0,0.0,0.0,0.0,0.0,0.0,0.0,0.0,0.0,0.0,0.0,0.0,0.0,0.0,0.0,0.0,0.0,0.0,0.0,0.0,0.0,0.0,0.0,0.0,0.0,0.0,0.0,0.0,0.0,0.0,0.0,0.0,0.0,0.0,0.0,0.0,0.0,0.0,0.0,0.0,0.0,0.0,0.0,0.0,0.0,0.0,0.0,0.0,0.0,0.0,0.0,0.0,0.0,0.0,0.0,0.0,0.0,0.0,0.0,0.0,0.0,0.0,0.0,0.0,0.0,0.0,0.0,0.0,0.0,0.0,0.0,0.0,0.0,0.0,0.0,0.0,0.0,0.0,0.0,0.0,0.0,0.0,0.0,0.0,0.0,0.0,0.0,0.0,0.0,0.0,0.0,0.0,0.0,0.0,0.0,0.0,2.3001,2.299,2.251,0.0,2.1025,0.0,0.0,0.0,0.0,0.0,0.0,0.0,0.0,0.0,0.0,0.0,0.0,0.0,0.0,0.0,0.0,0.0,0.0,0.0,0.0,0.0,0.0,0.0,0.0,0.0,0.0,0.0,0.0,0.0,0.0,0.0,0.0,0.0,0.0,0.0,0.0,0.0,0.0,0.0,0.0,0.0,0.0,0.0,0.0,0.0,0.0,0.0,0.0,0.0,0.0,0.0,0.0,0.0,0.0,0.0,0.0,0.0,0.0,0.0,0.0,0.0,0.0,0.0,0.0,0.0,0.0,0.0,0.0,0.0,0.0,0.0,0.0,0.0,0.0,0.0,0.0,0.0,0.0,0.0,0.0,0.0,0.0,0.0,0.0,0.0,0.0,0.0,0.0,0.0,0.0,0.0,0.0,0.0,0.0,0.0,0.0,0.0,0.0,0.0,0.0,0.0,0.0,0.0,0.0,0.0,0.0,0.0,0.0,0.0,0.0,2.3001,2.3001,2.228,2.1594,0.0,0.0,0.0,0.0,0.0,0.0,0.0,0.0,0.0,0.0,0.0,0.0,0.0,0.0,0.0,0.0,0.0,0.0,0.0,0.0,0.0,0.0,0.0,0.0,0.0,0.0,0.0,0.0,0.0,0.0,0.0,0.0,0.0,0.0,0.0,0.0,0.0,0.0,0.0,0.0,0.0,0.0,0.0,0.0,0.0,0.0,0.0,0.0,0.0,0.0,0.0,0.0,0.0,0.0,0.0,0.0,0.0,0.0,0.0,0.0,0.0,0.0,0.0,0.0,0.0,0.0,0.0,0.0,0.0,0.0,0.0,0.0,0.0,0.0,0.0,0.0,0.0,0.0,0.0,0.0,0.0,0.0,0.0,0.0,0.0,0.0,0.0,0.0,0.0,0.0,0.0,0.0,0.0,0.0,0.0,0.0,0.0,0.0,0.0,0.0,0.0,0.0,0.0,0.0,0.0,0.0,0.0,0.0,0.0,0.0,2.315,2.2936,2.2805,2.2269,2.166,2.0916,0.0,0.0,0.0,0.0,0.0,0.0,0.0,0.0,0.0,0.0,0.0,0.0,0.0,0.0,0.0,0.0,0.0,0.0,0.0,0.0,0.0,0.0,0.0,0.0,0.0,0.0,0.0,0.0,0.0,0.0,0.0,0.0,0.0,0.0,0.0,0.0,0.0,0.0,0.0,0.0,0.0,0.0,0.0,0.0,0.0,0.0,0.0,0.0,0.0,0.0,0.0,0.0,0.0,0.0,0.0,0.0,0.0,0.0,0.0,0.0,0.0,0.0,0.0,0.0,0.0,0.0,0.0,0.0,0.0,0.0,0.0,0.0,0.0,0.0,0.0,0.0,0.0,0.0,0.0,0.0,0.0,0.0,0.0,0.0,0.0,0.0,0.0,0.0,0.0,0.0,0.0,0.0,0.0,0.0,0.0,0.0,0.0,0.0,0.0,0.0,0.0,0.0,0.0,0.0,0.0,0.0,0.0,0.0,0.0,2.3224,2.2794,2.239,2.2717,2.228,0.0,0.0,0.0,0.0,0.0,0.0,0.0,0.0,0.0,0.0,0.0,0.0,0.0,0.0,0.0,0.0,0.0,0.0,0.0,0.0,0.0,0.0,0.0,0.0,0.0,0.0,0.0,0.0,0.0,0.0,0.0,0.0,0.0,0.0,0.0,0.0,0.0,0.0,0.0,0.0,0.0,0.0,0.0,0.0,0.0,0.0,0.0,0.0,0.0,0.0,0.0,0.0,0.0,0.0,0.0,0.0,0.0,0.0,0.0,0.0,0.0,0.0,0.0,0.0,0.0,0.0,0.0,0.0,0.0,0.0,0.0,0.0,0.0,0.0,0.0,0.0,0.0,0.0,0.0,0.0,0.0,0.0,0.0,0.0,0.0,0.0,0.0,0.0,0.0,0.0,0.0,0.0,0.0,0.0,0.0,0.0,0.0,0.0,0.0,0.0,0.0,0.0,0.0,0.0,0.0,0.0,0.0,0.0,0.0,2.3604,2.3213,2.2925,2.275,2.2335,2.1854,0.0,0.0,0.0,0.0,0.0,0.0,0.0,0.0,0.0,0.0,0.0,0.0,0.0,0.0,0.0,0.0,0.0,0.0,0.0,0.0,0.0,0.0,0.0,0.0,0.0,0.0,0.0,0.0,0.0,0.0,0.0,0.0,0.0,0.0,0.0,0.0,0.0,0.0,0.0,0.0,0.0,0.0,0.0,0.0,0.0,0.0,0.0,0.0,0.0,0.0,0.0,0.0,0.0,0.0,0.0,0.0,0.0,0.0,0.0,0.0,0.0,0.0,0.0,0.0,0.0,0.0,0.0,0.0,0.0,0.0,0.0,0.0,0.0,0.0,0.0,0.0,0.0,0.0,0.0,0.0,0.0,0.0,0.0,0.0,0.0,0.0,0.0,0.0,0.0,0.0,0.0,0.0,0.0,0.0,0.0,0.0,0.0,0.0,0.0,0.0,0.0,0.0,0.0,0.0,0.0,0.0,0.0,0.0,0.0,2.3604,0.0,2.3044,0.0,2.2119,2.1614,0.0,0.0,0.0,0.0,0.0,0.0,0.0,0.0,0.0,0.0,0.0,0.0,0.0,0.0,0.0,0.0,0.0,0.0,0.0,0.0,0.0,0.0,0.0,0.0,0.0,0.0,0.0,0.0,0.0,0.0,0.0,0.0,0.0,0.0,0.0,0.0,0.0,0.0,0.0,0.0,0.0,0.0,0.0,0.0,0.0,0.0,0.0,0.0,0.0,0.0,0.0,0.0,0.0,0.0,0.0,0.0,0.0,0.0,0.0,0.0,0.0,0.0,0.0,0.0,0.0,0.0,0.0,0.0,0.0,0.0,0.0,0.0,0.0,0.0,0.0,0.0,0.0,0.0,0.0,0.0,0.0,0.0,0.0,0.0,0.0,0.0,0.0,0.0,0.0,0.0,0.0,0.0,0.0,0.0,0.0,0.0,0.0,0.0,0.0,0.0,0.0,0.0,0.0,0.0,0.0,0.0,0.0,0.0,2.42,2.3629,2.3593,2.3081,2.1994,2.218,2.1601,0.0,0.0,0.0,0.0,0.0,0.0,0.0,0.0,0.0,0.0,0.0,0.0,0.0,0.0,0.0,0.0,0.0,0.0,0.0,0.0,0.0,0.0,0.0,0.0,0.0,0.0,0.0,0.0,0.0,0.0,0.0,0.0,0.0,0.0,0.0,0.0,0.0,0.0,0.0,0.0,0.0,0.0,0.0,0.0,0.0,0.0,0.0,0.0,0.0,0.0,0.0,0.0,0.0,0.0,0.0,0.0,0.0,0.0,0.0,0.0,0.0,0.0,0.0,0.0,0.0,0.0,0.0,0.0,0.0,0.0,0.0,0.0,0.0,0.0,0.0,0.0,0.0,0.0,0.0,0.0,0.0,0.0,0.0,0.0,0.0,0.0,0.0,0.0,0.0,0.0,0.0,0.0,0.0,0.0,0.0,0.0,0.0,0.0,0.0,0.0,0.0,0.0,0.0,0.0,0.0,0.0,0.0,0.0,0.0,2.3111,2.3279,2.3368,2.3342,2.2366,2.1767,0.0,0.0,0.0,0.0,0.0,0.0,0.0,0.0,0.0,0.0,0.0,0.0,0.0,0.0,0.0,0.0,0.0,0.0,0.0,0.0,0.0,0.0,0.0,0.0,0.0,0.0,0.0,0.0,0.0,0.0,0.0,0.0,0.0,0.0,0.0,0.0,0.0,0.0,0.0,0.0,0.0,0.0,0.0,0.0,0.0,0.0,0.0,0.0,0.0,0.0,0.0,0.0,0.0,0.0,0.0,0.0,0.0,0.0,0.0,0.0,0.0,0.0,0.0,0.0,0.0,0.0,0.0,0.0,0.0,0.0,0.0,0.0,0.0,0.0,0.0,0.0,0.0,0.0,0.0,0.0,0.0,0.0,0.0,0.0,0.0,0.0,0.0,0.0,0.0,0.0,0.0,0.0,0.0,0.0,0.0,0.0,0.0,0.0,0.0,0.0,0.0,0.0,0.0,0.0,0.0,0.0,0.0,0.0,0.0,2.403,2.3852,2.3742,2.3762,2.2495,2.1822,2.1745,0.0,0.0,0.0,0.0,0.0,0.0,0.0,0.0,0.0,0.0,0.0,0.0,0.0,0.0,0.0,0.0,0.0,0.0,0.0,0.0,0.0,0.0,0.0,0.0,0.0,0.0,0.0,0.0,0.0,0.0,0.0,0.0,0.0,0.0,0.0,0.0,0.0,0.0,0.0,0.0,0.0,0.0,0.0,0.0,0.0,0.0,0.0,0.0,0.0,0.0,0.0,0.0,0.0,0.0,0.0,0.0,0.0,0.0,0.0,0.0,0.0,0.0,0.0,0.0,0.0,0.0,0.0,0.0,0.0,0.0,0.0,0.0,0.0,0.0,0.0,0.0,0.0,0.0,0.0,0.0,0.0,0.0,0.0,0.0,0.0,0.0,0.0,0.0,0.0,0.0,0.0,0.0,0.0,0.0,0.0,0.0,0.0,0.0,0.0,0.0,0.0,0.0,0.0,0.0,0.0,0.0,0.0,0.0,2.6116,2.5223,2.4374,2.3545,2.2772,2.192,0.0,0.0,0.0,0.0,0.0,0.0,0.0,0.0,0.0,0.0,0.0,0.0,0.0,0.0,0.0,0.0,0.0,0.0,0.0,0.0,0.0,0.0,0.0,0.0,0.0,0.0,0.0,0.0,0.0,0.0,0.0,0.0,0.0,0.0,0.0,0.0,0.0,0.0,0.0,0.0,0.0,0.0,0.0,0.0,0.0,0.0,0.0,0.0,0.0,0.0,0.0,0.0,0.0,0.0,0.0,0.0,0.0,0.0,0.0,0.0,0.0,0.0,0.0,0.0,0.0,0.0,0.0,0.0,0.0,0.0,0.0,0.0,0.0,0.0,0.0,0.0,0.0,0.0,0.0,0.0,0.0,0.0,0.0,0.0,0.0,0.0,0.0,0.0,0.0,0.0,0.0,0.0,0.0,0.0,0.0,0.0,0.0,0.0,0.0,0.0,0.0,0.0,0.0,0.0,0.0,0.0,0.0,0.0,0.0,2.7711,2.7146,2.6474,2.5726,2.3825,2.2706,0.0,0.0,0.0,0.0,0.0,0.0,0.0,0.0,0.0,0.0,0.0,0.0,0.0,0.0,0.0,0.0,0.0,0.0,0.0,0.0,0.0,0.0,0.0,0.0,0.0,0.0,0.0,0.0,0.0,0.0,0.0,0.0,0.0,0.0,0.0,0.0,0.0,0.0,0.0,0.0,0.0,0.0,0.0,0.0,0.0,0.0,0.0,0.0,0.0,0.0,0.0,0.0,0.0,0.0,0.0,0.0,0.0,0.0,0.0,0.0,0.0,0.0,0.0,0.0,0.0,0.0,0.0,0.0,0.0,0.0,0.0,0.0,0.0,0.0,0.0,0.0,0.0,0.0,0.0,0.0,0.0,0.0,0.0,0.0,0.0,0.0,0.0,0.0,0.0,0.0,0.0,0.0,0.0,0.0,0.0,0.0,0.0,0.0,0.0,0.0,0.0,0.0,0.0,0.0,0.0,0.0,0.0,0.0,2.8088,2.9309,2.9005,2.8556,2.7991,2.5405,2.3814,0.0,0.0,0.0,0.0,0.0,0.0,0.0,0.0,0.0,0.0,0.0,0.0,0.0,0.0,0.0,0.0,0.0,0.0,0.0,0.0,0.0,0.0,0.0,0.0,0.0,0.0,0.0,0.0,0.0,0.0,0.0,0.0,0.0,0.0,0.0,0.0,0.0,0.0,0.0,0.0,0.0,0.0,0.0,0.0,0.0,0.0,0.0,0.0,0.0,0.0,0.0,0.0,0.0,0.0,0.0,0.0,0.0,0.0,0.0,0.0,0.0,0.0,0.0,0.0,0.0,0.0,0.0,0.0,0.0,0.0,0.0,0.0,0.0,0.0,0.0,0.0,0.0,0.0,0.0,0.0,0.0,0.0,0.0,0.0,0.0,0.0,0.0,0.0,0.0,0.0,0.0,0.0,0.0,0.0,0.0,0.0,0.0,0.0,0.0,0.0,0.0,0.0,0.0,0.0,0.0,0.0,0.0,0.0,2.9526,3.0815,3.0647,3.0337,2.9896,2.7201,2.5139,0.0,0.0,0.0,0.0,0.0,0.0,0.0,0.0,0.0,0.0,0.0,0.0,0.0,0.0,0.0,0.0,0.0,0.0,0.0,0.0,0.0,0.0,0.0,0.0,0.0,0.0,0.0,0.0,0.0,0.0,0.0,0.0,0.0,0.0,0.0,0.0,0.0,0.0,0.0,0.0,0.0,0.0,0.0,0.0,0.0,0.0,0.0,0.0,0.0,0.0,0.0,0.0,0.0,0.0,0.0,0.0,0.0,0.0,0.0,0.0,0.0,0.0,0.0,0.0,0.0,0.0,0.0,0.0,0.0,0.0,0.0,0.0,0.0,0.0,0.0,0.0,0.0,0.0,0.0,0.0,0.0,0.0,0.0,0.0,0.0,0.0,0.0,0.0,0.0,0.0,0.0,0.0,0.0,0.0,0.0,0.0,0.0,0.0,0.0,0.0,0.0,0.0,0.0,0.0,0.0,0.0,0.0,0.0,3.0613,3.206,3.1283,3.0643,3.0359,2.8106,2.636,0.0,0.0,0.0,0.0,0.0,0.0,0.0,0.0,0.0,0.0,0.0,0.0,0.0,0.0,0.0,0.0,0.0,0.0,0.0,0.0,0.0,0.0,0.0,0.0,0.0,0.0,0.0,0.0,0.0,0.0,0.0,0.0,0.0,0.0,0.0,0.0,0.0,0.0,0.0,0.0,0.0,0.0,0.0,0.0,0.0,0.0,0.0,0.0,2.8451,0.0,0.0,0.0,0.0,0.0,0.0,0.0,0.0,0.0,0.0,0.0,0.0,0.0,0.0,0.0,0.0,0.0,0.0,0.0,0.0,0.0,0.0,0.0,0.0,0.0,0.0,0.0,0.0,0.0,0.0,0.0,0.0,0.0,0.0,0.0,0.0,0.0,0.0,0.0,0.0,0.0,0.0,0.0,0.0,0.0,0.0,0.0,0.0,0.0,0.0,0.0,0.0,0.0,0.0,0.0,0.0,0.0,0.0,0.0,3.087,3.211,3.1895,3.1517,3.1041,2.9491,2.7853,0.0,0.0,0.0,0.0,0.0,0.0,0.0,0.0,0.0,0.0,0.0,0.0,0.0,0.0,0.0,0.0,0.0,0.0,0.0,0.0,0.0,0.0,0.0,0.0,0.0,0.0,0.0,0.0,0.0,0.0,0.0,0.0,0.0,0.0,0.0,0.0,0.0,0.0,0.0,0.0,0.0,0.0,0.0,0.0,0.0,0.0,0.0,0.0,0.0,0.0,0.0,0.0,0.0,0.0,0.0,0.0,0.0,0.0,0.0,0.0,0.0,0.0,0.0,0.0,0.0,0.0,0.0,0.0,0.0,0.0,0.0,0.0,0.0,0.0,0.0,0.0,0.0,0.0,0.0,0.0,0.0,0.0,0.0,0.0,0.0,0.0,0.0,0.0,0.0,0.0,0.0,0.0,0.0,0.0,0.0,0.0,0.0,0.0,0.0,0.0,0.0,0.0,0.0,0.0,0.0,0.0,0.0,3.0118,3.0838,3.1911,3.2333,3.2276,3.1693,3.0723,2.9284,2.7376,0.0,0.0,0.0,0.0,0.0,0.0,0.0,0.0,0.0,0.0,0.0,0.0,0.0,0.0,0.0,0.0,0.0,0.0,0.0,0.0,0.0,0.0,0.0,0.0,0.0,0.0,0.0,0.0,0.0,0.0,0.0,0.0,0.0,0.0,0.0,0.0,0.0,0.0,2.8845,2.9339,0.0,0.0,0.0,0.0,0.0,0.0,0.0,0.0,2.8248,0.0,0.0,0.0,0.0,0.0,0.0,0.0,0.0,0.0,0.0,0.0,0.0,0.0,0.0,0.0,0.0,0.0,0.0,0.0,0.0,0.0,0.0,0.0,0.0,0.0,0.0,0.0,0.0,0.0,0.0,0.0,0.0,0.0,0.0,0.0,0.0,0.0,0.0,0.0,0.0,0.0,0.0,0.0,0.0,0.0,0.0,0.0,0.0,0.0,0.0,0.0,0.0,0.0,0.0,0.0,0.0,3.1626,3.0723,3.0996,3.2494,3.2096,3.1793,3.1693,3.1115,2.9959,2.8371,0.0,0.0,0.0,0.0,0.0,0.0,0.0,0.0,0.0,0.0,0.0,0.0,0.0,0.0,0.0,0.0,0.0,0.0,0.0,0.0,0.0,0.0,0.0,0.0,0.0,0.0,0.0,0.0,0.0,0.0,0.0,0.0,0.0,0.0,0.0,0.0,0.0,0.0,0.0,3.0188,3.0256,0.0,0.0,0.0,0.0,0.0,0.0,0.0,0.0,2.8003,0.0,0.0,0.0,0.0,0.0,0.0,0.0,0.0,0.0,0.0,0.0,0.0,0.0,0.0,0.0,0.0,0.0,0.0,0.0,0.0,0.0,0.0,0.0,0.0,0.0,0.0,0.0,0.0,0.0,0.0,0.0,0.0,0.0,0.0,0.0,0.0,0.0,0.0,0.0,0.0,0.0,0.0,0.0,0.0,0.0,0.0,0.0,0.0,0.0,0.0,0.0,0.0,0.0,0.0,0.0,3.1021,3.1125,3.1772,3.3122,3.2581,3.2232,3.2208,3.1155,2.9914,0.0,0.0,0.0,0.0,0.0,0.0,0.0,0.0,0.0,0.0,0.0,0.0,0.0,0.0,0.0,0.0,0.0,0.0,0.0,0.0,0.0,0.0,0.0,0.0,0.0,0.0,0.0,0.0,0.0,0.0,0.0,0.0,0.0,0.0,0.0,0.0,0.0,0.0,0.0,0.0,3.0663,3.0866,3.088,0.0,0.0,0.0,0.0,0.0,0.0,2.8329,2.8153,0.0,0.0,0.0,0.0,0.0,0.0,0.0,0.0,0.0,0.0,0.0,0.0,0.0,0.0,0.0,0.0,0.0,0.0,0.0,0.0,0.0,0.0,0.0,0.0,0.0,0.0,0.0,0.0,0.0,0.0,0.0,0.0,0.0,0.0,0.0,0.0,0.0,0.0,0.0,0.0,0.0,0.0,0.0,0.0,0.0,0.0,0.0,0.0,0.0,0.0,0.0,0.0,0.0,0.0,0.0,3.0305,3.1398,3.2508,3.3602,3.3172,3.2884,3.2859,3.1667,3.0285,0.0,0.0,0.0,0.0,0.0,0.0,0.0,0.0,0.0,0.0,0.0,0.0,0.0,0.0,0.0,0.0,0.0,0.0,0.0,0.0,0.0,0.0,0.0,0.0,0.0,0.0,0.0,0.0,0.0,0.0,0.0,0.0,0.0,0.0,0.0,0.0,0.0,0.0,0.0,0.0,0.0,3.1707,3.1341,3.13,0.0,0.0,0.0,0.0,2.8573,2.8926,0.0,0.0,0.0,0.0,0.0,0.0,0.0,0.0,0.0,0.0,0.0,0.0,0.0,0.0,0.0,0.0,0.0,0.0,0.0,0.0,0.0,0.0,0.0,0.0,0.0,0.0,0.0,0.0,0.0,0.0,0.0,0.0,0.0,0.0,0.0,0.0,0.0,0.0,0.0,0.0,0.0,0.0,0.0,0.0,0.0,0.0,0.0,0.0,0.0,0.0,0.0,0.0,0.0,0.0,0.0,0.0,3.033,3.1483,3.2623,3.3619,3.3628,3.3586,3.3586,3.3394,3.2076,0.0,0.0,0.0,0.0,0.0,0.0,0.0,0.0,0.0,0.0,0.0,0.0,0.0,0.0,0.0,0.0,0.0,0.0,0.0,0.0,0.0,0.0,0.0,0.0,0.0,0.0,0.0,0.0,0.0,0.0,0.0,0.0,0.0,0.0,0.0,0.0,0.0,0.0,0.0,0.0,0.0,3.304,3.1504,3.13,3.1219,0.0,0.0,3.1042,3.0893,3.1368,0.0,0.0,0.0,0.0,0.0,0.0,0.0,0.0,0.0,0.0,0.0,0.0,0.0,0.0,0.0,0.0,0.0,0.0,0.0,0.0,0.0,0.0,0.0,0.0,0.0,0.0,0.0,0.0,0.0,0.0,0.0,0.0,0.0,0.0,0.0,0.0,0.0,0.0,0.0,0.0,0.0,0.0,0.0,0.0,0.0,0.0,0.0,0.0,0.0,0.0,0.0,0.0,0.0,0.0,0.0,3.0598,3.141,3.283,3.3984,3.4772,3.4468,3.4259,3.4246,3.3349,3.1772,0.0,0.0,0.0,0.0,0.0,0.0,0.0,0.0,0.0,0.0,0.0,0.0,0.0,0.0,0.0,0.0,0.0,0.0,0.0,0.0,0.0,0.0,0.0,0.0,0.0,0.0,0.0,0.0,0.0,0.0,0.0,0.0,0.0,0.0,0.0,0.0,0.0,0.0,0.0,0.0,0.0,0.0,3.2395,3.2341,0.0,0.0,0.0,3.2096,3.1395,0.0,0.0,0.0,0.0,0.0,0.0,0.0,0.0,0.0,0.0,0.0,0.0,0.0,0.0,0.0,0.0,0.0,0.0,0.0,0.0,0.0,0.0,0.0,0.0,0.0,0.0,0.0,0.0,0.0,0.0,0.0,0.0,0.0,0.0,0.0,0.0,0.0,0.0,0.0,0.0,0.0,0.0,0.0,0.0,0.0,0.0,0.0,0.0,0.0,0.0,0.0,0.0,0.0,0.0,0.0,0.0,0.0,3.2485,3.4332,3.5535,3.5991,3.5494,3.5168,3.5114,3.3699,0.0,0.0,0.0,0.0,0.0,0.0,0.0,0.0,0.0,0.0,0.0,0.0,0.0,0.0,0.0,0.0,0.0,0.0,0.0,0.0,0.0,0.0,0.0,0.0,0.0,0.0,0.0,2.7026,0.0,0.0,0.0,0.0,0.0,0.0,0.0,0.0,0.0,0.0,0.0,0.0,0.0,0.0,3.3399,3.3577,3.3741,3.3782,0.0,0.0,3.3349,3.2427,3.321,3.3237,0.0,0.0,0.0,0.0,0.0,0.0,0.0,0.0,0.0,0.0,0.0,0.0,0.0,0.0,0.0,0.0,0.0,0.0,0.0,0.0,0.0,0.0,0.0,0.0,0.0,0.0,0.0,0.0,0.0,0.0,0.0,0.0,0.0,0.0,0.0,0.0,0.0,0.0,0.0,0.0,0.0,0.0,0.0,0.0,0.0,0.0,0.0,0.0,0.0,0.0,0.0,0.0,0.0,0.0,0.0,3.3319,3.5601,3.6822,3.69,3.6665,3.6482,3.6258,3.5454,3.3571,0.0,0.0,0.0,0.0,0.0,0.0,0.0,0.0,0.0,0.0,0.0,0.0,0.0,0.0,0.0,0.0,0.0,0.0,0.0,0.0,0.0,0.0,0.0,0.0,0.0,0.0,0.0,0.0,0.0,0.0,0.0,0.0,0.0,0.0,0.0,0.0,0.0,0.0,0.0,0.0,0.0,3.5573,3.5129,3.5536,3.6217,0.0,3.6124,3.5184,3.4986,3.5734,3.5194,3.1789,0.0,0.0,0.0,0.0,0.0,0.0,0.0,0.0,0.0,0.0,0.0,0.0,0.0,0.0,0.0,0.0,0.0,0.0,0.0,0.0,0.0,0.0,0.0,0.0,0.0,0.0,0.0,0.0,0.0,0.0,0.0,0.0,0.0,0.0,0.0,0.0,0.0,0.0,0.0,0.0,0.0,0.0,0.0,0.0,0.0,0.0,0.0,0.0,0.0,0.0,0.0,0.0,0.0,3.3304,3.3333,3.5766,3.6978,3.6978,3.69,3.6861,3.6758,3.6094,3.4469,0.0,0.0,0.0,0.0,0.0,0.0,0.0,0.0,0.0,0.0,0.0,0.0,0.0,0.0,0.0,0.0,0.0,0.0,0.0,0.0,0.0,0.0,0.0,0.0,0.0,0.0,0.0,0.0,2.8825,2.9246,2.9464,0.0,0.0,0.0,0.0,0.0,0.0,0.0,0.0,0.0,0.0,3.5384,3.6197,3.6188,0.0,0.0,3.678,3.6395,3.6328,3.6177,3.5347,3.3115,3.2061,0.0,0.0,0.0,0.0,0.0,0.0,0.0,0.0,0.0,0.0,0.0,0.0,0.0,0.0,0.0,0.0,0.0,0.0,0.0,0.0,0.0,0.0,0.0,0.0,0.0,0.0,0.0,0.0,0.0,0.0,0.0,0.0,0.0,0.0,0.0,0.0,0.0,0.0,0.0,0.0,0.0,0.0,0.0,0.0,0.0,0.0,0.0,0.0,0.0,0.0,0.0,0.0,3.3717,3.3951,3.6187,3.7366,3.738,3.7303,3.7226,3.7173,3.6358,3.4911,0.0,0.0,0.0,0.0,0.0,0.0,0.0,0.0,0.0,0.0,0.0,0.0,0.0,0.0,0.0,0.0,0.0,0.0,0.0,0.0,0.0,0.0,0.0,0.0,0.0,0.0,0.0,0.0,2.9624,3.0104,3.0263,0.0,0.0,0.0,0.0,0.0,0.0,0.0,0.0,0.0,0.0,3.6117,3.7447,3.7319,3.7238,3.7767,3.7438,3.712,3.7106,3.6715,3.5837,3.4112,0.0,0.0,0.0,0.0,0.0,0.0,0.0,0.0,0.0,0.0,0.0,0.0,0.0,0.0,0.0,0.0,0.0,0.0,0.0,0.0,0.0,0.0,0.0,0.0,0.0,0.0,0.0,3.3474,0.0,0.0,3.3402,0.0,0.0,0.0,0.0,0.0,0.0,0.0,0.0,0.0,0.0,0.0,0.0,0.0,0.0,0.0,0.0,0.0,0.0,0.0,0.0,0.0,0.0,3.4685,3.5343,3.7193,3.8165,3.8165,3.8005,3.7777,3.7558,3.6276,3.4844,3.3339,0.0,0.0,0.0,0.0,0.0,0.0,0.0,0.0,0.0,0.0,0.0,0.0,0.0,0.0,0.0,0.0,0.0,0.0,0.0,0.0,0.0,0.0,0.0,0.0,0.0,0.0,2.9668,2.9073,2.9015,0.0,0.0,0.0,0.0,0.0,0.0,0.0,0.0,0.0,0.0,3.6541,3.8339,3.902,3.9122,3.9204,3.9643,3.846,3.7467,3.737,3.7614,3.7021,0.0,0.0,0.0,0.0,0.0,0.0,0.0,0.0,0.0,0.0,0.0,0.0,0.0,0.0,0.0,0.0,0.0,0.0,0.0,0.0,0.0,0.0,0.0,0.0,0.0,0.0,0.0,3.617,3.5372,0.0,0.0,0.0,0.0,0.0,0.0,0.0,0.0,0.0,0.0,0.0,3.6373,3.6968,0.0,0.0,0.0,0.0,0.0,0.0,0.0,0.0,0.0,0.0,0.0,0.0,3.4733,3.545,3.7244,3.8202,3.8202,3.8142,3.8066,3.8014,3.7535,3.6288,3.4117,0.0,0.0,0.0,0.0,0.0,0.0,0.0,0.0,0.0,0.0,0.0,0.0,0.0,0.0,0.0,0.0,0.0,0.0,0.0,0.0,0.0,0.0,0.0,0.0,0.0,3.0959,0.0,0.0,0.0,0.0,0.0,0.0,0.0,0.0,0.0,0.0,0.0,3.4414,3.6112,3.707,3.7984,3.9044,3.9204,3.9383,0.0,0.0,0.0,0.0,0.0,0.0,0.0,0.0,0.0,0.0,0.0,0.0,0.0,0.0,3.721,3.3669,3.3605,3.397,3.3606,0.0,0.0,0.0,0.0,0.0,0.0,0.0,0.0,0.0,0.0,0.0,0.0,0.0,0.0,3.7616,3.7368,3.677,0.0,0.0,0.0,0.0,0.0,0.0,0.0,0.0,3.8294,3.8839,3.8446,3.8966,3.8551,0.0,3.6896,3.5488,0.0,0.0,0.0,0.0,0.0,0.0,0.0,0.0,3.5053,3.5735,3.7346,3.8202,3.8202,3.8202,3.8202,3.8188,3.7781,3.6446,3.4153,3.2266,3.0568,0.0,0.0,0.0,0.0,0.0,0.0,0.0,0.0,0.0,0.0,0.0,0.0,0.0,0.0,0.0,0.0,0.0,0.0,0.0,0.0,0.0,0.0,0.0,3.1453,0.0,0.0,0.0,0.0,0.0,0.0,0.0,0.0,0.0,3.3507,3.4414,3.5706,3.7404,3.7825,3.8347,3.9378,0.0,0.0,0.0,0.0,0.0,0.0,0.0,3.7517,3.7854,3.7453,3.7265,3.777,3.8865,3.9783,3.9856,0.0,0.0,3.6632,3.6289,3.6569,3.646,3.7015,3.7321,3.6707,3.7242,3.7556,0.0,0.0,0.0,0.0,0.0,0.0,0.0,0.0,3.8908,3.9028,0.0,3.784,0.0,0.0,0.0,0.0,3.599,3.8318,0.0,0.0,4.1184,4.169,4.0578,4.0906,4.0506,3.9305,3.9271,3.8269,3.638,3.4564,0.0,0.0,0.0,0.0,0.0,0.0,3.5726,3.6344,3.7564,3.8202,3.8202,3.8202,3.8202,3.8173,3.7012,3.5517,3.3707,3.2948,3.1669,2.9798,2.9653,0.0,0.0,0.0,0.0,0.0,0.0,0.0,0.0,0.0,0.0,0.0,0.0,0.0,0.0,0.0,0.0,0.0,0.0,0.0,0.0,3.1495,0.0,0.0,0.0,0.0,0.0,0.0,0.0,0.0,0.0,0.0,3.4134,3.5414,3.6896,3.8146,0.0,0.0,0.0,0.0,3.9993,3.9417,3.9794,3.9969,3.9417,3.9736,4.0071,4.0129,0.0,0.0,4.2638,4.3255,4.3334,4.2837,4.3132,4.3123,4.1168,4.011,3.9834,4.0434,3.9629,3.8997,3.9471,3.9677,3.9503,4.3387,0.0,0.0,0.0,0.0,4.1492,4.1807,4.242,4.2269,4.1808,4.1101,4.0633,0.0,0.0,0.0,0.0,0.0,0.0,3.9879,4.0294,4.1371,4.1685,4.1361,4.1953,4.1806,4.0989,4.0989,4.0226,3.8811,3.7768,3.5648,3.2539,0.0,0.0,0.0,0.0,3.5944,3.6997,3.7796,3.8202,3.8202,3.8202,3.8202,3.8202,3.7447,3.6548,3.5532,3.4443,3.3162,3.1712,3.08,0.0,0.0,0.0,0.0,0.0,0.0,0.0,0.0,0.0,0.0,0.0,0.0,0.0,0.0,0.0,0.0,0.0,0.0,0.0,3.1422,3.1495,3.1629,0.0,0.0,0.0,0.0,0.0,0.0,0.0,0.0,0.0,3.8921,3.9361,3.9791,0.0,0.0,4.124,4.0239,4.1262,4.1929,4.1302,4.1356,0.0,4.1224,4.0583,4.0396,4.1301,4.1753,4.2173,4.2788,4.3007,4.3173,4.3368,4.3564,4.351,4.3044,4.2669,4.255,4.2742,4.2455,4.2284,4.2424,4.2471,4.2266,4.6535,4.4601,4.3564,4.3341,4.3701,4.3715,4.4152,4.4809,4.4391,4.4078,4.3823,4.3078,4.2125,4.0935,4.0341,0.0,0.0,0.0,4.1744,4.2199,4.2731,4.2854,4.2662,4.2935,4.2732,4.2113,4.1848,4.1293,4.0551,3.9622,3.7811,3.5088,0.0,0.0,3.4503,3.5662,3.6647,3.7383,3.7935,3.8202,3.8202,3.8202,3.8202,3.8188,3.7622,3.7114,3.6707,3.572,3.4704,3.3688,3.2658,3.1569,0.0,0.0,0.0,0.0,0.0,0.0,0.0,0.0,0.0,0.0,0.0,3.106,3.0089,0.0,0.0,0.0,3.1111,3.1784,3.2302,3.2689,0.0,0.0,0.0,0.0,0.0,0.0,0.0,3.7319,3.9338,4.0995,4.1987,4.287,4.3053,4.2171,4.2499,4.2515,4.1775,0.0,4.3271,4.288,4.3016,4.3182,4.3167,4.2516,4.2323,4.3312,4.3754,4.4006,4.4303,4.4303,4.4354,4.4563,4.4579,4.4524,4.4508,4.4508,4.4303,4.3797,4.3722,4.3706,4.3687,4.3687,4.3595,4.9311,4.8604,4.6224,4.5529,4.5944,4.5959,4.6269,4.6741,4.576,4.5979,4.6856,4.5296,4.443,4.4102,4.2712,0.0,4.2381,4.3541,4.4199,4.4381,4.4828,4.4715,4.4095,4.3841,4.3434,4.2788,4.2153,4.1814,4.1696,4.0583,3.9705,3.9084,3.7887,3.6891,3.6237,3.7137,3.763,3.7725,3.806,3.8225,3.824,3.824,3.824,3.824,3.7702,3.7397,3.7288,3.6743,3.6133,3.5529,3.4869,3.3678,3.1905,0.0,0.0,0.0,0.0,0.0,0.0,0.0,0.0,0.0,0.0,0.0,0.0,0.0,0.0,0.0,3.2572,0.0,3.3823,3.4578,0.0,0.0,0.0,3.5389,3.6181,3.6367,3.7009,3.8477,0.0,0.0,4.3775,4.5717,4.6339,4.463,4.3871,4.3631,4.41,4.4246,4.4308,4.4267,4.4684,4.5059,4.4939,4.4886,4.4987,4.5555,4.6391,4.6622,4.6502,4.6362,4.625,4.6092,4.6008,4.5868,4.5848,4.5841,4.5484,4.4269,4.3997,4.3895,4.3974,4.3971,4.3974,5.0713,5.0519,4.9939,4.9088,4.8149,4.8134,4.8328,4.8611,4.8372,4.7865,4.7193,4.6758,4.5995,4.5009,4.4613,4.4519,4.4534,4.4874,4.5024,4.5065,4.5188,4.5132,4.4952,4.4419,4.4065,4.3886,4.3245,4.2678,4.224,4.1927,4.1449,4.0823,4.048,3.9349,3.752,3.7685,3.8068,3.851,3.8598,3.8634,3.8671,3.8649,3.8649,3.8634,3.8539,3.8172,3.7558,3.7505,3.716,3.6374,3.5884,3.5207,3.4221,3.2493,0.0,0.0,0.0,0.0,0.0,0.0,0.0,0.0,0.0,3.2482,3.0222,0.0,3.3029,0.0,3.3077,3.4212,3.5329,3.5174,0.0,0.0,3.6132,3.6537,3.8513,3.9534,4.0704,4.2282,4.4286,4.5717,4.611,4.7078,4.7589,4.7109,4.6677,4.5993,4.5018,4.5658,4.6064,4.5659,4.5698,4.5753,4.5773,4.6127,4.6442,4.6582,4.6772,4.6892,4.6842,4.6823,4.6754,4.6719,4.67,4.6649,4.6615,4.6649,4.6518,4.618,4.5697,4.5302,4.5317,4.5302,4.5144,5.1229,5.1229,5.1229,5.0702,4.9938,4.9938,5.003,5.0092,4.9569,4.8895,4.8132,4.7578,4.689,4.6217,4.6187,4.6187,4.6187,4.6172,4.6187,4.6187,4.6187,4.6037,4.5723,4.5065,4.4601,4.4287,4.3604,4.3095,4.2806,4.2806,4.2611,4.2252,4.1953,4.1204,3.9958,3.9535,3.9491,3.9831,3.9424,3.9129,3.8797,3.8782,3.8649,3.8354,3.8369,3.8024,3.7298,3.734,3.7178,3.6705,3.6207,3.5661,3.4949,3.3294,3.1941,0.0,0.0,0.0,0.0,0.0,0.0,0.0,0.0,0.0,0.0,0.0,3.426,3.3878,3.4629,3.5492,3.6448,3.7109,3.7835,3.8629,3.9127,3.997,4.1276,4.2021,4.2879,4.4066,4.5488,4.652,4.6832,4.7523,4.8001,4.8001,4.7803,4.734,4.6612,4.699,4.7252,4.6929,4.6894,4.686,4.6775,4.7116,4.737,4.7252,4.7336,4.737,4.7268,4.7184,4.7116,4.703,4.6961,4.6911,4.6911,4.6911,4.6911,4.6858,4.658,4.6314,4.6278,4.6278,4.6134,5.1229,5.1229,5.1229,5.1229,5.1229,5.1229,5.1229,5.1139,4.9927,4.9359,4.912,4.7833,4.7309,4.7309,4.7309,4.7309,4.7309,4.7309,4.7309,4.7309,4.7309,4.701,4.6384,4.5753,4.508,4.4421,4.3723,4.3364,4.3305,4.3305,4.3305,4.3275,4.28,4.2515,4.25,4.1769,4.1296,4.1133,4.029,3.9594,3.904,3.8914,3.856,3.7925,3.7881,3.755,3.6895,3.6851,3.6851,3.6836,3.634,3.5872,3.5337,3.413,3.3201,0.0,3.1915,0.0,0.0,0.0,0.0,0.0,0.0,0.0,0.0,3.4857,3.5629,3.6399,3.6697,3.7097,3.7674,3.9545,4.0755,4.0874,4.2457,4.3646,4.3897,4.3947,4.4267,4.5034,4.5701,4.6317,4.6919,4.7588,4.8001,4.8001,4.7968,4.7919,4.7951,4.7919,4.7935,4.8001,4.8001,4.7787,4.7704,4.782,4.7886,4.7787,4.7836,4.7935,4.7754,4.7588,4.7421,4.7302,4.7201,4.7098,4.7064,4.7064,4.7064,4.7098,4.7064,4.6996,4.6892,4.6842,4.6842,5.1229,5.1229,5.1229,5.1229,5.1229,5.1229,5.1229,5.1169,5.0345,4.9464,4.8431,4.7638,4.7309,4.7309,4.7309,4.7309,4.7309,4.7309,4.7309,4.7309,4.7309,4.7249,4.7085,4.6426,4.5768,4.5095,4.4436,4.3853,4.3305,4.3305,4.3305,4.3305,4.321,4.311,4.311,0.0,0.0,0.0,4.0666,4.0226,4.0077,3.9569,3.8988,3.8316,3.8271,0.0,3.7084,3.7213,3.7213,3.704,3.7094,0.0,0.0,0.0,0.0,0.0,0.0,0.0,0.0,0.0,0.0,0.0,3.5932,3.5612,3.5142,3.6224,3.7436,3.8629,3.8835,3.9349,4.0479,4.0995,4.1485,4.2109,4.2525,4.34,4.5098,4.5414,4.5907,4.7209,4.749,4.7622,4.7704,4.7919,4.8001,4.8001,4.8001,4.8001,4.8001,4.8001,4.8001,4.8001,4.8001,4.8001,4.7951,4.7968,4.8001,4.7968,4.7968,4.7968,4.7935,4.7919,4.7886,4.7836,4.7836,4.7754,4.7787,4.7803,4.7754,4.7787,4.7787,4.7621,4.703,4.6911,4.6892,5.1229,5.1199,5.0823,5.0868,0.0,5.087,5.0915,5.1107,5.0182,4.903,4.7788,4.7459,4.7309,4.7309,4.7309,4.7309,4.7309,4.7309,4.7309,4.7309,4.7309,4.7309,4.7294,4.6593,4.5963,4.5274,4.4631,4.3932,4.3319,4.3305,4.3305,4.3305,4.3305,4.3305,4.3305,4.3305,4.2851,4.1916,4.1534,4.1055,4.0427,4.0068,3.9409,3.8437,3.8377,0.0,0.0,0.0,0.0,0.0,0.0,0.0,0.0,0.0,0.0,3.6929,3.686,3.6719,3.654,3.7088,3.7895,3.8912,3.9655,3.9441,3.8041,3.9527,4.0763,4.1456,4.1533,4.1811,4.2474,4.3169,4.3713,4.4101,4.4769,4.5685,4.6682,4.6897,4.7194,4.7803,4.8001,4.8001,4.8001,4.8001,4.8001,4.8001,4.8001,4.8034,4.8001,4.8001,4.8001,4.8001,4.8001,4.8001,4.8001,4.8001,4.8001,4.8001,4.8001,4.8001,4.8001,4.8001,4.8001,4.8001,4.8001,4.8001,4.8001,4.8001,4.8001,4.8001,4.8001,4.7886,4.7504,4.7454,4.742,5.1229,5.1169,5.0584,5.0599,5.1005,5.0539,5.0539,5.0795,4.9733,0.0,0.0,4.7309,4.7309,4.7309,4.7309,4.7309,4.7309,4.7309,4.7309,4.7309,4.7309,4.7309,4.7279,4.6756,4.6142,4.5454,4.4796,4.4152,4.3484,4.3349,4.3305,4.3305,4.3305,4.3305,4.3305,4.3305,4.3075,4.259,4.2455,4.1871,4.0786,4.0636,3.9933,3.8616,3.8571,3.7973,3.6735,3.6656,3.6402,3.5878,3.5833,3.6148,3.681,3.7491,3.7881,3.7982,3.9256,3.9818,3.9282,4.0365,4.1306,4.1941,4.328,4.3248,4.1305,4.2742,4.373,4.3873,4.3857,4.392,4.4047,4.5056,4.5852,4.5987,4.706,4.777,4.7951,4.8001,4.7951,4.8001,4.8133,4.815,4.8034,4.8282,4.8315,4.8249,4.8415,4.8315,4.8199,4.81,4.8067,4.8233,4.815,4.8001,4.8001,4.8001,4.8001,4.8001,4.8001,4.8001,4.8001,4.8001,4.8001,4.8001,4.8001,4.8001,4.8001,4.8001,4.8001,4.8001,4.8001,4.8001,4.8001,4.8001,4.7935,5.1229,5.1214,5.1109,5.0764,5.036,5.0823,5.0496,4.9584,4.9389,4.8565,4.7309,4.7309,4.7309,4.7309,4.7309,4.7309,4.7309,4.7309,4.7309,4.7309,4.7309,4.7309,4.7309,4.7219,4.6815,4.6157,4.5484,4.4811,4.4142,4.3574,4.3305,4.3305,4.3305,4.3305,4.3305,4.3305,4.3245,4.314,4.2641,4.2306,4.2126,4.1572,4.0621,3.9364,3.929,3.8661,3.7345,3.7285,3.7225,3.715,3.715,3.7434,3.8113,3.8864,3.9477,4.0086,4.1411,4.2127,4.2027,4.2776,4.3287,4.3448,4.4725,4.4871,4.3424,4.3538,4.3936,4.4503,4.4617,4.48,4.5353,4.5639,4.6026,4.6581,4.685,4.722,4.7935,4.805,4.8084,4.8133,4.858,4.8696,4.8332,4.9094,4.9541,4.9193,4.9342,4.9641,4.9077,4.8398,4.8315,4.8696,4.8398,4.8067,4.8001,4.8001,4.8001,4.8001,4.8001,4.8001,4.8001,4.8001,4.8001,4.8001,4.8001,4.8001,4.8001,4.8001,4.8001,4.8001,4.8001,4.8001,4.8001,4.8001,4.7968,5.1229,5.1169,5.0794,5.0674,5.0719,5.0674,5.0152,4.9299,4.894,4.8207,4.7354,4.7309,4.7309,4.7309,4.7309,4.7309,4.7309,4.7309,4.7309,4.7309,4.7309,4.7309,4.7309,4.7309,4.6965,4.6264,4.5633,4.496,4.4317,4.3618,4.3305,4.3305,4.3305,4.3305,4.3305,4.3305,4.3305,4.329,4.303,4.2716,4.241,4.2111,4.1459,4.0516,4.0472,4.0242,3.9721,3.9269,3.9068,3.9143,3.9127,3.9466,4.0106,4.0814,4.1518,4.2225,4.3153,4.3728,4.3777,4.4802,4.5455,4.5472,4.6388,4.6749,4.609,4.604,4.6153,4.6428,4.6476,4.659,4.6931,4.6947,4.71,4.7404,4.7454,4.7752,4.8448,4.8597,4.8763,4.9144,4.9491,4.9574,4.9243,4.9772,5.0121,4.9773,5.0038,5.0187,5.0204,4.9309,4.8564,4.8498,4.8216,4.805,4.8001,4.8001,4.8001,4.8001,4.8001,4.8001,4.8001,4.8001,4.8001,4.8001,4.8001,4.8001,4.8001,4.8001,4.8001,4.8001,4.8001,4.8001,4.8001,4.8001,4.8001,5.1229,5.1169,5.0629,5.0704,5.1139,5.0361,4.9718,4.9254,4.8625,4.7923,4.7354,4.7309,4.7309,4.7309,4.7309,4.7309,4.7309,4.7309,4.7309,4.7309,4.7309,4.7309,4.7309,4.7309,4.7025,4.6459,4.5858,4.5185,4.4526,4.3828,4.3543,4.3566,4.3591,4.3551,4.3591,4.3551,4.3472,4.3329,4.3305,4.3105,4.2635,4.262,4.2267,4.1707,4.1821,4.1863,4.1771,4.1366,4.1209,4.1283,4.1305,4.1553,4.205,4.2721,4.3365,4.3958,4.4704,4.5245,4.5538,4.6502,4.7156,4.7156,4.7669,4.8001,4.8001,4.8001,4.8001,4.8001,4.7902,4.7951,4.7968,4.815,4.8266,4.8266,4.8431,4.8746,4.926,4.921,4.9409,5.0055,5.022,5.0204,5.0253,5.0502,5.0734,5.075,5.0701,5.0899,5.11,5.0137,4.9127,4.8465,4.8117,4.8001,4.8001,4.8001,4.8001,4.8001,4.8001,4.8001,4.8001,4.8001,4.8001,4.8001,4.8001,4.8001,4.8001,4.8001,4.8001,4.8001,4.8001,4.8001,4.8001,4.8001,4.8001,5.1229,5.1214,5.1139,5.1107,5.1079,4.9912,4.9419,4.9269,4.861,4.7908,4.7369,4.7309,4.7309,4.7309,4.7309,4.7309,4.7309,4.7309,4.7309,4.7309,4.7309,4.7309,4.7309,4.7309,4.7279,4.7115,4.6516,4.5828,4.52,4.4511,4.4282,4.4396,4.4412,4.4358,4.4358,4.4373,4.4043,4.3329,4.3305,4.326,4.323,4.3215,4.2925,4.2336,4.2963,4.3021,4.2592,4.3032,4.34,4.3406,4.344,4.3456,4.3569,4.4228,4.4641,4.4787,4.5962,4.6977,4.7588,4.7836,4.7868,4.7901,4.7934,4.8001,4.8001,4.8034,4.8017,4.8017,4.8017,4.8067,4.805,4.8614,4.9011,4.9028,4.9475,5.0055,5.0005,4.9525,4.9392,5.0121,5.0336,5.0237,5.0469,5.1313,5.2078,5.1943,5.191,5.1777,5.1431,5.0684,4.9856,4.911,4.8498,4.8067,4.8017,4.8001,4.8001,4.8001,4.8001,4.8001,4.8001,4.8001,4.8001,4.8001,4.8001,4.8001,4.8001,4.8001,4.8001,4.8001,4.8001,4.8001,4.8001,4.8001,4.8001,5.1229,5.1229,5.1229,5.1229,5.1079,5.0227,4.9838,4.9748,4.873,4.8132,4.7848,4.7489,4.7309,4.7309,4.7309,4.7309,4.7309,4.7309,4.7309,4.7309,4.7309,4.7309,4.7309,4.7309,4.7309,4.7249,4.6636,4.6172,4.5726,4.484,4.4619,4.5098,4.4737,4.4737,4.5184,4.5221,4.5036,4.4737,4.4752,4.4699,4.4586,4.3771,4.3431,4.3624,4.3959,4.4439,4.495,4.4969,4.5075,4.5493,4.5511,4.5511,4.5527,4.5818,4.6188,4.6668,4.7209,4.7669,4.7984,4.8001,4.8001,4.8001,4.8001,4.8001,4.8034,4.8398,4.8481,4.8133,4.8398,4.8647,4.8713,4.9326,4.9756,4.9706,4.9674,4.9906,5.075,4.9806,4.9674,5.1148,5.1098,5.1015,5.1446,5.1993,5.2393,5.2409,5.2409,5.2243,5.1945,5.1297,5.0585,4.9872,4.9144,4.8498,4.8133,4.8001,4.8001,4.8001,4.8001,4.8001,4.8001,4.8001,4.8001,4.8001,4.8001,4.8001,4.8001,4.8001,4.8001,4.8001,4.8001,4.8001,4.8001,4.8001,4.8001,5.1229,5.1229,5.1229,5.1229,5.1184,5.0705,5.036,5.0061,4.9045,4.8461,4.8222,4.7593,4.7309,4.7309,4.7309,4.7309,4.7309,4.7309,4.7309,4.7309,4.7309,4.7424,4.7624,4.7651,4.7666,4.7634,4.7406,4.7088,4.6592,4.5581,4.5341,4.5793,4.541,4.5426,4.5933,4.602,4.5913,4.5697,4.5697,4.5697,4.5515,4.4548,4.4259,4.4774,4.502,4.5665,4.6708,4.6515,4.655,4.7101,4.7101,4.7118,4.7101,4.7118,4.7404,4.7919,4.8001,4.8001,4.8001,4.8001,4.8001,4.8034,4.815,4.8216,4.8199,4.8862,4.8928,4.8199,4.9028,4.9641,4.921,4.9955,5.0469,5.0469,5.0137,5.0485,5.1347,5.0419,5.0436,5.2028,5.168,5.1597,5.221,5.2409,5.2409,5.2409,5.2409,5.2409,5.231,5.1763,5.0999,5.032,4.9574,4.8845,4.8166,4.8001,4.8001,4.8001,4.8001,4.8001,4.8001,4.8001,4.8001,4.8001,4.8001,4.8001,4.8001,4.8001,4.8001,4.8001,4.8001,4.8001,4.8001,4.8001,4.8001,5.1229,5.1229,5.1229,5.1229,5.1214,5.1169,5.0764,5.0211,4.9523,4.894,4.8282,4.7638,4.7324,4.7309,4.7309,4.7309,4.7309,4.7309,4.7309,4.7309,4.7352,4.7779,4.8517,4.8517,4.8532,4.8599,4.9063,4.88,4.7633,4.6988,4.6703,4.6713,4.6673,4.6705,4.6791,4.6791,4.641,4.5949,4.5877,4.5769,4.5769,4.566,4.5624,4.5753,4.6288,4.6673,4.6896,4.7521,4.7886,4.7919,4.7886,4.7919,4.7935,4.7935,4.7919,4.8001,4.8001,4.8001,4.8001,4.805,4.8067,4.8117,4.8713,4.8796,4.8365,4.9326,4.9442,4.8166,4.9872,5.0518,4.9541,5.0452,5.1164,5.1216,5.1779,5.2078,5.2277,5.1448,5.1545,5.2127,5.1846,5.1746,5.2326,5.2409,5.2409,5.2409,5.2409,5.2409,5.2326,5.1796,5.1115,5.0402,4.9657,4.8879,4.8199,4.8001,4.8001,4.8001,4.8001,4.8001,4.8001,4.8001,4.8001,4.8001,4.8001,4.8001,4.8001,4.8001,4.8001,4.8001,4.8001,4.8001,4.8001,4.8001,4.8001,5.1229,5.1229,5.1229,5.1229,5.1229,5.1229,5.1079,5.0779,5.0167,4.9523,4.891,4.8222,4.7698,4.7309,4.7309,4.7309,4.7309,4.7309,4.7309,4.7337,4.7864,4.8297,4.8599,4.9116,4.9383,4.9423,4.9647,4.9575,4.9133,4.8409,4.8392,4.8686,4.7934,4.7733,4.8111,4.7801,4.7421,4.7218,4.7168,4.7168,4.7134,4.7168,4.7168,4.715,4.6896,4.7033,4.7555,4.7853,4.8001,4.8001,4.8001,4.8001,4.8001,4.8001,4.8001,4.8001,4.8001,4.8001,4.8067,4.8448,4.8713,4.8763,4.9409,4.9674,4.9541,4.9872,4.979,4.926,5.0254,5.0734,5.0369,5.1115,5.1812,5.1448,5.1547,5.191,5.2026,5.138,5.1048,5.2026,5.2161,5.2161,5.221,5.2409,5.2409,5.2409,5.2409,5.2409,5.2393,5.2108,5.1694,5.0999,5.0286,4.9558,4.8829,4.8266,4.8001,4.8001,4.8001,4.8001,4.8001,4.8001,4.8001,4.8001,4.8001,4.8001,4.8001,4.8001,4.8001,4.8001,4.8001,4.8001,4.8001,4.8001,4.8001,5.1229,5.1229,5.1229,5.1229,5.1229,5.1229,5.1229,5.1139,5.048,4.9987,4.9508,4.8895,4.8237,4.7743,4.7833,4.7788,4.7608,4.7414,4.7309,4.7396,4.8214,4.8723,4.9075,4.9821,5.0213,5.0213,5.0213,5.0282,5.0294,4.9855,4.9811,4.9998,4.9101,4.8766,4.8977,4.8597,4.8266,4.8067,4.8001,4.8001,4.8001,4.8001,4.8001,4.7935,4.7438,4.7404,4.8001,4.8001,4.8001,4.8001,4.8001,4.8001,4.8001,4.8001,4.8001,4.8001,4.8001,4.8001,4.805,4.8481,4.8746,4.8812,4.9624,5.0071,4.9657,5.0137,5.0038,4.969,5.0386,5.0982,5.0701,5.1512,5.2194,5.1746,5.1663,5.1846,5.2258,5.1529,5.1347,5.181,5.1995,5.1928,5.1761,5.1893,5.2011,5.2045,5.2191,5.2409,5.2409,5.2393,5.2161,5.1431,5.0883,5.0104,4.9326,4.8663,4.8183,4.8117,4.8017,4.8001,4.8001,4.8001,4.8001,4.8001,4.8001,4.8001,4.8001,4.8001,4.8001,4.8001,4.8001,4.8001,4.8001,4.8001,4.8001,5.1229,5.1229,5.1229,5.1229,5.1229,5.1229,5.1229,5.1124,5.0571,5.0226,4.9986,4.9523,4.891,4.8491,4.885,4.888,4.8267,4.7758,4.7517,4.7615,4.8374,4.9163,4.986,5.0707,5.1118,5.1118,5.1118,5.1102,5.1117,5.111,5.0873,5.0245,5.0187,4.977,4.916,4.9061,4.868,4.8166,4.8001,4.8001,4.8001,4.8001,4.805,4.8067,4.7968,4.7968,4.805,4.8034,4.8001,4.8001,4.8001,4.8001,4.8001,4.8001,4.8001,4.8084,4.8034,4.8017,4.8067,4.815,4.8249,4.8415,4.9442,4.974,4.9193,5.0088,5.0568,4.9839,5.0419,5.1033,5.0667,5.1545,5.2307,5.2359,5.221,5.2326,5.2376,5.2376,5.2111,5.1547,5.1365,5.0982,5.0618,5.0883,5.1264,5.1415,5.1728,5.2111,5.2078,5.2127,5.2011,5.1547,5.1149,5.0585,4.9806,4.9044,4.8597,4.8216,4.8084,4.8001,4.8001,4.8001,4.8001,4.8001,4.8001,4.8001,4.8001,4.8001,4.8001,4.8001,4.8001,4.8001,4.8001,4.8001,4.8001,5.1229,5.1229,5.1229,5.1229,5.1229,5.1229,5.1229,5.1214,5.099,5.0614,5.0211,4.9971,4.9583,4.9149,4.9224,4.9209,4.9,4.876,4.8739,4.8962,4.9693,5.0263,5.0804,5.1582,5.2017,5.1997,5.198,5.198,5.1984,5.2002,5.1867,5.1628,5.1175,5.0585,4.9889,4.9375,4.8746,4.81,4.8001,4.8001,4.8001,4.8001,4.8233,4.8647,4.8282,4.8216,4.8696,4.8282,4.8017,4.8001,4.8001,4.8001,4.8001,4.8001,4.8233,4.8647,4.8266,4.8266,4.8696,4.8763,4.873,4.8912,4.9674,5.0237,5.0204,5.0369,5.0618,5.0485,5.1067,5.1183,5.1164,5.1812,5.2177,5.1713,5.2094,5.2409,5.2359,5.1962,5.158,5.1315,5.085,5.0469,5.0286,5.0469,5.0535,5.0551,5.0817,5.0982,5.0999,5.1413,5.1614,5.1348,5.1164,5.0866,4.9955,4.9177,4.8713,4.8282,4.8067,4.8001,4.8001,4.8001,4.8001,4.8001,4.8001,4.8001,4.8001,4.8001,4.8001,4.8001,4.8001,4.8001,4.8001,4.8001,4.8001,5.1229,5.1229,5.1229,5.1229,5.1229,5.1229,5.1229,5.1229,5.1229,5.0975,5.0614,5.0554,5.0242,4.9778,4.9868,4.9853,4.9688,4.9868,5.0302,5.0634,5.0624,5.1048,5.1513,5.2079,5.2409,5.2409,5.2409,5.2409,5.2409,5.2409,5.2409,5.2293,5.1945,5.133,5.0618,4.9889,4.916,4.8481,4.8133,4.8001,4.8001,4.8001,4.8216,4.8547,4.8233,4.8249,4.863,4.8233,4.8001,4.8001,4.8001,4.8001,4.8001,4.8034,4.8332,4.8829,4.8746,4.8647,4.9044,4.9077,4.8961,4.8928,4.9641,5.0187,5.0469,5.0336,5.0866,5.1216,5.1315,5.1431,5.173,5.2111,5.2061,5.1398,5.1978,5.2376,5.2326,5.1763,5.1199,5.0833,5.0237,4.9773,4.9475,4.969,4.9773,4.9823,5.0055,5.022,5.0303,5.0618,5.0783,5.0883,5.0767,5.0369,4.9872,4.9309,4.8812,4.8398,4.8017,4.8001,4.8001,4.8001,4.8001,4.8001,4.8001,4.8001,4.8001,4.8001,4.8001,4.8001,4.8001,4.8001,4.8001,4.8001,4.8001,5.1229,5.1229,5.1229,5.1229,5.1229,5.1229,5.1229,5.1229,5.1229,5.1199,5.1169,5.1124,5.0887,5.0557,5.0873,5.0782,5.0512,5.078,5.1666,5.2133,5.178,5.1518,5.2238,5.2386,5.239,5.2409,5.2409,5.2409,5.2409,5.2409,5.2409,5.2393,5.2326,5.2011,5.1232,5.0568,4.9856,4.9011,4.8431,4.8133,4.8034,4.8001,4.8084,4.8166,4.8084,4.8084,4.8249,4.8117,4.8001,4.8001,4.8001,4.8001,4.8001,4.8001,4.8332,4.9144,4.9144,4.9193,4.9226,4.9326,4.9061,4.8647,4.9508,4.9988,4.9806,5.0485,5.1032,5.1265,5.1216,5.1415,5.1893,5.2059,5.1761,5.1448,5.1628,5.2028,5.2177,5.1531,5.075,5.0154,4.9508,4.8829,4.8299,4.873,4.8961,4.9144,4.9525,4.9723,4.9872,4.9906,5.0104,5.0187,5.0237,5.0038,4.9591,4.9359,4.8845,4.8315,4.8001,4.8001,4.8001,4.8001,4.8001,4.8001,4.8001,4.8001,4.8001,4.8001,4.8001,4.8001,4.8001,4.8001,4.8001,4.8001,4.8001,5.1229,5.1229,5.1229,5.1229,5.1229,5.1229,5.1229,5.1229,5.1229,5.1229,5.1229,5.1229,5.1498,5.1911,5.142,5.1452,5.1713,5.1435,5.2169,5.3384,5.2823,5.2628,5.2864,5.2597,5.2426,5.2409,5.2409,5.2409,5.2409,5.2409,5.2409,5.2409,5.2393,5.2026,5.1348,5.1082,5.0303,4.9276,4.8945,4.8514,4.8084,4.8001,4.8282,4.8746,4.8282,4.8282,4.8663,4.8282,4.8001,4.8001,4.8001,4.8001,4.8001,4.8017,4.8531,4.9508,4.9425,4.9624,5.032,5.0154,4.9806,4.969,4.9839,5.0336,5.0701,5.0535,5.0817,5.1033,5.085,5.0634,5.08,5.0883,5.0717,5.0585,5.0833,5.0899,5.0767,5.0154,4.9574,4.9359,4.8763,4.8299,4.815,4.8166,4.8365,4.8398,4.8547,4.873,4.8945,4.9193,4.9392,4.9624,4.969,4.9591,4.9425,4.9243,4.8845,4.8249,4.8001,4.8001,4.8001,4.8001,4.8001,4.8001,4.8001,4.8001,4.8001,4.8001,4.8001,4.8001,4.8001,4.8001,4.8001,4.8001,4.8001,5.1229,5.1229,5.1229,5.1229,5.1229,5.1229,5.1229,5.1229,5.1229,5.1229,5.1261,5.165,5.2094,5.2501,5.2426,5.2471,5.2651,5.223,5.2769,5.3909,5.4171,5.3895,5.3453,5.2953,5.2672,5.2409,5.2409,5.2409,5.2409,5.2409,5.2409,5.2409,5.2409,5.2177,5.1794,5.1398,5.0951,5.0055,4.9491,4.8879,4.8498,4.815,4.8183,4.8531,4.8199,4.8249,4.8514,4.8216,4.8001,4.8001,4.8066,4.8049,4.8001,4.8066,4.8613,4.9657,4.9591,4.9988,5.0535,5.0419,5.0088,4.9823,4.9756,4.9939,5.022,5.0204,5.0518,5.1133,5.085,5.0866,5.0999,5.0866,5.0684,5.0701,5.0402,5.0237,5.022,4.9624,4.9193,4.8945,4.8498,4.8017,4.8017,4.8034,4.8017,4.8034,4.8084,4.8133,4.8166,4.8448,4.8713,4.8928,4.8995,4.8879,4.8829,4.8696,4.8663,4.8133,4.8001,4.8001,4.8001,4.8001,4.8001,4.8001,4.8001,4.8001,4.8001,4.8001,4.8001,4.8001,4.8001,4.8001,4.8001,4.8001,4.8001,5.1229,5.1229,5.1229,5.1229,5.1229,5.1229,5.1229,5.1229,5.1229,5.1229,5.1386,5.217,5.2635,5.2798,5.3459,5.3734,5.3371,5.2991,5.3474,5.4451,5.5159,5.5277,5.4054,5.3595,5.3061,5.2528,5.2409,5.2445,5.2445,5.2409,5.2445,5.248,5.248,5.2445,5.23,5.1833,5.145,5.1036,5.0156,4.9542,4.921,4.8796,4.8614,4.8597,4.8597,4.8498,4.8498,4.8381,4.8381,4.8282,4.8247,4.8147,4.8049,4.8147,4.8546,4.9194,4.9756,5.0204,5.0402,5.0568,5.032,4.9939,4.9756,4.9442,4.9939,5.032,5.0684,5.1265,5.1249,5.1231,5.1529,5.1396,5.1048,5.085,5.0485,5.027,5.0054,4.9624,4.9226,4.921,4.863,4.8332,4.8249,4.8233,4.8249,4.8415,4.8332,4.8233,4.8133,4.8166,4.8266,4.8266,4.8233,4.8117,4.8117,4.81,4.8133,4.8001,4.8001,4.8001,4.8001,4.8001,4.8001,4.8001,4.8001,4.8001,4.8001,4.8001,4.8001,4.8001,4.8001,4.8001,4.8001,4.8001,4.8001,5.1229,5.1229,5.1229,5.1229,5.1229,5.1229,5.1229,5.1229,5.1229,5.1229,5.1433,5.2215,5.3108,5.3945,5.4131,5.4411,5.4812,5.3832,5.3561,5.4662,5.6265,5.6437,5.5402,5.452,5.3428,5.2788,5.257,5.257,5.2535,5.2516,5.2551,5.2746,5.264,5.2624,5.2714,5.2529,5.2247,5.1729,5.1142,5.0607,5.0141,4.9808,4.9591,4.9607,4.9607,4.9674,4.9757,4.9842,4.9842,4.9526,4.8829,4.8411,4.8329,4.8328,4.8661,4.9277,4.9907,5.0469,5.0966,5.1448,5.1862,5.1446,5.1265,5.1661,5.1628,5.1116,5.1133,5.1199,5.08,5.0734,5.0949,5.0651,5.0684,5.0667,5.0518,5.0336,5.022,5.0055,4.9922,4.9872,4.9773,4.9723,4.9674,4.9574,4.9392,4.9011,4.8763,4.8597,4.8398,4.8216,4.8166,4.8249,4.8017,4.8067,4.8332,4.8431,4.858,4.8564,4.8498,4.8448,4.8431,4.8133,4.8183,4.8117,4.8001,4.8001,4.8033,4.8033,4.8033,4.8033,4.8033,4.8033,4.8033,4.8033,4.8001,5.1229,5.1229,5.1229,5.1229,5.1229,5.1229,5.1229,5.1229,5.1229,5.1479,5.2033,5.2931,5.3945,5.4952,5.5337,5.5676,5.5255,5.4511,5.4511,5.5636,5.6849,5.7036,5.6407,5.5364,5.4283,5.3367,5.2863,5.2746,5.2694,5.2659,5.2729,5.2868,5.2799,5.2816,5.2868,5.2903,5.2668,5.23,5.183,5.1394,5.0941,5.049,5.0289,5.0273,5.0273,5.0273,5.0257,5.0341,5.0341,5.0192,4.9826,4.9424,4.9309,4.9391,4.9624,4.9843,5.0424,5.0869,5.1416,5.1665,5.1883,5.1928,5.1684,5.145,5.1348,5.0966,5.1032,5.1149,5.1033,5.0817,5.1164,5.1247,5.1231,5.1231,5.1214,5.1214,5.1131,5.0667,5.022,5.022,5.0154,5.0137,5.0204,5.0402,5.0204,4.9657,4.9624,4.9458,4.9293,4.9061,4.8713,4.858,4.8199,4.8183,4.8597,4.8912,4.9293,4.9359,4.9409,4.9375,4.9375,4.8912,4.8431,4.8282,4.8117,4.8066,4.8082,4.8082,4.8115,4.8212,4.8212,4.8147,4.8082,4.8049,4.8033,5.1433,5.1433,5.1433,5.1433,5.1401,5.1261,5.1229,5.1229,5.1261,5.1773,5.2725,5.3859,5.473,5.5723,5.6707,5.6381,5.5612,5.5555,5.5995,5.6459,5.7218,5.7358,5.6846,5.5982,5.5135,5.4198,5.3358,5.2988,5.2938,5.2938,5.292,5.2972,5.2938,5.2972,5.2972,5.2972,5.3008,5.2857,5.2386,5.2049,5.1779,5.1243,5.0992,5.0976,5.0924,5.0941,5.0958,5.0908,5.0808,5.0759,5.1145,5.1145,5.0978,5.081,5.0875,5.0526,5.1059,5.1305,5.142,5.1604,5.1772,5.1483,5.1155,5.0823,5.077,5.0899,5.1115,5.133,5.1479,5.168,5.231,5.221,5.226,5.2293,5.2359,5.2409,5.2194,5.1247,5.0833,5.0701,5.0916,5.0999,5.0883,5.0916,5.0634,5.0419,5.0386,5.0303,5.007,4.9822,4.9475,4.9276,4.9011,4.8912,4.926,4.9425,4.9806,4.9955,5.0088,5.0088,5.0071,4.9641,4.9077,4.8448,4.8249,4.8166,4.8099,4.8082,4.8179,4.8356,4.8324,4.8163,4.8115,4.8082,4.8049,5.2381,5.2381,5.2381,5.2381,5.2215,5.1572,5.1261,5.1229,5.1526,5.2033,5.3004,5.4057,5.5182,5.6119,5.6937,5.6801,5.6381,5.6531,5.687,5.6882,5.746,5.7659,5.7306,5.6258,5.5545,5.5088,5.397,5.3161,5.311,5.3007,5.3093,5.328,5.323,5.3195,5.3314,5.3399,5.3365,5.3331,5.2977,5.2824,5.2672,5.2469,5.2266,5.2232,5.2095,5.2076,5.2141,5.2191,5.2222,5.2274,5.2604,5.2707,5.2404,5.1664,5.1177,5.1161,5.1429,5.1692,5.1657,5.2073,5.2339,5.2354,5.2191,5.2157,5.2069,5.2016,5.1895,5.2011,5.2144,5.226,5.2376,5.2409,5.2409,5.2409,5.2409,5.2409,5.2343,5.2059,5.1794,5.1711,5.1827,5.186,5.1645,5.1496,5.138,5.1197,5.1115,5.0916,5.0634,5.0402,5.0121,5.0038,4.9988,4.9972,5.0055,5.0121,5.0303,5.0419,5.0502,5.0518,5.0436,5.022,4.9756,4.9309,4.8647,4.8249,4.8182,4.8165,4.8147,4.8276,4.8227,4.8179,4.8163,4.8163,4.8147,5.3035,5.2635,5.3124,5.302,5.2561,5.2124,5.1987,5.2109,5.2245,5.3121,5.4321,5.5166,5.5985,5.6849,5.7368,5.7385,5.7226,5.66,5.6904,5.7176,5.7681,5.7645,5.7289,5.6173,5.5547,5.4904,5.3923,5.3348,5.3348,5.328,5.3331,5.3416,5.3382,5.3433,5.3467,5.3484,5.3518,5.3484,5.3399,5.3298,5.3213,5.3076,5.3041,5.3007,5.2972,5.2903,5.2903,5.292,5.2903,5.2956,5.3162,5.3298,5.3129,5.2775,5.2202,5.2152,5.2235,5.2316,5.2299,5.2683,5.2835,5.2782,5.2834,5.2799,5.2676,5.2485,5.248,5.2409,5.2409,5.2409,5.2409,5.2409,5.2409,5.2409,5.2409,5.2409,5.2409,5.2409,5.2409,5.2409,5.2277,5.2194,5.2277,5.2177,5.2125,5.2061,5.1879,5.1545,5.1197,5.0982,5.0783,5.0767,5.0767,5.0767,5.0833,5.0949,5.0966,5.1032,5.1065,5.1065,5.1067,5.0967,5.0785,5.0453,4.9691,4.8829,4.8546,4.8612,4.8412,4.8278,4.8393,4.8491,4.8342,4.8292,4.8426,5.3805,5.3196,5.3934,5.3719,5.2947,5.2635,5.268,5.2872,5.29,5.4025,5.585,5.622,5.6734,5.7497,5.7738,5.7777,5.7625,5.6412,5.6848,5.733,5.7541,5.7273,5.6545,5.5852,5.5158,5.4668,5.3907,5.3518,5.3467,5.3433,5.3467,5.3501,5.3501,5.3518,5.3518,5.3518,5.3518,5.3518,5.3518,5.3382,5.3298,5.3264,5.3264,5.3264,5.323,5.3179,5.3144,5.3093,5.3127,5.3195,5.3298,5.3416,5.3467,5.3501,5.3433,5.3314,5.323,5.311,5.3025,5.3059,5.3093,5.2972,5.311,5.2972,5.2799,5.2676,5.2535,5.2445,5.2409,5.2409,5.2409,5.2409,5.2409,5.2409,5.2409,5.2409,5.2409,5.2409,5.2409,5.2409,5.2409,5.2409,5.2409,5.2409,5.2293,5.2293,5.2127,5.2144,5.1794,5.1645,5.1547,5.1496,5.1531,5.1531,5.1647,5.1843,5.1827,5.1827,5.1843,5.1843,5.1881,5.1918,5.1634,5.1335,5.0741,4.9976,4.9526,4.916,4.9144,4.9077,4.894,4.8939,4.9125,4.9241,4.934,5.5092,5.4994,5.5076,5.4637,5.3773,5.3004,5.2814,5.3033,5.3296,5.4363,5.6298,5.6487,5.7089,5.7648,5.7727,5.7459,5.7236,5.7248,5.7176,5.7256,5.707,5.6664,5.5869,5.5057,5.4752,5.438,5.3805,5.3551,5.3518,5.3518,5.3518,5.3518,5.3518,5.3518,5.3518,5.3518,5.3518,5.3518,5.3518,5.3467,5.3467,5.3467,5.3467,5.3416,5.3314,5.3213,5.3213,5.3127,5.3093,5.3213,5.323,5.3348,5.3467,5.3518,5.3518,5.3433,5.3314,5.3179,5.3179,5.3213,5.323,5.3161,5.323,5.3195,5.3007,5.2764,5.257,5.2409,5.2409,5.2409,5.2409,5.2409,5.2409,5.2409,5.2409,5.2409,5.2409,5.2409,5.2409,5.2409,5.2409,5.2409,5.2409,5.2409,5.2409,5.2409,5.2409,5.2409,5.2359,5.2144,5.2045,5.1995,5.1962,5.1978,5.1978,5.2277,5.2343,5.2409,5.2409,5.2409,5.2329,5.2283,5.242,5.2056,5.151,5.106,5.0609,5.0275,5.0074,4.9825,4.961,4.9843,5.0176,5.0259,5.0174,5.4581,5.4219,5.5218,5.5129,5.4396,5.4413,5.4573,5.4764,5.4888,5.5754,5.6963,5.726,5.7571,5.771,5.712,5.6985,5.7273,5.7357,5.7391,5.7256,5.6951,5.641,5.5716,5.4938,5.4465,5.4042,5.3721,5.3534,5.3518,5.3534,5.3518,5.3551,5.3518,5.3518,5.3568,5.3518,5.3518,5.3518,5.3518,5.3518,5.3518,5.3518,5.3518,5.3518,5.3382,5.3382,5.3332,5.3298,5.328,5.3365,5.3382,5.3433,5.3467,5.3518,5.3518,5.3518,5.3416,5.3382,5.3382,5.3348,5.3348,5.3382,5.3348,5.3314,5.3179,5.2938,5.2694,5.2535,5.2499,5.248,5.2409,5.2409,5.2409,5.2409,5.2409,5.2409,5.2409,5.2409,5.2409,5.2409,5.2409,5.2409,5.2409,5.2409,5.2409,5.2409,5.2409,5.2409,5.2409,5.2343,5.2293,5.2326,5.231,5.231,5.2293,5.2376,5.2376,5.2409,5.2409,5.2409,5.2409,5.2447,5.257,5.2676,5.2347,5.1945,5.1591,5.1057,5.0507,5.0391,5.029,5.0541,5.0776,5.0777,5.0775,5.363,5.3242,5.4866,5.5177,5.4665,5.5329,5.5781,5.6165,5.6126,5.6778,5.7665,5.7865,5.7797,5.7543,5.685,5.6934,5.7509,5.7205,5.7273,5.7323,5.7053,5.641,5.5683,5.4938,5.4313,5.3771,5.3619,5.367,5.3805,5.3822,5.3856,5.3771,5.3602,5.3687,5.3721,5.3619,5.3518,5.3518,5.3518,5.3518,5.3518,5.3518,5.3518,5.3518,5.3518,5.3518,5.3518,5.3467,5.3467,5.3467,5.3467,5.3467,5.3518,5.3518,5.3518,5.3518,5.3467,5.3467,5.3467,5.3467,5.3518,5.3518,5.3467,5.3382,5.323,5.3058,5.2868,5.2711,5.2711,5.2605,5.2499,5.2464,5.2445,5.2409,5.2409,5.2409,5.2442,5.2542,5.2509,5.2409,5.2409,5.2409,5.2409,5.2409,5.2409,5.2409,5.2409,5.2409,5.2409,5.2409,5.2409,5.2409,5.2409,5.2409,5.2409,5.2409,5.2409,5.2409,5.2409,5.2409,5.2409,5.2499,5.2605,5.2711,5.2816,5.2683,5.2264,5.1594,5.0992,5.1224,5.139,5.1208,5.1244,5.1313,5.1529,5.2594,5.2748,5.4033,5.4606,5.459,5.4665,5.5332,5.6261,5.6265,5.6925,5.7828,5.7814,5.7459,5.7154,5.7306,5.7205,5.6985,5.7526,5.7425,5.7103,5.6765,5.6359,5.575,5.5175,5.4617,5.4431,5.4143,5.416,5.438,5.4515,5.4532,5.4465,5.4025,5.4093,5.4042,5.3788,5.3534,5.3518,5.3518,5.3518,5.3518,5.3518,5.3518,5.3518,5.3518,5.3518,5.3518,5.3518,5.3518,5.3518,5.3518,5.3518,5.3518,5.3518,5.3518,5.3518,5.3653,5.3687,5.3687,5.3585,5.3518,5.3518,5.3467,5.3433,5.328,5.3246,5.3109,5.3071,5.3203,5.3065,5.2859,5.2603,5.2848,5.2912,5.3009,5.292,5.2904,5.2804,5.2738,5.2509,5.2492,5.2589,5.2509,5.2525,5.2426,5.2409,5.2409,5.2409,5.2409,5.2409,5.2409,5.2409,5.2409,5.2409,5.2409,5.2409,5.2409,5.2409,5.2409,5.2409,5.2409,5.2499,5.257,5.2694,5.2799,5.2903,5.2939,5.2453,5.2183,5.2412,5.2409,5.2095,5.2046,5.2184,5.2522,5.257,5.2655,5.3292,5.3873,5.4479,5.5508,5.6191,5.6603,5.7059,5.7463,5.7865,5.7459,5.7323,5.7408,5.7188,5.7357,5.7374,5.7188,5.7323,5.7103,5.6681,5.6308,5.5936,5.575,5.5277,5.5209,5.4972,5.4938,5.5243,5.5277,5.5649,5.548,5.4769,5.4431,5.4296,5.4042,5.367,5.3551,5.3534,5.3518,5.3518,5.3518,5.3518,5.3518,5.3518,5.3518,5.3518,5.3518,5.3518,5.3551,5.3585,5.3636,5.367,5.3653,5.3653,5.3704,5.3957,5.4143,5.4059,5.3839,5.3518,5.3518,5.3518,5.3535,5.3585,5.3771,5.3904,5.3968,5.4134,5.4112,5.4155,5.4045,5.3984,5.3881,5.3725,5.3586,5.35,5.3437,5.34,5.3318,5.3135,5.3086,5.287,5.2638,5.2542,5.2409,5.2409,5.2409,5.2409,5.2409,5.2409,5.2409,5.2409,5.2409,5.2409,5.2409,5.2409,5.2409,5.2409,5.2409,5.2409,5.2409,5.2499,5.264,5.2799,5.2903,5.3007,5.3195,5.3127,5.2903,5.2834,5.2733,5.2853,5.2989,5.3127,5.2729,5.2799,5.2938,5.3647,5.471,5.5879,5.6696,5.7188,5.7625,5.7881,5.7848,5.734,5.7374,5.7628,5.7459,5.7391,5.7628,5.7492,5.7543,5.7357,5.7053,5.6731,5.6714,5.6478,5.6021,5.6004,5.5784,5.5716,5.6021,5.6002,5.6427,5.6494,5.5953,5.5463,5.5158,5.4549,5.4059,5.3873,5.3839,5.3653,5.3585,5.3518,5.3737,5.3805,5.3907,5.4126,5.4262,5.438,5.4329,5.4313,5.4296,5.4228,5.4194,5.416,5.416,5.4329,5.4566,5.4905,5.4769,5.4532,5.4177,5.4329,5.4313,5.4279,5.4296,5.4617,5.4801,5.4781,5.5168,5.5417,5.5255,5.4912,5.4737,5.4531,5.4383,5.4276,5.4236,5.4203,5.4249,5.4229,5.3997,5.3748,5.3649,5.34,5.2973,5.2724,5.2409,5.2409,5.2409,5.2409,5.2409,5.2409,5.2409,5.2409,5.2409,5.2409,5.2409,5.2409,5.2409,5.2409,5.2409,5.2409,5.2409,5.2499,5.2676,5.2868,5.3007,5.3161,5.3127,5.3041,5.2972,5.2955,5.3093,5.3161,5.3127,5.3024,5.3179,5.3179,5.402,5.5267,5.5419,5.6335,5.756,5.7814,5.7881,5.7881,5.7763,5.778,5.7865,5.7712,5.778,5.778,5.7746,5.7763,5.7695,5.7442,5.7645,5.7526,5.712,5.6765,5.6596,5.641,5.641,5.6765,5.6782,5.7205,5.7391,5.6934,5.6444,5.6613,5.5987,5.5277,5.4685,5.4583,5.4228,5.3923,5.3856,5.416,5.4448,5.4583,5.482,5.5108,5.5226,5.5192,5.5209,5.5225,5.5277,5.5294,5.5327,5.5361,5.5446,5.5581,5.57,5.5681,5.5683,5.5598,5.5326,5.5158,5.526,5.548,5.5666,5.57,5.5594,5.5849,5.5813,5.5589,5.5482,5.5492,5.5414,5.5315,5.5201,5.5194,5.5173,5.5252,5.5106,5.4775,5.4494,5.446,5.4245,5.3619,5.3122,5.2608,5.2456,5.2674,5.2807,5.292,5.2854,5.287,5.2672,5.2672,5.2456,5.239,5.2409,5.2409,5.2409,5.2409,5.2409,5.2409,5.2445,5.257,5.2764,5.2938,5.3093,5.3127,5.3195,5.3058,5.3058,5.323,5.3298,5.323,5.3144,5.323,5.3348,5.4227,5.5493,5.5594,5.622,5.7154,5.7645,5.7881,5.7881,5.7881,5.7881,5.7881,5.7881,5.7865,5.7814,5.7289,5.7289,5.7814,5.7509,5.756,5.7594,5.7628,5.7476,5.7459,5.7222,5.712,5.7526,5.7442,5.756,5.7729,5.7543,5.6968,5.6275,5.5732,5.5513,5.5378,5.5327,5.5209,5.4989,5.4921,5.5023,5.531,5.5344,5.553,5.5835,5.5919,5.5919,5.5902,5.5902,5.5886,5.5869,5.5869,5.5783,5.5919,5.6072,5.6697,5.6968,5.7087,5.6647,5.6173,5.5852,5.5869,5.5698,5.6224,5.6342,5.6528,5.6782,5.6865,5.7099,5.6954,5.6912,5.6855,5.6741,5.6538,5.6442,5.6366,5.6291,5.6044,5.5703,5.5186,5.4974,5.5123,5.4678,5.4482,5.41,5.3722,5.3768,5.3848,5.3964,5.3748,5.3616,5.3268,5.3036,5.2953,5.2788,5.2754,5.2608,5.2409,5.2409,5.2658,5.2525,5.2608,5.2634,5.2659,5.2868,5.3093,5.3314,5.3348,5.3246,5.3161,5.3264,5.3264,5.3161,5.3685,5.3703,5.3534,5.4363,5.5581,5.5681,5.6258,5.7137,5.7679,5.7881,5.7881,5.7881,5.7881,5.7881,5.7881,5.7881,5.7814,5.7476,5.7289,5.7814,5.7459,5.7577,5.7797,5.7881,5.778,5.7881,5.7881,5.7848,5.7814,5.7865,5.7865,5.7865,5.7865,5.7408,5.6782,5.6596,5.6393,5.6241,5.6072,5.5902,5.57,5.5649,5.5801,5.6004,5.6139,5.6241,5.641,5.6461,5.6444,5.6427,5.6427,5.6427,5.6427,5.6444,5.6461,5.6647,5.6867,5.7425,5.7679,5.778,5.7256,5.6748,5.6494,5.6478,5.6494,5.6968,5.712,5.734,5.7679,5.7763,5.7831,5.7698,5.7698,5.7591,5.7463,5.7243,5.7151,5.7026,5.682,5.6568,5.6392,5.5892,5.5658,5.5758,5.5742,5.5749,5.5703,5.5268,5.4837,5.4746,5.4763,5.4527,5.4295,5.3964,5.3732,5.3599,5.3417,5.3169,5.3072,5.2956,5.3185,5.3533,5.3135,5.2788,5.2928,5.3005,5.2969,5.3093,5.3314,5.3433,5.3433,5.3348,5.3298,5.3264,5.3195,5.46,5.4482,5.3839,5.438,5.553,5.575,5.6579,5.7831,5.7881,5.7881,5.7881,5.7881,5.7881,5.7881,5.7881,5.7881,5.7881,5.785,5.7831,5.7865,5.7712,5.7848,5.7848,5.7881,5.7881,5.7881,5.7881,5.7881,5.7881,5.7881,5.7881,5.7881,5.7881,5.7679,5.7577,5.7459,5.7239,5.6951,5.6816,5.6596,5.6342,5.6105,5.6427,5.6681,5.685,5.7103,5.734,5.7526,5.7594,5.7645,5.7712,5.7763,5.7797,5.7848,5.7865,5.7831,5.778,5.7831,5.7865,5.7881,5.7848,5.7492,5.7628,5.7797,5.7729,5.7594,5.7611,5.7645,5.7831,5.7848,5.7881,5.7881,5.7845,5.7755,5.7681,5.7571,5.7497,5.7331,5.7122,5.6937,5.6806,5.6599,5.6721,5.683,5.6583,5.6761,5.6647,5.6265,5.5796,5.5323,5.5269,5.5165,5.4895,5.4643,5.4444,5.4262,5.4103,5.3891,5.4054,5.4054,5.4299,5.4245,5.3864,5.3533,5.3417,5.3316,5.2998,5.3024,5.3264,5.3348,5.345,5.3467,5.3382,5.3416,5.3399,5.5074,5.4583,5.4363,5.4515,5.504,5.6038,5.7036,5.7831,5.7881,5.7881,5.7881,5.7881,5.7881,5.7881,5.7881,5.7881,5.7881,5.7881,5.7865,5.7881,5.7881,5.7881,5.7881,5.7881,5.7881,5.7881,5.7881,5.7881,5.7881,5.7881,5.7881,5.7881,5.7881,5.7881,5.7881,5.7881,5.7695,5.7577,5.7476,5.7289,5.7171,5.707,5.7306,5.7408,5.7459,5.7679,5.7797,5.7881,5.7881,5.7881,5.7881,5.7881,5.7881,5.7881,5.7865,5.7865,5.7865,5.7881,5.7881,5.7881,5.7881,5.7881,5.7881,5.7881,5.7865,5.7881,5.7881,5.7881,5.7881,5.7881,5.7881,5.7881,5.7881,5.7845,5.7772,5.7735,5.7625,5.7514,5.7306,5.7139,5.7025,5.7101,5.7289,5.7335,5.7191,5.7524,5.7544,5.7127,5.6724,5.6233,5.595,5.5846,5.5617,5.5397,5.5148,5.4949,5.4791,5.4682,5.4895,5.4974,5.4874,5.4754,5.4481,5.4212,5.3967,5.3413,5.2757,5.3019,5.3597,5.3382,5.3416,5.3467,5.3518,5.3501,5.3534,5.5006,5.4566,5.4279,5.4313,5.4769,5.5869,5.6647,5.7103,5.7628,5.7881,5.7881,5.7881,5.7881,5.7881,5.7881,5.7881,5.7881,5.7881,5.7881,5.7881,5.7881,5.7881,5.7881,5.7881,5.7881,5.7881,5.7881,5.7881,5.7881,5.7881,5.7881,5.7881,5.7881,5.7881,5.7881,5.7881,5.7881,5.7848,5.7848,5.7881,5.7881,5.7881,5.7881,5.7881,5.7881,5.7881,5.7881,5.7881,5.7881,5.7881,5.7881,5.7881,5.7881,5.7881,5.7881,5.7881,5.7881,5.7881,5.7881,5.7881,5.7881,5.7881,5.7881,5.7881,5.7881,5.7881,5.7881,5.7881,5.7881,5.7881,5.7881,5.7881,5.7881,5.7881,5.7845,5.7845,5.7735,5.7678,5.753,5.7327,5.7289,5.7327,5.7439,5.7551,5.7662,5.7772,5.7808,5.7651,5.7349,5.7025,5.6792,5.6684,5.6433,5.617,5.592,5.5721,5.5692,5.5701,5.5884,5.59,5.5617,5.553,5.5505,5.4982,5.4435,5.3878,5.3454,5.368,5.4043,5.3865,5.3853,5.4073,5.399,5.3619,5.3585,5.4651,5.4515,5.3822,5.3907,5.4566,5.5294,5.5632,5.5749,5.7019,5.7712,5.7729,5.7865,5.7881,5.7881,5.7881,5.7881,5.7881,5.7881,5.7881,5.7881,5.7881,5.7881,5.7881,5.7881,5.7881,5.7881,5.7881,5.7881,5.7881,5.7881,5.7881,5.7881,5.7881,5.7881,5.7881,5.7881,5.7881,5.7881,5.7881,5.7881,5.7881,5.7881,5.7881,5.7881,5.7881,5.7881,5.7881,5.7881,5.7881,5.7881,5.7881,5.7881,5.7881,5.7881,5.7881,5.7881,5.7881,5.7881,5.7881,5.7881,5.7881,5.7881,5.7881,5.7881,5.7881,5.7881,5.7881,5.7881,5.7881,5.7881,5.7881,5.7881,5.7881,5.7881,5.7881,5.7881,5.7845,5.7735,5.7625,5.7514,5.7514,5.7514,5.7514,5.7625,5.7735,5.7845,5.7881,5.7881,5.7772,5.7551,5.7439,5.7327,5.6967,5.6666,5.6628,5.6511,5.6661,5.6766,5.6792,5.6855,5.6558,5.6567,5.6578,5.5825,5.497,5.4738,5.4462,5.4509,5.4501,5.4589,5.4632,5.4824,5.4594,5.4124,5.3906,5.5108,5.4515,5.3805,5.3619,5.3856,5.4549,5.4854,5.4938,5.5818,5.6562,5.7087,5.756,5.7848,5.778,5.7865,5.7881,5.7881,5.7881,5.7881,5.7881,5.7881,5.7881,5.7881,5.7881,5.7881,5.7881,5.7881,5.7881,5.7881,5.7881,5.7881,5.7881,5.7881,5.7881,5.7881,5.7881,5.7881,5.7881,5.7881,5.7881,5.7881,5.7881,5.7881,5.7881,5.7881,5.7881,5.7881,5.7881,5.7881,5.7881,5.7881,5.7881,5.7881,5.7881,5.7881,5.7881,5.7881,5.7881,5.7881,5.7881,5.7881,5.7881,5.7881,5.7881,5.7881,5.7881,5.7881,5.7881,5.7881,5.7881,5.7881,5.7881,5.7881,5.7881,5.7881,5.7881,5.7881,5.7808,5.7735,5.7698,5.7698,5.7678,5.7678,5.7698,5.7808,5.7881,5.7881,5.7881,5.7881,5.7735,5.7662,5.7514,5.7176,5.6958,5.7025,5.6987,5.6987,5.7101,5.7076,5.7239,5.7402,5.7093,5.6732,5.6141,5.5539,5.5335,5.5086,5.4782,5.4805,5.5162,5.5305,5.5417,5.5339,5.494,5.4662,5.4499,5.4059,5.367,5.3518,5.3585,5.394,5.411,5.4245,5.4905,5.5429,5.597,5.685,5.7408,5.7526,5.7712,5.7881,5.7881,5.7881,5.7881,5.7881,5.7881,5.7881,5.7881,5.7881,5.7881,5.7881,5.7881,5.7881,5.7881,5.7881,5.7881,5.7881,5.7881,5.7881,5.7881,5.7881,5.7881,5.7881,5.7881,5.7881,5.7881,5.7881,5.7881,5.7881,5.7881,5.7881,5.7881,5.7881,5.7881,5.7881,5.7881,5.7881,5.7881,5.7881,5.7881,5.7881,5.7881,5.7881,5.7881,5.7881,5.7881,5.7881,5.7881,5.7881,5.7881,5.7881,5.7881,5.7881,5.7881,5.7881,5.7881,5.7881,5.7881,5.7881,5.7881,5.7881,5.7881,5.7881,5.7808,5.7808,5.7808,5.7825,5.7789,5.7789,5.7881,5.7881,5.7881,5.7881,5.7881,5.7881,5.7808,5.7698,5.7402,5.7289,5.7327,5.7214,5.708,5.7176,5.7327,5.7402,5.7439,5.716,5.682,5.6487,5.6174,5.6022,5.5745,5.5493,5.5572,5.5937,5.5988,5.5953,5.5843,5.5749,5.559,5.3551,5.3518,5.3518,5.3518,5.3518,5.3518,5.3534,5.3636,5.4177,5.4532,5.4871,5.6122,5.6613,5.7019,5.7526,5.7746,5.7881,5.7881,5.7881,5.7881,5.7881,5.7881,5.7881,5.7881,5.7881,5.7881,5.7881,5.7881,5.7881,5.7881,5.7881,5.7881,5.7881,5.7881,5.7881,5.7881,5.7881,5.7881,5.7881,5.7881,5.7881,5.7881,5.7881,5.7881,5.7881,5.7881,5.7881,5.7881,5.7881,5.7881,5.7881,5.7881,5.7881,5.7881,5.7881,5.7881,5.7881,5.7881,5.7881,5.7881,5.7881,5.7881,5.7881,5.7881,5.7881,5.7881,5.7881,5.7881,5.7881,5.7881,5.7881,5.7881,5.7881,5.7881,5.7881,5.7881,5.7881,5.7881,5.7881,5.7881,5.7881,5.7881,5.7881,5.7881,5.7881,5.7881,5.7881,5.7881,5.7881,5.7881,5.7881,5.7808,5.7662,5.7588,5.7551,5.7402,5.7176,5.7252,5.7364,5.7476,5.7514,5.7364,5.7197,5.7089,5.6858,5.659,5.6563,5.6386,5.658,5.6536,5.643,5.6316,5.6363,5.6337,5.6508,5.3518,5.3518,5.3518,5.3518,5.3518,5.3518,5.3518,5.3518,5.3653,5.4008,5.4668,5.5446,5.619,5.685,5.756,5.7865,5.7881,5.7881,5.7881,5.7881,5.7881,5.7881,5.7881,5.7881,5.7881,5.7881,5.7881,5.7881,5.7881,5.7881,5.7881,5.7881,5.7881,5.7881,5.7881,5.7881,5.7881,5.7881,5.7881,5.7881,5.7881,5.7881,5.7881,5.7881,5.7881,5.7881,5.7881,5.7881,5.7881,5.7881,5.7881,5.7881,5.7881,5.7881,5.7881,5.7881,5.7881,5.7881,5.7881,5.7881,5.7881,5.7881,5.7881,5.7881,5.7881,5.7881,5.7881,5.7881,5.7881,5.7881,5.7881,5.7881,5.7881,5.7881,5.7881,5.7881,5.7881,5.7881,5.7881,5.7881,5.7881,5.7881,5.7881,5.7881,5.7881,5.7881,5.7881,5.7881,5.7881,5.7881,5.7881,5.7881,5.7845,5.7735,5.7625,5.7476,5.7289,5.7364,5.7439,5.7551,5.7625,5.7641,5.7514,5.7348,5.7235,5.7039,5.7008,5.6889,5.6779,5.6691,5.6685,5.6663,5.6689,5.6716,5.6737]}]]